     2              OBSERVATION DATA    GPS                 RINEX VERSION / TYPE
teqc 1997Jun30 19970702                                     PGM / RUN BY / DATE
                                                            COMMENT
Original Marker Name: QUAR                                  COMMENT
Campaign Name: HMC San Gabriel Valley 1993-1996             COMMENT
4-Character Station Name: QUAR                              COMMENT
6-Character Antenna Code: DMRCHT                            COMMENT
Vertical Measurement Point: BCR                             COMMENT
Vertical Offset to Rinex Ref. Point: 0.0349                 COMMENT
Radial Measurement Point: ECF                               COMMENT
Radial Offset to Rinex Ref. Point: 0.1896                   COMMENT
Antenna Height from Field Measurement: 1.6130 m             COMMENT
Additional Antenna Identification Info.:                    COMMENT
Turborogue and Ashtech Choke Ring                           COMMENT
Duplicate logsheet, original not legible.                   COMMENT
Original XYZ: -2459894.4550 -4672268.2975 3567350.6559      COMMENT
New XYZ position is based on association with SCEC monument COMMENT
E1D0R2V0+0011. Position of that monument is believed to be  COMMENT
valid to within 1 m horizontally; vertical accuracy         COMMENT
should be no worse than 3-times this value.                 COMMENT
                                                            COMMENT
Revised Rinex header created by UCSD GPS archive for        COMMENT
GSAC on 13-Apr-1999 (1999:103) 21:51:43 GMT                 COMMENT
For assistance contact dagnew@ucsd.edu or hjohnson@ucsd.edu COMMENT
                                                            COMMENT
QUARRY                                                      MARKER NAME
GAL HARVEY MUDD COLLEGE                                     OBSERVER / AGENCY
262 TURBOROGUE SNR-8000 94.10.09                            REC # / TYPE / VERS
260 DORNE-MARGOL. TYPE T                                    ANT # / TYPE
 -2451611.0000 -4682437.0000  3558872.0000                  APPROX POSITION XYZ
        1.5669        0.0000        0.0000                  ANTENNA: DELTA H/E/N
     1     1     0                                          WAVELENGTH FACT L1/2
     5    L1    L2    C1    P2    P1                        # / TYPES OF OBSERV
     0                                                      INTERVAL
  1995     2    28    16    45    0.000000                  TIME OF FIRST OBS
  1995     2    28    23    59   30.000000                  TIME OF LAST OBS
     0                                                      # OF SATELLITES
                                                            END OF HEADER
 95  2 28 16 45  0.0000000  0  4G18G29G22G14
        -1.16054        -0.56854  23042671.1314   23042672.2164
        -0.35554         0.16054  21270665.1834   21270664.4234
        -0.32454         0.37354  21186581.3074   21186581.5534
        -0.72754        -0.06154  20178256.8774   20178257.1894
 95  2 28 16 45 30.0000000  0  4G18G29G22G14
    -79723.30044    -62121.74144  23027500.6874   23027501.2414
    -44441.41344    -34629.45944  21262208.1464   21262207.4184
    -10647.90744     -8297.20244  21184555.3324   21184555.4244
      7665.90344      5973.89844  20179715.8494   20179716.1214
 95  2 28 16 46  0.0000000  0  6G18G29G14G22G25G15
   -154439.87644   -120342.41244  23013282.3564   23013282.6954
    -83812.62044    -65308.32444  21254715.9744   21254715.3154
     20849.21444     16246.57944  20182224.3754   20182224.7384
    -15682.06144    -12219.92244  21183596.9404   21183597.2004
        -0.31554         0.67054  23877238.8394   23877238.6954
         0.19654         0.66154  24578221.5764   24578223.5224
 95  2 28 16 46 30.0000000  0  7G18G29G14G22G 4G25G15
   -228474.33544   -178031.58644  22999194.2084   22999195.2774
   -122423.46044    -95394.70344  21247368.7214   21247368.1244
     35246.36644     27465.10844  20184964.1654   20184964.4914
    -19430.94844    -15141.14344  21182884.0524   21182884.0474
        -0.91854        -0.33154  24728200.2854   24728198.9704
     92646.28844     72191.91744  23894869.4784   23894868.2484
    100142.27344     78032.53944  24597278.3254   24597283.5724
 95  2 28 16 47  0.0000000  0  8G18G19G29G14G22G 4G25G15
   -302685.81244   -235858.67644  22985072.1834   22985073.4554
        -0.44154        -0.06654  24016859.5794   24016861.7914
   -161157.56244   -125577.12144  21239997.5014   21239997.1584
     49987.85444     38951.95044  20187769.4874   20187769.7434
    -22792.28444    -17760.37344  21182244.2424   21182244.5224
    -24484.94844    -19079.68944  24723540.6954   24723540.2564
    185077.79144    144216.42344  23912458.3014   23912458.5454
    199967.33744    155818.06544  24616274.6504   24616280.2484
 95  2 28 16 47 30.0000000  0  8G18G19G29G14G22G 4G25G15
   -377093.51744   -293838.69044  22970912.8754   22970912.4814
    -86685.79344    -67547.79544  24000364.1174   24000366.9324
   -200046.51844   -155880.20044  21232597.3314   21232596.9334
     65035.24244     50677.15944  20190632.9634   20190633.2044
    -25837.96644    -20133.64444  21181664.5974   21181664.7024
    -48706.45444    -37953.65944  24718931.8284   24718934.2634
    277256.91844    216044.25944  23929999.3044   23930000.0684
    299429.56044    233320.87144  24635201.8294   24635207.7874
 95  2 28 16 48  0.0000000  0  8G19G18G29G14G22G 4G25G15
   -173387.34744   -135107.44344  23983865.1294   23983868.3914
   -451653.01844   -351936.97544  22956725.1204   22956726.9234
   -239007.17244   -186239.15144  21225183.5934   21225182.9964
     80449.97444     62688.60744  20193566.2154   20193566.7294
    -28529.42744    -22230.89544  21181152.5344   21181152.7984
    -72615.92544    -56584.48744  24714381.9014
    369262.35644    287736.75544  23947507.4884   23947508.8454
    398580.88144    310581.36644  24654070.3794   24654074.4134
 95  2 28 16 48 30.0000000  0  8G18G19G29G14G22G 4G25G15
   -526334.26144   -410130.13744  22942513.5534   22942515.1284
   -260082.88144   -202662.44244  23967367.8264   23967371.3344
   -278007.67144   -216629.15944  21217762.0314   21217761.1064
     96251.35144     75001.33444  20196573.2224   20196573.7414
    -30834.11344    -24026.76744  21180713.8664   21180714.3494
    -96213.72844    -74972.47544  24709891.5774   24709894.5354
    461110.44244    359306.65044  23964986.1744   23964987.7554
    497439.13344    387613.57144  24672882.7544   24672884.4634
 95  2 28 16 49  0.0000000  0  8G18G19G29G14G22G 4G25G15
   -601063.62744   -468360.77544  22928292.8304   22928293.3144
   -346718.83744   -270171.01444  23950881.5024   23950884.3594
   -316993.39644   -247007.65944  21210343.3994   21210342.7674
    112475.11244     87643.19444  20199660.5194   20199660.9494
    -32690.46744    -25473.29244  21180360.5604   21180360.5544
   -119460.79544    -93087.14444  24705468.2674   24705470.3424
    552865.21244    430803.83144  23982446.6974   23982446.4904
    596055.46244    464457.16744  24691648.8184   24691650.5984
 95  2 28 16 49 30.0000000  0  8G18G19G29G14G22G 4G25G15
   -675897.08144   -526672.52944  22914052.8384   22914053.4814
   -433343.98144   -337671.14444  23934397.0824   23934403.0664
   -355993.24544   -277397.15544  21202921.8994   21202921.3584
    129077.51444    100580.10344  20202819.8394   20202820.3714
    -34125.24644    -26591.31444  21180087.5374   21180087.7874
   -142403.20344   -110964.41144  24701102.2514   24701104.5214
    644489.81144    502199.55544  23999881.9884   23999884.1924
    694387.20944    541079.06644  24710360.6684   24710363.8284
 95  2 28 16 50  0.0000000  0  8G18G19G29G14G22G 4G25G15
   -750759.62444   -585006.94744  22899806.7664   22899807.2094
   -519866.52944   -405091.31844  23917932.4994   23917934.7684
   -394931.63844   -307738.76544  21195512.3314   21195511.6514
    146147.22144    113881.14144  20206068.2064   20206068.5974
    -35025.08644    -27292.50444  21179916.4304   21179916.5504
   -164945.99944   -128530.31244  24696812.8144   24696815.5914
    736061.95244    573554.41144  24017308.3614   24017307.1194
    792527.16144    617551.47744  24729036.8934   24729041.5214
 95  2 28 16 50 30.0000000  0  8G18G19G29G14G22G 4G25G15
   -825548.22944   -643283.75344  22885574.8984   22885575.7874
   -606185.41344   -472352.79444  23901506.5114   23901509.0494
   -433717.47644   -337961.50244  21188131.5834   21188131.1054
    163785.93344    127625.55844  20209424.8834   20209425.2484
    -35266.22344    -27480.41844  21179870.6404   21179870.5324
   -186980.95744   -145700.44944  24692619.5424   24692623.0754
    827669.71144    644937.07744  24034740.4274   24034740.7934
    890581.89744    693957.48544  24747695.6614   24747699.4154
 95  2 28 16 51  0.0000000  0  8G18G19G29G14G22G 4G25G15
   -900346.59944   -701568.16944  22871341.4114   22871342.6734
   -692362.35944   -539503.63744  23885107.7984   23885111.0094
   -472409.32044   -368111.00044  21180768.6194   21180768.0834
    181948.41544    141778.11044  20212881.1634   20212881.4844
    -34907.27144    -27200.72744  21179938.7974   21179938.9514
   -208551.83944   -162509.00244  24688514.8254   24688516.8264
    919250.93244    716298.99344  24052167.0494   24052167.1024
    988489.33044    770248.70244  24766326.7644
 95  2 28 16 51 30.0000000  0  8G19G18G29G14G22G 4G25G15
   -778406.55744   -606551.07444  23868734.0574   23868736.9164
   -975159.75144   -759864.10044  22857105.0544   22857105.3384
   -510998.57044   -398180.55644  21173425.2944   21173424.6844
    200650.42444    156351.07244  20216440.1474   20216440.4124
    -33946.47144    -26452.06744  21180121.8384   21180121.8434
   -229647.83844   -178947.52444  24684500.9134   24684501.9164
   1010785.31944    787624.44244  24069585.5324   24069584.8514
   1086249.65244    846425.35444  24784929.8054   24784938.2444
 95  2 28 16 52  0.0000000  0  8G18G19G29G14G22G 4G25G15
  -1049929.35044   -818126.10644  22842876.5984   22842877.2224
   -864276.74444   -673462.91744  23852393.8934   23852396.4474
   -549432.76744   -428129.29044  21166111.8534   21166110.9024
    219929.87844    171373.99144  20220109.0464   20220109.0904
    -32350.86044    -25208.74944  21180425.5194   21180425.5584
   -250239.26644   -194992.87244  24680582.4164   24680582.9814
   1102316.87944    858947.67844  24087003.2524   24087003.7914
   1183901.44444    922517.30644  24803512.1864   24803519.2184
 95  2 28 16 52 30.0000000  0  8G19G18G29G14G22G 4G25G15
   -949946.35344   -740218.47044  23836091.2274   23836093.6384
  -1124621.36844   -876327.64744  22828663.6234   22828664.5144
   -587664.14844   -457919.98544  21158836.7424   21158836.0994
    239810.08344    186865.02744  20223891.9164   20223892.1864
    -30116.28444    -23467.53444  21180850.8124   21180850.7274
   -270326.93344   -210645.67844  24676759.2674   24676760.5814
   1193876.28244    930292.61544  24104427.3634   24104425.5824
   1281460.29044    998536.91244  24822077.9424
 95  2 28 16 53  0.0000000  0  8G19G18G29G14G22G 4G25G15
  -1035627.54944   -806983.07244  23819786.9314   23819789.0994
  -1199430.44344   -934620.41744  22814427.9294   22814427.9314
   -625909.38044   -487721.46944  21151558.7564   21151558.1074
    260078.42144    202658.50444  20227748.9644   20227749.2674
    -27477.06144    -21411.01344  21181353.0274   21181353.3894
   -290127.64844   -226074.88244  24672991.8044   24672995.0124
   1285255.91344   1001497.46844  24121817.1924   24121814.6894
   1378705.44544   1074312.06744  24840583.3964
 95  2 28 16 53 30.0000000  0  8G19G18G29G14G22G 4G25G15
  -1121101.88944   -873586.44644  23803521.4884   23803524.7084
  -1274129.37944   -992827.35044  22800213.0794   22800213.0914
   -663962.58944   -517373.32544  21144317.6734   21144316.8514
    280935.38744    218910.65144  20231717.8924   20231718.2894
    -24234.48644    -18884.34144  21181969.7894   21181970.1604
   -309440.87344   -241124.24444  24669317.1584   24669318.9074
   1376668.44544   1072727.97744  24139212.2674   24139210.1684
   1475844.01844   1150004.20044  24859068.4554   24859074.0874
 95  2 28 16 54  0.0000000  0  8G19G18G29G14G22G 4G25G15
  -1206324.31544   -939993.53044  23787304.0254   23787307.8844
  -1348701.09744  -1050935.16044  22786022.8324   22786022.2354
   -701803.46044   -546859.73044  21137116.9194   21137115.9624
    302408.84944    235643.18644  20235804.1344   20235804.5564
    -20363.36444    -15867.89244  21182706.6174   21182707.0224
   -328241.01844   -255773.74444  24665740.2044   24665740.7454
   1468153.76744   1144015.21544  24156621.3004   24156619.1854
   1572897.21744   1225629.75144  24877537.8794   24877544.4864
 95  2 28 16 54 30.0000000  0  8G19G18G29G14G22G 4G25G15
  -1291332.48344  -1006233.66844  23771127.9824   23771131.1084
  -1423206.09644  -1108990.97844  22771844.7674   22771844.8004
   -739502.59244   -576235.68844  21129942.8784   21129942.1254
    324468.58644    252832.55844  20240001.9934   20240002.4844
    -15897.17244    -12387.75444  21183556.6324   21183556.7634
   -346551.42444   -270041.66244  24662256.0874   24662256.2404
   1559656.39244   1215315.91044  24174034.0314   24174030.3524
   1669812.39744   1301147.78944  24895980.4274   24895986.9704
 95  2 28 16 55  0.0000000  0  8G19G18G29G14G22G 4G25G15
  -1376118.20044  -1072300.45744  23754993.4994   23754997.1004
  -1497643.80144  -1166994.36844  22757679.5534   22757680.1674
   -777064.05944   -605504.36844  21122794.9434   21122794.6234
    347119.76344    270482.78844  20244312.2564   20244312.7764
    -10804.87644     -8419.74344  21184525.6844   21184525.9624
   -364327.60844   -283893.32544  24658873.2174   24658875.0464
   1651175.32644   1286629.30344  24191449.7204   24191447.8764
   1766599.97244   1376566.42044  24914398.6194   24914402.7584
 95  2 28 16 55 30.0000000  0  8G19G18G29G14G22G 4G25G15
  -1460701.33044  -1138209.36544  23738897.9184   23738901.0114
  -1572045.25244  -1224969.50544  22743521.6444   22743522.7054
   -814502.26944   -634677.00344  21115670.7774   21115670.2164
    370336.85244    288573.98944  20248730.6454   20248730.9144
     -5092.79444     -3968.78244  21185612.6294   21185613.0504
   -381583.12244   -297339.26544  24655589.8254   24655588.4804
   1742682.02444   1357933.15144  24208862.5214   24208861.3394
   1863236.05044   1451866.90844  24932787.6134   24932793.4934
 95  2 28 16 56  0.0000000  0  8G19G18G29G14G22G 4G25G15
  -1545071.13144  -1203952.08944  23722842.6834   23722845.7794
  -1646389.01044  -1282899.68844  22729374.0364   22729374.4424
   -851795.92044   -663737.00044  21108574.2134   21108573.3644
    394133.69444    307116.94944  20253258.8884   20253259.2444
      1266.91744       986.82844  21186822.8474   21186822.9494
   -398287.08244   -310355.39244  24652411.0174   24652410.4044
   1834194.44144   1429241.46544  24226276.9114   24226275.6514
   1959733.80644   1527059.63644  24951150.3594   24951155.9974
 95  2 28 16 56 30.0000000  0  8G19G18G29G14G22G 4G25G15
  -1629249.07644  -1269545.28144  23706824.2334   23706828.1864
  -1720659.82144  -1340773.02844  22715241.0734   22715241.7284
   -888940.71144   -692681.00344  21101505.7504   21101504.7984
    418489.48644    326095.45444  20257893.8044   20257894.1644
      8269.62644      6443.47444  21188155.5784   21188155.4804
   -414451.57244   -322951.16944  24649335.1034   24649335.4214
   1925704.33044   1500547.77144  24243689.8844   24243689.2754
   2056091.72644   1602143.42444  24969487.2374   24969494.8114
 95  2 28 16 57  0.0000000  0  8G19G18G29G14G22G 4G25G15
  -1713289.78244  -1335031.52444  23690832.0204   23690834.9084
  -1794890.30344  -1398614.94644  22701115.3474   22701116.0614
   -925961.27744   -721528.21044  21094460.7864   21094460.1604
    443342.79744    345461.63244  20262623.1374   20262623.5444
     15869.04444     12365.08544  21189601.4894   21189601.8554
   -430147.84444   -335182.10144  24646347.4694   24646349.1174
   2017172.02044   1571821.23944  24261095.7144   24261095.8774
   2152268.57544   1677086.09444  24987789.4584   24987794.1594
 95  2 28 16 57 30.0000000  0  8G19G18G29G14G22G 4G25G15
  -1797164.68344  -1400388.57844  23674870.9874   23674872.4754
  -1869050.30544  -1456401.93244  22687003.0214   22687003.1304
   -962827.23544   -750254.94344  21087445.3164   21087444.7474
    468737.46544    365249.64644  20267455.5474   20267456.0584
     24087.80544     18769.30644  21191165.5034   21191165.6064
   -445370.75144   -347044.22644  24643450.5004   24643451.1454
   2108638.65644   1643093.87744  24278501.7984   24278501.8714
   2248293.32344   1751910.22344  25006062.6224   25006067.6804
 95  2 28 16 58  0.0000000  0  8G19G18G29G14G22G 4G25G15
  -1880883.02644  -1465623.65644  23658939.8074   23658942.9154
  -1943154.68644  -1514145.57944  22672901.5264   22672902.0294
   -999546.66244   -778867.49944  21080457.8924   21080457.4454
    494676.34144    385461.72044  20272391.7144   20272392.2094
     32913.09944     25646.15344  21192844.9434   21192845.1784
   -460131.12544   -358545.88544  24640642.0484   24640641.4844
   2200102.55444   1714364.39444  24295907.0794   24295905.2174
   2344160.71844   1826611.74444  25024306.2854   25024309.8784
 95  2 28 16 58 30.0000000  0  8G19G18G29G14G22G 4G25G15
  -1964420.91044  -1530718.10344  23643042.9734   23643044.8684
  -2017201.23044  -1571844.16444  22658811.1734   22658811.7084
  -1036106.86944   -807355.98444  21073500.8334   21073500.3704
    521199.73844    406129.26544  20277438.8614   20277439.3264
     42368.38344     33013.89244  21194644.3984   21194644.5144
   -474425.63844   -369684.58044  24637922.2164   24637922.5904
   2291571.91644   1785639.16744  24313313.2454   24313313.5444
   2439891.85244   1901207.09644  25042523.4924   25042530.7814
 95  2 28 16 59  0.0000000  0  8G19G18G29G14G22G 4G25G15
  -2047758.10044  -1595656.18344  23627184.5564   23627187.2894
  -2091198.85244  -1629504.62944  22644730.0414   22644729.8064
  -1072507.18244   -835719.87344  21066574.2604   21066573.3024
    548328.27144    427268.34544  20282601.3274   20282601.7934
     52453.08344     40872.09044  21196563.4994   21196563.8784
   -488237.43544   -380447.08944  24635294.1654   24635294.7334
   2383052.68844   1856922.81444  24330720.8744   24330720.6794
   2535478.78344   1975690.04444  25060713.4154   25060719.2294
 95  2 28 16 59 30.0000000  0  8G19G18G29G14G22G 4G25G15
  -2130968.40944  -1660495.36844  23611349.8084   23611350.2054
  -2165226.63544  -1687188.60544  22630643.1794   22630643.4174
  -1108828.84144   -864022.47644  21059662.5734   21059661.3074
    575982.81144    448817.29744  20287863.7534   20287864.2714
     63075.18444     49149.04744  21198584.6254   21198585.0004
   -501631.90444   -390884.45144  24632745.2654   24632746.1284
   2474460.79244   1928149.83844  24348115.0824   24348113.5324
   2630834.20544   2049992.61344  25078859.2114   25078865.1054
 95  2 28 17  0  0.0000000  0  8G19G18G29G14G22G 4G25G15
  -2213929.40944  -1725140.30044  23595562.7704   23595566.9644
  -2239149.14944  -1744790.53944  22616575.6774   22616576.0994
  -1144943.53644   -892163.81044  21052790.1404   21052789.3594
    604269.23544    470858.62844  20293246.4634   20293247.0534
     74348.15644     57933.16944  21200729.8534   21200729.9624
   -514479.62344   -400895.73244  24630300.5894   24630298.0414
   2565916.98744   1999414.33944  24365518.6944   24365519.3324
   2726072.98244   2124204.34244  25096982.8804
 95  2 28 17  0 30.0000000  0  8G19G18G29G14G22G 4G25G15
  -2296654.26044  -1789601.21544  23579820.9784   23579823.2494
  -2312973.84744  -1802316.25344  22602527.0394   22602527.4864
  -1180863.47244   -920153.38444  21045954.7214   21045953.9954
    633144.41544    493358.73244  20298741.3174   20298741.8584
     86250.14544     67207.43644  21202994.7754   21202995.1144
   -526804.86944   -410499.90544  24627954.8874   24627957.0494
   2657407.60444   2070705.65244  24382928.6564   24382931.7484
   2821165.45644   2198301.97744  25115078.5274   25115085.5544
 95  2 28 17  1  0.0000000  0  8G19G18G29G14G22G 4G25G15
  -2379138.63244  -1853874.73344  23564125.0684   23564128.6404
  -2386667.37744  -1859739.76044  22588503.7364   22588504.7164
  -1216571.08944   -947977.51044  21039159.8024   21039159.2464
    662582.15744    516297.19444  20304343.0244   20304343.7464
     98779.31144     76970.41344  21205378.8424   21205379.3354
   -538588.41544   -419681.98044  24625712.0694   24625716.8504
   2748949.96744   2142037.33444  24400348.5494   24400351.5784
   2916113.91644                  25133146.5424
 95  2 28 17  1 30.0000000  0  5G19G18G29G14G22
  -2461434.46044  -1918001.33744  23548464.2774   23548467.8454
  -2460267.64644  -1917090.59444  22574497.8774   22574498.3124
  -1252107.14044   -975667.94544  21032397.3454   21032396.7664
    692537.46344    539638.96144  20310043.2234   20310044.2244
    111903.90644     87197.36444  21207875.9704   21207876.4734
 95  2 28 17  2  0.0000000  0  5G19G18G29G22G14
  -2543574.69244  -1982006.71544  23532833.8214   23532839.5154
  -2533821.82444  -1974405.49744  22560501.2404   22560501.2744
  -1287510.22044  -1003254.76244  21025660.3754   21025660.1434
    125586.69544     97859.27944  21210479.5574   21210480.5694
    722975.55444    563356.92944  20315835.2024   20315836.3454
 95  2 28 17  2 30.0000000  0  5G19G18G29G14G22
  -2625481.57144  -2045830.23344  23517247.2204   23517249.7444
  -2607267.98044  -2031636.29944  22546525.2534   22546524.7554
  -1322716.03644  -1030687.89144  21018961.1574   21018960.6704
    753966.07544    587505.32944  20321733.0234   20321733.5374
    139899.95144    109012.43044  21213203.7944   21213204.2974
 95  2 28 17  3  0.0000000  0  8G19G18G29G14G22G 4G25G15
  -2707161.72944  -2109477.10344  23501703.9144   23501706.9024
  -2680614.23144  -2088789.20744  22532567.8274   22532568.5664
  -1357739.48444  -1057978.89844  21012296.2474   21012295.4964
    785538.77844    612107.39844  20327741.2774   20327741.8034
    154841.30644    120655.02844  21216047.1624   21216047.5604
        -0.71754        -0.60754  24617693.3684   24617692.9394
        -0.02454                  24470025.2644
        -0.38254         0.10654  25205071.6284
 95  2 28 17  3 30.0000000  0  8G19G18G29G14G22G 4G25G15
  -2788684.41244  -2173001.23944  23486190.8864   23486193.9974
  -2753954.36644  -2145937.33444  22518611.9494   22518611.6134
  -1392664.38544  -1085193.11544  21005650.2674   21005649.5204
    817634.92044    637117.34344  20333849.1174   20333849.4924
    170330.80444    132724.75044  21218994.7834   21218995.0234
     -9306.40644     -7251.58044  24615922.5044   24615920.8264
     91469.20044     71274.62644  24487431.0114   24487428.0984
     94021.36644     73262.39744  25222964.7534
 95  2 28 17  4  0.0000000  0  8G19G18G29G14G22G 4G25G15
  -2869998.93444  -2236363.17444  23470717.6274   23470721.8444
  -2827235.24244  -2203039.29944  22504666.9394   22504666.6274
  -1427442.28844  -1112292.78544  20999032.6244   20999031.6884
    850295.13944    662566.82944  20340064.1114   20340064.6244
    186410.71144    145254.53144  21222054.8254   21222055.1754
    -18137.85544    -14133.28944  24614242.1104   24614243.5104
    182906.55044    142524.50144  24504831.5654   24504828.2694
    187855.24944    146379.36144  25240821.0064
 95  2 28 17  4 30.0000000  0  8G19G18G29G14G22G 4G25G15
  -2951090.95844  -2299551.74944  23455286.0804   23455289.1164
  -2900433.11944  -2260076.59344  22490737.2624   22490737.9064
  -1462061.23444  -1139268.59544  20992444.9354   20992444.1684
    883549.31844    688479.14444  20346392.2244   20346392.6374
    203105.66844    158263.57244  21225231.7964   21225231.9284
    -26476.77444    -20631.26244  24612655.6644   24612657.0044
    274322.98644    213758.07044  24522227.6454   24522226.3174
    281521.17544    219365.39744  25258645.1934
 95  2 28 17  5  0.0000000  0  7G22G19G29G14G 4G25G15
    220397.11744    171737.41944  21228522.2724   21228522.6784
  -3031980.82044  -2362582.77544  23439893.3204   23439896.4954
  -1496525.12944  -1166123.58444  20985886.7034   20985885.9344
    917395.01044    714852.37444  20352832.9324   20352833.4174
    -34328.36544    -26749.49344  24611161.7484   24611161.3924
    365706.61644    284965.98744  24539617.4834
    375011.52744    292214.66144  25276436.4484
 95  2 28 17  5 30.0000000  0  7G22G19G29G14G 4G25G15
    238279.21744    185671.50444  21231925.2564   21231925.6074
  -3112675.55444  -2425461.75644  23424537.3794   23424540.1504
  -1530823.39244  -1192849.51044  20979359.7304   20979358.9454
    951796.74844    741658.88544  20359379.3134   20359379.8784
    -41720.12244    -32509.36044  24609755.1834   24609755.6894
    457038.30844    356133.52644  24556997.5314   24556993.0934
    468303.81644                  25294189.5494
 95  2 28 17  6  0.0000000  0  7G22G19G29G14G 4G25G15
    256777.33844    200085.60344  21235445.1144   21235445.4674
  -3193156.88144  -2488174.43744  23409222.2164   23409225.2754
  -1564928.25144  -1219424.72844  20972869.7874   20972869.0594
    986780.37744    768918.81744  20366036.5364   20366037.1774
    -48628.20144    -37892.34444  24608441.4354   24608441.9634
    548331.67344    427271.22244  24574370.5084   24574365.5634
    561416.03644                  25311908.2474
 95  2 28 17  6 30.0000000  0  7G22G19G29G14G 4G25G15
    275891.89344    214980.04644  21239082.4304   21239083.0574
  -3273425.13744  -2550721.10944  23393947.7754   23393950.4804
  -1598838.54244  -1245848.33944  20966416.9304   20966416.0304
   1022349.66644    796635.10544  20372805.0734   20372805.8294
    -55033.77844    -42883.79144  24607222.0674   24607219.2404
    639592.33144    498383.38244  24591736.6864   24591735.3594
    654346.92744                  25329592.6584
 95  2 28 17  7  0.0000000  0  7G22G19G29G14G 4G25G15
    295636.20644    230365.20844  21242839.7054   21242840.3184
  -3353475.94844  -2613098.34244  23378714.7714   23378717.9424
  -1632532.81144  -1272103.62144  20960005.0984   20960004.2734
   1058499.70044    824803.92344  20379684.3054   20379684.9704
    -60944.48544    -47489.63944  24606097.5254   24606096.1334
    730827.96444    569476.02844  24609097.4754   24609096.2344
    747092.69744                  25347242.1664
 95  2 28 17  7 30.0000000  0  8G22G18G19G29G14G 4G25G15
    316012.76044    246243.02144  21246717.5534   21246717.6624
        -1.06254        -0.92354  22407482.8244   22407483.0424
  -3433315.26044  -2675310.77244  23363522.0844   23363524.5134
  -1666030.07544  -1298205.39344  20953630.8284   20953629.9284
   1095214.62144    853412.91344  20386670.9454   20386671.6264
    -66370.00844    -51717.41644  24605065.1014   24605067.0294
    822043.98044    640553.40644  24626455.0764   24626451.8564
    839639.56344    654260.48944  25364853.4384
 95  2 28 17  8  0.0000000  0  8G22G18G19G29G14G 4G25G15
    337012.31744    262606.29744  21250713.4274   21250713.9264
    -72659.58844    -56618.07144  22393656.4314   22393656.8274
  -3512948.33544  -2737362.48244  23348368.2674   23348371.8574
  -1699357.61144  -1324174.90944  20947288.7744   20947288.1264
   1132500.77444    882467.01844  20393766.2394   20393767.0554
    -71280.11844    -55543.58744  24604130.5974   24604131.5684
    913255.32444    711627.13044  24643811.8894   24643809.5264
    931991.05644                  25382428.1194
 95  2 28 17  8 30.0000000  0  8G22G19G18G29G14G 4G25G15
    358633.03244    279453.58944  21254827.8144   21254828.3854
  -3592379.11144  -2799256.58444  23333253.3564   23333256.0254
   -145246.06044   -113178.93944  22379843.7554   22379844.1894
  -1732516.76144  -1350013.21844  20940978.8274   20940978.1914
   1170344.98244    911955.96844  20400967.9164   20400968.5404
    -75675.47144    -58968.61044  24603294.4204   24603294.7004
   1004458.23344    782694.27544  24661168.0944   24661170.8834
   1024143.30244                  25399963.8914
 95  2 28 17  9  0.0000000  0  8G22G19G18G29G14G 4G25G15
    380865.97744    296777.94544  21259058.6484   21259059.1144
  -3671609.30944  -2860994.38544  23318175.8764   23318179.2674
   -217751.39744   -169676.58744  22366046.5464   22366046.9554
  -1765512.90844  -1375724.51144  20934699.9884   20934699.3144
   1208732.90744    941868.59344  20408272.8314   20408273.6254
    -79560.43244    -61995.97144  24602554.5284   24602555.2484
   1095643.62644    853747.75544  24678520.6934   24678522.0944
   1116096.11144                  25417462.1544
 95  2 28 17  9 30.0000000  0  8G22G18G19G29G14G 4G25G15
    403701.14144    314571.56244  21263404.1074   21263404.5174
   -290159.95044   -226098.81944  22352266.9534   22352268.0964
  -3750628.40844  -2922567.68844  23303139.3344   23303143.4674
  -1798343.61244  -1401306.88844  20928452.5154   20928451.8814
   1247661.46944    972202.49144  20415680.8534   20415681.4754
    -82918.26444    -64612.60144  24601915.4184   24601915.5114
   1186819.48844    924793.83444  24695870.7234   24695870.9114
   1207855.09544                  25434923.8244
 95  2 28 17 10  0.0000000  0  8G22G18G19G29G14G 4G25G15
    427137.00644    332833.25844  21267864.1274   21267864.4784
   -362447.51644   -282426.77044  22338511.3954   22338512.1354
  -3829420.96644  -2983964.47644  23288146.1984   23288148.8484
  -1830982.38444  -1426739.70644  20922241.5254   20922240.8964
   1287140.97844   1002965.70144  20423193.5024   20423194.1514
    -85751.67044    -66820.53744  24601376.3014   24601378.3844
   1277994.46744    995839.18144  24713220.7484   24713218.8414
   1299428.04844                  25452349.6274
 95  2 28 17 10 30.0000000  0  8G22G19G18G29G14G 4G25G15
    451133.71344    351531.97444  21272429.9244   21272430.5374
  -3908016.43344  -3045207.68144  23273189.5114   23273191.5664
   -434638.01144   -338679.08944  22324773.9514   22324774.5474
  -1863455.74344  -1452043.63444  20916062.1334   20916061.1214
   1327130.74844   1034126.51644  20430803.4814   20430804.1114
    -88138.75744    -68680.67344  24600922.2684   24600922.9704
   1369118.17444   1066844.59044  24730561.2164   24730560.7484
   1390768.23644                  25469731.8194
 95  2 28 17 11  0.0000000  0  8G22G19G18G29G14G 4G25G15
    475696.13644    370671.51344  21277104.2974   21277104.8074
  -3986396.09844  -3106282.74544  23258274.5454   23258276.4124
   -506731.80144   -394856.06344  22311055.3024   22311054.8704
  -1895755.45744  -1477212.25344  20909915.6494   20909914.6904
   1367644.26644   1065695.45144  20438512.9984   20438513.9734
    -90075.95444    -70190.31744  24600553.8674   24600554.5354
   1460203.92944   1137820.41744  24747893.5544   24747893.5184
   1481883.58544                  25487071.5154
 95  2 28 17 11 30.0000000  0  8G22G19G18G29G14G 4G25G15
    500860.90544    390280.41044  21281892.7624   21281893.3284
  -4064523.86544  -3167161.51744  23243406.9324   23243409.5974
   -578694.30344   -450930.73244  22297361.4374   22297361.5584
  -1927846.43444  -1502218.21344  20903808.8104   20903808.1594
   1408727.00044   1097707.92844  20446330.6504   20446331.6264
    -91539.57644    -71330.87744  24600275.8924   24600277.9074
   1551286.23644   1208793.55044  24765224.7804
   1572800.62444   1225551.29544  25504371.8114
 95  2 28 17 12  0.0000000  0  8G22G19G18G29G14G 4G25G15
    526606.59744    410341.97444  21286792.1514   21286792.7664
  -4142439.60044  -3227875.04044  23228579.6084   23228582.5334
   -650564.77344   -506933.68644  22283684.4224   22283684.8934
  -1959769.19644  -1527093.10044  20897734.1084   20897733.4234
   1450358.44544   1130147.97144  20454252.9864   20454253.8724
    -92556.88544    -72123.69344  24600082.4324   24600083.3074
   1642331.13344   1279737.53644  24782550.4434
   1663485.57744                  25521629.4774
 95  2 28 17 12 30.0000000  0  6G19G18G22G 4G29G14
  -4220159.15744  -3288435.69344  23213790.3804   23213792.0594
   -722361.25844   -562878.97544  22270021.5554   22270021.8544
    552934.16144    430856.95144  21291802.1514   21291802.5404
    -93122.49044    -72564.49444  24599975.4344   24599976.5314
  -1991534.08244  -1551844.96744  20891689.5334   20891689.0034
   1492532.96244   1163011.19144  20462278.4654   20462279.5314
 95  2 28 17 13  0.0000000  0  6G18G19G22G 4G29G14
   -794078.56244   -618762.57644  22256374.3694   22256376.5694
  -4297682.62144  -3348843.59444  23199038.1684
    579861.79244    451839.52444  21296925.8764   21296927.0814
    -93196.08644                  24599961.4204
  -2023118.21644  -1576455.97044  20885678.9854   20885678.3464
   1535259.08944   1196304.24244  20470408.9574   20470409.7184
 95  2 28 17 13 30.0000000  0  5G19G18G22G29G14
  -4374980.77344  -3409075.84544  23184328.0414   23184333.0194
   -865674.46044   -674551.55744  22242750.4374   22242750.7804
    607432.28044    473322.99244  21302172.5914   21302173.6904
  -2054470.20544  -1600886.10344  20879712.9994   20879712.7814
   1578579.67544   1230060.49644  20478652.6544   20478654.3974
 95  2 28 17 14  0.0000000  0  5G18G19G22G29G14
   -937130.02444   -730231.22644  22229152.5734   22229153.2034
  -4452045.78744  -3469126.51344  23169663.1764   23169669.3904
    635658.89744    495317.75244  21307543.9714   21307544.3664
  -2085566.27444  -1625116.80844  20873795.7954   20873795.4984
   1622506.32444   1264289.00244  20487011.5954   20487012.5714
 95  2 28 17 14 30.0000000  0  5G19G18G22G29G14
  -4528961.07444  -3529060.43244  23155026.3394   23155028.8264
  -1008523.76544   -785862.68944  22215566.4514   22215569.5684
    664446.58944    517749.70544  21313021.9614   21313022.5974
  -2116485.59244  -1649209.79144  20867911.9934   20867911.2304
   1666943.56044   1298915.37844  20495467.7774   20495469.3474
 95  2 28 17 15  0.0000000  0  5G19G18G22G29G14
  -4605672.38544  -3588835.46644  23140429.3214
  -1079793.85344   -841397.80744  22202004.6974   22202005.2734
    693840.77044    540654.24944  21318615.4604   21318616.1654
  -2147185.34944  -1673131.69344  20862070.1794   20862069.6354
   1711928.21044   1333968.29344  20504028.1204   20504030.0444
 95  2 28 17 15 30.0000000  0  5G19G18G22G29G14
  -4682184.28944  -3648455.14644  23125869.2174   23125874.3514
  -1150950.12244   -896844.24244  22188464.2794   22188464.5064
    723821.82544    564016.08344  21324320.8894   21324321.9264
  -2177683.99544  -1696896.88444  20856266.4994   20856265.9324
   1757443.24344   1369434.50444  20512689.4354   20512690.8364
 95  2 28 17 16  0.0000000  0  5G19G18G22G29G14
  -4758466.86144  -3707896.05544  23111353.1884   23111356.6634
  -1221982.13744   -952193.86544  22174947.2344   22174947.8014
    754414.84144    587854.79444  21330142.7424   21330143.1924
  -2207973.78544  -1720499.33144  20850502.4324   20850501.9424
   1803502.29844   1405324.62444  20521454.1534   20521455.5784
 95  2 28 17 16 30.0000000  0  5G19G18G22G29G14
  -4834488.29944  -3767133.49244  23096886.8654
  -1292901.59844  -1007455.76344  22161451.4934   22161449.5814
    785628.88344    612177.42144  21336082.4584   21336082.7514
  -2238052.56344  -1743937.34344  20844778.6574   20844778.4944
   1850111.85244   1441643.70244  20530323.9414   20530325.6214
 95  2 28 17 17  0.0000000  0  5G19G18G22G29G14
  -4910259.18844  -3826175.76344  23082468.0574   23082470.1054
  -1363748.04144  -1062660.77644  22147969.7034   22147969.9384
    817435.22144    636961.54944  21342135.1534   21342135.6074
  -2267943.05944  -1767228.65544  20839090.6254   20839090.1744
   1897254.45144   1478378.14044  20539294.7084   20539296.0174
 95  2 28 17 17 30.0000000  0  5G19G18G22G29G14
  -4985808.41344  -3885045.23544  23068091.0184
  -1434570.63944  -1117847.20844  22134492.7464   22134493.3024
    849798.04744    662179.32244  21348293.6504   21348294.5554
  -2297678.97344  -1790399.50744  20833431.9474   20833431.2244
   1944906.19944   1515509.31744  20548362.7174   20548364.1624
 95  2 28 17 18  0.0000000  0  5G19G18G22G29G14
  -5061104.52944  -3943717.52844  23053763.0154   23053765.9344
  -1505328.24044  -1172983.00144  22121028.3254   22121028.6294
    882743.91344    687851.40344  21354563.0874   21354563.5694
  -2327232.84044  -1813428.55344  20827794.1364   20827793.7504
   1993100.43544   1553063.20644  20557533.9344   20557534.9244
 95  2 28 17 18 30.0000000  0  5G19G18G22G29G14
  -5136214.59144  -4002244.79444  23039469.7824
  -1576057.75544  -1228096.89344  22107568.9354   22107569.5854
    916202.07644    713922.67744  21360929.8044   21360930.8724
  -2355937.48644                  20822211.4024
   2041773.49344   1590990.21144  20566796.0004   20566797.7624
 95  2 28 17 19  0.0000000  0  4G19G18G22G14
  -5211125.48744  -4060616.90744  23025215.3744   23025218.1604
  -1646690.89044  -1283135.68344  22094127.5814   22094128.6004
    950204.64144    740418.16144  21367400.2344   21367401.0204
   2090956.96544   1629314.93144  20576155.2674   20576156.0904
 95  2 28 17 19 30.0000000  0  5G19G18G22G29G14
  -5285843.22144  -4118838.47044  23010997.0684   23010999.8674
  -1717186.16544  -1338067.08344  22080712.8984   22080713.0864
    984773.99944    767355.28944  21373978.6894   21373979.3474
        -0.01654         0.71154  20811114.0774   20811113.4664
   2140664.94244   1668048.34344  20585614.7804   20585615.9214
 95  2 28 17 20  0.0000000  0  6G19G18G22G 4G29G14
  -5360371.72844  -4176912.61444  22996814.5644   22996816.7584
  -1787529.31944  -1392879.92544  22067326.9994   22067327.6274
   1019910.10344    794734.05544  21380664.8354   21380665.9424
        -0.83054        -0.04854  24609555.3164
    -28859.74344    -22487.59944  20805622.0134   20805621.5364
   2190905.73144   1707196.94844  20595175.3034   20595176.3664
 95  2 28 17 20 30.0000000  0  5G19G18G22G29G14
  -5434694.36244  -4234826.34244  22982671.1694   22982674.4984
  -1857713.81344  -1447569.14444  22053971.4074   22053972.3064
   1055637.06844    822573.24144  21387463.6314   21387464.4264
    -57495.26944    -44801.00144  20800172.6714   20800172.2844
   2241709.70844   1746784.41044  20604843.0544   20604844.1804
 95  2 28 17 21  0.0000000  0  5G19G18G22G29G14
  -5508831.28444  -4292595.33344  22968563.7084   22968567.1494
  -1927783.10444  -1502168.58944  22040637.9484   22040638.8074
   1091931.98344    850854.95644  21394370.3594   21394371.0174
    -85935.68944    -66962.39644  20794760.7414   20794760.3004
   2293052.53144   1786791.73444  20614613.3124   20614614.2544
 95  2 28 17 21 30.0000000  0  6G19G18G22G25G29G14
  -5582734.13144  -4350181.93844  22954500.1604   22954503.4484
  -1997723.42644  -1556667.53844  22027328.5114   22027329.6644
   1128833.15444    879609.08844  21401392.5574   21401392.9834
        -0.24954                  25110363.0314
   -114141.23044    -88940.75844  20789393.5844   20789392.9854
   2344975.67344   1827251.26144  20624494.0734   20624495.1694
 95  2 28 17 22  0.0000000  0  7G19G18G22G 4G25G29G14
  -5656406.48844  -4407588.94244  22940481.1584   22940485.0964
  -2067574.26444  -1611096.75644  22014036.3094   22014037.1524
   1166322.59944    908821.62044  21408526.4734   21408527.2324
        -0.61754        -0.60554  24615520.9714   24615518.1544
     90955.15544                  25127553.7494
   -142131.83844   -110751.63744  20784067.0994   20784066.6024
   2397449.53744   1868139.92344  20634479.3834   20634480.4824
 95  2 28 17 22 30.0000000  0  6G19G18G22G 4G29G14
  -5729818.45144  -4464793.04844  22926511.5294   22926514.4324
  -2137311.49944  -1665437.46044  22000765.8914   22000766.5284
   1204427.04744    938513.37344  21415777.5074   21415777.9274
      9047.57844      7050.34444  24617242.9804   24617245.3594
   -169876.83444   -132371.13244  20778787.4364   20778786.8904
   2450477.61944   1909460.44244  20644570.3784   20644571.4924
 95  2 28 17 23  0.0000000  0  7G19G18G22G29G14G 4G25
  -5802968.12244  -4521792.76344  22912591.6124   22912594.3494
  -2206920.17144  -1719677.99044  21987519.8424   21987520.3204
   1243144.03644    968682.43044  21423145.1824   21423145.7114
   -197374.34244   -153797.78044  20773554.7844   20773554.2144
   2504044.73344   1951200.98744  20654763.9234   20654764.9084
     18587.30744     14483.79744  24619058.0974   24619065.0924
        -0.80554        -0.61654  25161898.1134
 95  2 28 17 23 30.0000000  0  8G19G18G22G29G14G 4G25G28
  -5875866.21644  -4578596.45144  22898719.9114   22898721.9934
  -2276396.34444  -1773815.27244  21974298.9454   21974299.6504
   1282467.95144    999324.41244  21430628.5054   21430628.9794
   -224625.63844   -175032.57544  20768368.9684   20768368.3874
   2558143.51344   1993355.81844  20665058.6404   20665059.8094
     28607.05344     22291.20544  24620965.0434   24620966.9974
     90202.99444     70287.12344  25179063.2574   25179065.3454
         0.40814         0.40014  25412168.635    25412161.915
 95  2 28 17 24  0.0000000  0  8G19G18G22G29G14G 4G25G28
  -5948605.56644  -4635276.43544  22884878.1894   22884881.0564
  -2345815.17044  -1827907.86144  21961088.9554   21961089.8254
   1322297.58544   1030360.46444  21438207.6504   21438208.2764
   -251717.42144   -196143.07244  20763213.6464   20763212.9814
   2612674.55644   2035847.47344  20675435.5874   20675436.5494
     39022.93544     30407.35144  24622946.6704   24622949.5234
    180267.39544                  25196202.4294
    -70915.431 4    -55258.605 4  25398673.781    25398667.901
 95  2 28 17 24 30.0000000  0  6G19G18G22G 4G29G14
  -6021192.08644  -4691837.33944  22871064.7814   22871066.9394
  -2415165.92244  -1881947.40244  21947891.8644   21947892.0424
   1362608.13344   1061771.25144  21445878.5474   21445879.2574
     49832.91344                  24625004.6424
   -278649.92944   -217129.46144  20758088.6134   20758087.6974
   2667636.47844   2078674.87644  20685894.4414   20685895.5234
 95  2 28 17 25  0.0000000  0  6G19G18G22G29G14G 4
  -6093526.86544  -4748202.07944  22857300.1954   22857303.2714
  -2484348.59844  -1935855.98044  21934727.1584   21934727.4624
   1403507.40744   1093640.78744  21453661.4914   21453661.8994
   -305325.18844   -237915.39744  20753012.5534   20753011.7674
   2723146.73544   2121929.55644  20696457.8764   20696458.8574
     61136.07344     47637.93244  24627157.5704   24627160.6694
 95  2 28 17 25 30.0000000  0  7G19G18G22G 4G28G29G14
  -6165584.28344  -4804350.69944  22843587.4954   22843590.2204
  -2553347.00744  -1989620.97344  21921597.3054   21921596.9254
   1445020.10344   1125988.31244  21461561.1844   21461561.3894
     72976.12844     56863.77144  24629411.0354   24629415.5064
        -0.79214        -0.03014  25358146.229    25358140.341
   -331728.98944   -258489.80844  20747988.1424   20747987.3114
   2779235.20244   2165634.78944  20707131.1254   20707132.0744
 95  2 28 17 26  0.0000000  0  7G19G18G22G 4G28G29G14
  -6237426.13444  -4860331.34544  22829916.8814   22829919.9214
  -2622224.41044  -2043291.67544  21908490.1984   21908490.3104
   1487059.47844   1158746.24344  21469561.3594   21469561.7384
     85273.78244     66446.27044  24631751.6214   24631756.9804
    -71013.170 4    -55334.240 4  25344633.270    25344626.701
   -357933.93244   -278909.26544  20743001.7204   20743000.6664
   2835832.85444   2209736.78844  20717901.4144   20717902.5164
 95  2 28 17 26 30.0000000  0  7G19G18G22G 4G28G29G14
  -6309045.94244  -4916138.96644  22816288.2614   22816291.3964
  -2690987.86144  -2096873.58144  21895404.7734   21895405.3224
   1529644.29244   1191929.18844  21477664.7244   21477665.1804
     98014.29744     76373.81444  24634175.6544   24634177.9494
   -142070.620 4   -110703.591 4  25331111.137    25331104.908
   -383946.16244   -299178.55544  20738051.6644   20738051.0764
   2892942.44744   2254237.70344  20728769.0694   20728770.1584
 95  2 28 17 27  0.0000000  0  7G19G18G22G 4G28G29G14
  -6380408.94944  -4971746.48044  22802708.1034   22802710.7714
  -2759610.35244  -2150345.64044  21882346.2854   21882346.7914
   1572834.52644   1225583.89244  21485883.5824   21485883.9474
    111234.03444     86674.75844  24636691.4594
   -213130.932 4   -166075.174 4  25317588.864    25317582.483
   -409737.18644   -319275.47644  20733143.7644   20733143.2394
   2950599.56444   2299165.26044  20739740.8114   20739742.1614
 95  2 28 17 27 30.0000000  0  7G19G18G22G 4G28G29G14
  -6451550.31944  -5027181.28644  22789169.6634   22789173.0344
  -2828118.62444  -2203728.70644  21869309.7424   21869310.1354
   1616575.86944   1259668.03144  21494207.2514   21494207.7074
    124881.96144     97309.35244  24639288.6834   24639293.4004
   -284225.730 4   -221473.630 4  25304059.773    25304053.504
   -435330.12544   -339218.04844  20728273.6414   20728273.0064
   3008756.79044   2344482.51444  20750807.8914   20750809.0754
 95  2 28 17 28  0.0000000  0  7G19G18G22G 4G28G29G14
  -6522485.46844  -5082455.39244  22775671.8024   22775674.5594
  -2896529.28444  -2257035.71144  21856291.4714   21856292.0974
   1660856.62944   1294172.49144  21502633.6544   21502634.1144
    138935.17344    108259.79644  24641963.4574   24641965.2834
   -355360.517 4   -276903.257 4  25290523.421    25290517.122
   -460714.18144   -358997.85644  20723443.1334   20723442.6024
   3067392.01844   2390172.23244  20761965.8994   20761967.2764
 95  2 28 17 28 30.0000000  0  7G19G18G22G 4G28G29G14
  -6593200.92544  -5137558.32944  22762215.0294   22762218.1454
  -2964824.77244  -2310252.97344  21843295.2554   21843295.9294
   1705729.19944   1329138.10144  21511172.4144   21511173.2124
    153420.90744    119547.19444  24644720.0274   24644719.7304
   -426502.545 4   -332338.506 4  25276985.345    25276979.497
   -485857.16744   -378589.81644  20718658.6184   20718658.0274
   3126533.84944   2436256.71044  20773220.2954   20773221.6854
 95  2 28 17 29  0.0000000  0  7G19G18G22G 4G28G29G14
  -6663713.86844  -5192503.45444  22748796.6644   22748799.7584
  -3033001.00044  -2363377.31144  21830321.6914   21830322.4774
   1751167.11244   1364544.23844  21519819.0314   21519819.5274
    168339.75644    131172.16044  24647558.9734   24647562.0214
   -497658.974 4   -387784.991 4  25263444.345    25263438.500
   -510755.59944   -397991.21144  20713920.4874   20713920.0444
   3186176.68344   2482731.57544  20784570.1884   20784571.5234
 95  2 28 17 29 30.0000000  0  7G19G18G22G 4G28G29G14
  -6734010.31944  -5247279.88544  22735420.1944   22735422.8224
  -3101030.34344  -2416387.19144  21817376.2354   21817376.7434
   1797171.17644   1400391.52844  21528573.3774   21528573.8554
    183714.35044    143152.20344  24650484.9834   24650488.8454
   -568814.629 4   -443230.875 4  25249904.083    25249898.171
   -535388.85544   -417185.97544  20709232.9374   20709232.5904
   3246341.46844   2529613.15544  20796019.1094   20796020.4084
 95  2 28 17 30  0.0000000  0  7G19G18G22G 4G28G29G14
  -6804089.17444  -5301886.75444  22722084.2354   22722087.3434
  -3168921.25044  -2469289.19744  21804457.3254   21804457.8794
   1843744.26144   1436682.21144  21537435.9794   21537436.5164
    199550.74144    155492.09044  24653498.9114   24653500.8974
   -639970.325 4   -498676.775 4  25236363.623    25236357.678
   -559778.47744   -436190.89844  20704591.9224   20704591.4494
   3307036.69744   2576908.06944  20807569.0654   20807570.4484
 95  2 28 17 30 30.0000000  0  7G19G18G22G 4G28G29G14
  -6873939.69244  -5356315.70644  22708792.0954   22708795.2094
  -3236648.51544  -2522063.68044  21791569.1304   21791569.5264
   1890877.59944   1473409.46144  21546404.9644   21546405.7664
    215866.12544    168205.26444  24656603.4024
   -711114.113 4   -554113.388 4  25222825.132    25222819.585
   -583932.59044   -455012.30744  20699995.4534   20699995.0624
   3368273.16144   2624624.72644  20819222.0824   20819223.1694
 95  2 28 17 31  0.0000000  0  7G19G18G22G 4G28G29G14
  -6943552.11044  -5410559.11144  22695545.1944   22695548.3764
  -3304197.77344  -2574699.46444  21778714.9744   21778715.4904
   1938555.05644   1510560.68744  21555478.0764   21555478.5694
    232667.51744    181297.15244  24659800.7444   24659801.9964
   -782236.257 4   -609533.142 4  25209291.153    25209285.324
   -607848.71244   -473648.26344  20695444.4224   20695443.9114
   3430041.18744   2672755.58744  20830976.1564   20830977.4704
 95  2 28 17 31 30.0000000  0  7G19G18G22G 4G29G14G28
  -7012955.24344  -5464639.45044  22682338.2514   22682341.2594
  -3371614.07544  -2627231.64444  21765886.1574   21765886.5374
   1986741.45144   1548108.49144  21564647.4114   21564647.9634
    249923.98744    194743.53144  24663084.4064   24663088.7264
   -631560.56844   -492125.05244  20690932.2784   20690931.6844
   3492305.26044   2721272.97644  20842824.6984   20842826.0704
   -853362.473 4   -664956.066 4  25195755.973    25195750.489
 95  2 28 17 32  0.0000000  0  7G19G18G22G 4G29G14G28
  -7082128.29244  -5518540.48544  22669175.1984   22669178.5854
  -3438887.86944  -2679652.78444  21753084.5834   21753084.1984
   2035445.15744   1586059.39444  21573915.7804   21573916.2364
    267641.04144    208548.90344  24666455.8914   24666459.5774
   -655050.30144   -510428.76044  20686462.3304   20686461.7554
   3555066.27344   2770177.59044  20854767.6484   20854769.0474
   -924470.219 4   -720364.591 4  25182224.555    25182218.976
 95  2 28 17 32 30.0000000  0  7G19G18G22G 4G29G14G28
  -7151089.03644  -5572276.10844  22656052.3814   22656055.5444
  -3506035.43944  -2731975.56944  21740306.6794   21740306.8694
   2084649.68044   1624400.54944  21583279.2734   21583279.6544
    285795.53044    222695.09844  24669911.0544   24669915.4074
   -678319.47444   -528560.60144  20682034.3294   20682034.0764
   3618288.85044   2819441.86344  20866798.5384   20866800.0874
   -995575.138 4   -775770.922 4  25168694.008    25168687.549
 95  2 28 17 33  0.0000000  0  7G19G18G22G 4G29G14G28
  -7219819.92444  -5625832.60944  22642973.3024   22642976.4924
  -3573058.86044  -2784201.61444  21727552.3424   21727552.5814
   2134376.34744   1663148.56544  21592741.7644   21592742.2734
    304396.30744    237189.02944  24673450.7864   24673453.9314
   -701347.81144   -546504.77944  20677652.1554   20677651.8034
   3681987.33344   2869076.96844  20878920.0754   20878921.4844
  -1066663.345 4   -831164.236 4  25155166.091    25155159.858
 95  2 28 17 33 30.0000000  0  7G19G18G22G 4G29G14G28
  -7288310.99544  -5679202.24244  22629939.5334   22629942.5554
  -3639964.74444  -2836336.06644  21714820.5144   21714821.0174
   2184626.56944   1702304.54544  21602303.9894   21602304.6064
    323433.94044    252023.42044  24677072.8294   24677076.2664
   -724137.28344   -564262.82744  20673315.5144   20673315.0614
   3746172.92744   2919091.64444  20891134.4504   20891135.8174
  -1137731.459 4   -886541.884 4  25141642.189    25141636.239
 95  2 28 17 34  0.0000000  0  7G19G18G22G 4G29G14G28
  -7356575.71244  -5732395.47944  22616949.3614   22616952.7304
  -3706758.01044  -2888382.76444  21702110.2914   21702110.8364
   2235387.72344   1741858.65444  21611963.5554   21611964.0804
    342877.10744    267173.76644  24680772.9744   24680777.4794
   -746714.80244   -581855.72144  20669019.1034   20669018.6614
   3810819.24644   2969465.32344  20903436.1944   20903437.5864
  -1208801.622 4   -941921.125 4  25128117.677    25128112.161
 95  2 28 17 34 30.0000000  0  7G19G18G22G 4G29G14G28
  -7424607.81744  -5785407.47544  22604003.5384   22604006.7124
  -3773416.66844  -2940324.57244  21689425.5754   21689426.0094
   2286673.49944   1781821.56344  21621722.8464   21621723.8014
    362733.93844    282646.45444  24684552.3324   24684559.7604
   -769065.17844   -599271.62044  20664765.8994   20664765.5694
   3875945.88944   3020213.27944  20915829.3544   20915830.9294
  -1279864.605 4   -997294.775 4  25114594.877    25114589.151
 95  2 28 17 35  0.0000000  0  7G19G18G22G 4G29G14G28
  -7492411.70844  -5838241.64644  22591100.6794   22591103.7364
  -3839937.47344  -2992158.96844  21676767.2214   21676767.7414
   2338482.30544   1822192.02244  21631581.7574   21631582.5374
    382992.85144    298432.43444  24688406.8774
   -791201.88544   -616521.02044  20660553.6004   20660553.3024
   3941560.34444   3071341.34844  20928315.4644   20928317.1134
  -1350919.143 4  -1052661.825 4  25101073.292    25101067.818
 95  2 28 17 35 30.0000000  0  7G19G18G22G 4G29G14G28
  -7559973.37944  -5890887.07444  22578244.0664   22578247.4594
  -3906297.60444  -3043868.16444  21664139.3194   21664139.8114
   2390832.60744   1862984.42444  21641543.4094   21641544.6234
    403669.38344    314543.89344  24692341.7114
   -813104.03244   -633587.64744  20656385.8904   20656385.4934
   4007673.14044   3122857.73644  20940896.3454   20940897.9824
  -1421939.389 4  -1108002.152 4  25087558.449    25087553.433
 95  2 28 17 36  0.0000000  0  7G19G18G22G 4G29G14G28
  -7627284.89744  -5943337.57644  22565435.2284   22565437.5394
  -3972478.96844  -3095438.05744  21651545.3134   21651545.6464
   2443741.24644   1904211.90044  21651611.8734   21651612.7924
    424778.65744    330992.47144  24696358.9954
   -834745.63044   -650451.24944  20652267.6324   20652267.1134
   4074288.75044   3174765.92544  20953572.9214   20953574.7444
  -1492909.007 4  -1163303.012 4  25074053.626    25074047.786
 95  2 28 17 36 30.0000000  0  7G19G18G22G 4G29G14G28
  -7694361.07944  -5995604.70144  22552670.8734   22552673.9524
  -4038499.74444  -3146882.81744  21638981.9914   21638982.4834
   2497190.32444   1945860.50144  21661782.7444   21661783.6604
    446307.94844    347768.40944  24700456.1404
   -856122.83844   -667108.83044  20648199.6894   20648199.2164
   4141390.18444   3227052.67644  20966342.0004   20966343.7994
  -1563831.486 4  -1218567.137 4  25060557.403    25060551.600
 95  2 28 17 37  0.0000000  0  7G19G18G29G14G22G 4G28
  -7761211.79244  -6047696.14044  22539949.5974   22539952.7944
  -4104387.98744  -3198224.30544  21626443.7794   21626444.5084
   -877241.08644   -683564.62644  20644180.9904   20644180.4854
   4208953.63444   3279699.44544  20979198.7724   20979200.4884
   2551162.58144   1987916.76944  21672053.4854   21672054.9724
    468255.46344    364870.16044  24704632.4294   24704638.6674
  -1634711.110 4  -1273797.871 4  25047069.142    25047063.770
 95  2 28 17 37 30.0000000  0  7G19G18G29G14G22G 4G28
  -7827858.98944  -6099628.99744  22527266.6504   22527269.8204
  -4170152.42844  -3249469.32444  21613929.0414   21613930.2564
   -898104.89544   -699822.15944  20640211.0124   20640210.4544
   4276959.56444   3332691.00544  20992140.1224   20992141.6054
   2605638.69444   2030365.65844  21682419.8774   21682420.8194
    490618.33444    382295.61344  24708888.6404   24708891.7364
  -1705558.671 4  -1329003.621 4  25033587.204    25033582.129
 95  2 28 17 38  0.0000000  0  7G19G18G29G14G22G 4G28
  -7894289.99444  -6151393.39344  22514625.2814   22514628.4954
  -4235764.61244  -3300595.70344  21601443.4914   21601443.9934
   -918706.23644   -715875.17044  20636290.6994   20636289.8734
   4345421.27644   3386037.71944  21005168.0964   21005169.6684
   2660629.93744   2073215.94644  21692884.3484   21692885.3734
    513399.43744    400046.95544  24713223.9504   24713230.8154
  -1776363.276 4  -1384175.927 4  25020113.379    25020108.011
 95  2 28 17 38 30.0000000  0  7G19G18G29G14G22G 4G28
  -7960484.08044  -6202973.17844  22502029.2244   22502031.9734
  -4301204.43844  -3351587.78244  21588990.7434   21588991.2904
   -939030.04944   -731711.92644  20632423.0544   20632422.5794
   4414361.47544   3439757.27544  21018286.8454   21018288.4534
   2716153.14044   2116480.74844  21703450.3344   21703451.1394
    536627.70344    418146.75744  24717644.3624   24717648.5824
  -1847099.802 4  -1439295.176 4  25006652.541    25006647.377
 95  2 28 17 39  0.0000000  0  7G19G18G29G14G22G 4G28
  -8026463.12244  -6254385.38944  22489474.0994   22489476.6544
  -4366485.39344  -3402456.05844  21576568.3544   21576568.8044
   -959111.62744   -747359.92844  20628601.4944   20628601.0384
   4483772.23344   3493843.49644  21031495.4244   21031497.1384
   2772195.14144   2160149.80744  21714114.7354   21714115.6074
    560295.61644    436589.09644  24722147.3084   24722154.9564
  -1917786.697 4  -1494375.746 4  24993201.103    24993196.187
 95  2 28 17 39 30.0000000  0  7G19G18G29G14G22G 4G28
  -8092220.84544  -6305625.15644  22476960.4514   22476963.2004
  -4431585.41844  -3453183.35544  21564179.8814   21564180.4404
   -978957.74244   -762824.45144  20624825.0084   20624824.6314
   4553651.97044   3548295.15944  21044793.1954   21044795.1084
   2828758.72044   2204225.29544  21724878.4304   21724879.6024
    584386.98544    455361.46444  24726731.6364
  -1988425.828 4  -1549419.121 4  24979758.903    24979753.468
 95  2 28 17 40  0.0000000  0  7G19G18G29G14G22G 4G28
  -8157746.93644  -6356684.42344  22464491.4324   22464493.9034
  -4496515.90044  -3503778.53344  21551824.1974   21551824.8934
   -998571.34244   -778107.79544  20621092.8264   20621092.3044
   4623992.08444   3603105.55644  21058178.4514   21058180.1414
   2885836.27644   2248701.27944  21735740.0344   21735740.9264
    608895.00744    474458.40744  24731394.9014
  -2059017.594 4  -1604425.593 4  24966325.417    24966320.224
 95  2 28 17 40 30.0000000  0  7G19G18G29G14G22G 4G28
  -8223066.46844  -6407582.73644  22452061.5524   22452063.8144
  -4561318.30244  -3554273.90844  21539492.9404   21539493.6904
  -1017972.85044   -793225.87444  20617400.9844   20617400.4344
   4694769.73444   3658256.88744  21071646.9954   21071648.9644
   2943394.45044   2293551.77144  21746693.2274   21746693.8724
    633808.24744    493871.12944  24736135.7604
  -2129581.650 4  -1659410.476 4  24952897.451    24952892.307
 95  2 28 17 41  0.0000000  0  7G19G18G29G14G22G 4G28
  -8288165.39144  -6458309.13844  22439673.4154   22439676.4064
  -4625970.20744  -3604652.01744  21527190.1414   21527190.7254
  -1037141.08044   -808162.17944  20613753.2114   20613752.6984
   4765997.59144   3713759.03244  21085201.4394   21085203.1684
   3001439.49244   2338781.64144  21757738.6504   21757739.6394
    659117.23444    513592.24944  24740953.3304
  -2200103.567 4  -1714362.530 4  24939477.466    24939472.507
 95  2 28 17 41 30.0000000  0  7G19G18G29G14G22G 4G28
  -8353030.21444  -6508853.13444  22427330.1804   22427333.1934
  -4690457.48144  -3654901.84744  21514918.4374   21514918.9374
  -1056046.94444   -822894.04444  20610155.5344   20610155.2584
   4837690.12844   3769623.26344  21098844.0214   21098846.0394
   3059976.03044   2384394.49944  21768878.0114   21768878.6134
    684823.24244                  24745844.7144
  -2270562.178 4  -1769265.260 4  24926069.691    24926064.610
 95  2 28 17 42  0.0000000  0  7G19G18G29G14G22G 4G28
  -8417655.97344  -6559210.85044  22415032.3364   22415035.2994
  -4754785.60844  -3705027.66744  21502677.2254   21502677.7524
  -1074673.45044   -837408.22544  20606610.8554   20606610.7304
   4909871.16044   3825868.13944  21112579.8104   21112581.7694
   3119007.54544   2430393.05244  21780111.3074   21780111.9194
    710944.29444    553976.63444  24750815.8554   24750817.5224
  -2340941.882 4  -1824106.503 4  24912676.651    24912671.275
 95  2 28 17 42 30.0000000  0  7G19G18G29G14G22G 4G28
  -8482062.87844  -6609398.02244  22402775.9034   22402778.1264
  -4818960.33844  -3755033.95244  21490465.0384   21490465.9184
  -1093021.52144   -851705.44844  20603119.6704   20603119.5764
   4982542.34844   3882494.95644  21126408.6124   21126410.7784
   3178521.73044   2476767.70544  21791436.3834   21791437.1704
    737458.95344    574637.24144  24755862.0994   24755863.2894
  -2411252.353 4  -1878893.812 4  24899297.422    24899291.923
 95  2 28 17 43  0.0000000  0  7G19G18G29G14G22G 4G28
  -8546229.03144  -6659397.60444  22390565.6564   22390568.3914
  -4882943.22744  -3804890.74744  21478289.8054   21478290.5044
  -1111067.05344   -865766.92844  20599685.7464   20599685.3814
   5055714.40844   3939512.05644  21140332.4584   21140334.8514
   3238548.39344   2523541.69544  21802859.3584   21802859.8324
    764382.89444    595616.81544  24760984.8694   24760992.7584
  -2481466.536 4  -1933606.071 4  24885935.410    24885930.206
 95  2 28 17 43 30.0000000  0  7G19G18G29G14G22G 4G28
  -8610181.20444  -6709230.45544  22378395.5344   22378398.1364
  -4946762.83744  -3854620.31544  21466145.2594   21466145.6424
  -1128836.26644   -879613.09644  20596304.4624   20596303.9164
   5129355.69544   3996894.79344  21154346.1934   21154348.4054
   3299078.58844   2570708.04744  21814377.8054   21814378.4544
    791711.07944    616911.29244  24766185.9264
  -2551604.488 4  -1988258.922 4  24872588.527    24872583.392
 95  2 28 17 44  0.0000000  0  7G19G18G29G14G22G 4G28
  -8673914.52044  -6758892.76244  22366267.6754   22366270.1034
  -5010410.83544  -3904216.16444  21454033.5294   21454033.8894
  -1146335.78044   -893249.10944  20592974.4224   20592973.9304
   5203458.99944   4054637.54344  21168447.8094   21168449.7134
   3360118.57344   2618271.63844  21825993.3784   21825993.9654
    819444.09444    638521.23344  24771463.2654
  -2621663.495 4  -2042850.241 4  24859256.918    24859251.653
 95  2 28 17 44 30.0000000  0  7G19G18G29G14G22G 4G28
  -8737435.56044  -6808389.68744  22354180.2454   22354181.9284
  -5073878.68644  -3953671.62644  21441955.9554   21441956.4304
  -1163592.45344   -906695.89044  20589690.4794   20589690.1024
   5277994.88544   4112717.36744  21182631.5044   21182633.7844
   3421663.85944   2666228.97444  21837704.9794   21837705.6774
    847567.50344    660435.40444  24776815.0594   24776820.7704
  -2691647.164 4  -2097382.858 4  24845939.231    24845934.118
 95  2 28 17 45  0.0000000  0  7G19G18G29G14G22G 4G28
  -8800708.75544  -6857693.81244  22342139.4634   22342140.6624
  -5137124.98244  -4002954.48044  21429920.4284   21429921.0144
  -1180586.35444   -919937.91344  20586456.7884   20586456.4244
   5352981.89844   4171148.71844  21196901.0604   21196903.4424
   3483738.34244   2714598.66644  21849517.0304   21849518.0034
    876118.26844    682682.59744  24782248.4074   24782257.0944
  -2761516.855 4  -2151826.664 4  24832643.118    24832638.247
 95  2 28 17 45 30.0000000  0  7G19G18G29G14G22G 4G28
  -8863767.09444  -6906829.68644  22330139.9644   22330141.5534
  -5200191.69344  -4052097.35544  21417919.1964   21417919.5714
  -1197348.57144   -932999.40944  20583266.8824   20583266.4554
   5428391.95144   4229909.71144  21211251.3364   21211253.4694
   3546296.26744   2763345.06744  21861421.6524   21861422.6224
    905051.70944    705227.98144  24787754.1064   24787758.7704
  -2831305.236 4  -2206207.114 4  24819362.887    24819357.679
 95  2 28 17 46  0.0000000  0  7G19G18G29G14G22G 4G28
  -8926595.35144  -6955786.74244  22318184.4224   22318187.4964
  -5263080.06944  -4101101.28044  21405952.1624   21405952.4624
  -1213871.74044   -945874.63244  20580122.6174   20580122.0234
   5504224.80644   4289000.15944  21225681.9174   21225684.2494
   3609319.36844   2812453.94644  21873414.4924   21873415.4064
    934360.74344    728066.02344  24793332.3994   24793336.6964
  -2901006.496 4  -2260519.686 4  24806099.031    24806093.795
 95  2 28 17 46 30.0000000  0  7G19G18G29G14G22G 4G28
  -8989198.85144  -7004568.67144  22306271.1144   22306274.1624
  -5325813.61444  -4149984.56044  21394014.6104   21394014.7364
  -1230146.38944   -958556.20544  20577025.8294   20577025.3764
   5580465.87444   4348408.69544  21240190.3844   21240192.5744
   3672791.72344   2861912.89144  21885492.6994   21885494.1264
    964037.29144    751190.41144  24798979.1574   24798982.3624
  -2970628.462 4  -2314770.467 4  24792850.678    24792845.211
 95  2 28 17 47  0.0000000  0  7G19G18G29G14G22G 4G28
  -9051536.78444  -7053143.66844  22294408.7314   22294410.9304
  -5388375.71744  -4198734.24944  21382109.3224   21382109.7974
  -1246111.45544   -970996.54144  20573987.8024   20573987.4164
   5657152.18644   4408164.17444  21254783.1984   21254785.4224
   3736738.80944   2911741.75544  21897661.5164   21897662.4324
    994116.61644    774628.67544  24804703.2194   24804714.3894
  -3040139.621 4  -2368934.893 4  24779622.813    24779617.495
 95  2 28 17 47 30.0000000  0  7G19G18G29G14G22G 4G28
  -9113600.76844  -7101505.19444  22282598.5714   22282601.1384
  -5450778.03544  -4247359.42844  21370234.1674   21370234.6844
  -1261760.93444   -983190.96544  20571009.8274   20571009.4064
   5734269.80844   4468255.73944  21269458.3084   21269460.3154
   3801166.58944   2961945.18744  21909922.1074   21909923.0614
   1024597.09144    798379.52744  24810503.9194   24810510.5364
  -3109543.627 4  -2423015.829 4  24766416.036    24766410.317
 95  2 28 17 48  0.0000000  0  7G19G18G29G14G22G 4G28
  -9175386.99444  -7149650.28144  22270840.4154   22270843.3374
  -5513009.07044  -4295851.13744  21358391.9284   21358392.4274
  -1277101.08444   -995144.35144  20568090.7424   20568090.1694
   5811809.34444   4528676.07044  21284213.8734   21284215.9494
   3866071.10844   3012520.10844  21922272.7804   21922274.0324
   1055482.25644    822445.71644  24816381.0684   24816384.3264
  -3178837.703 4  -2477011.105 4  24753229.670    24753224.293
 95  2 28 17 48 30.0000000  0  7G19G18G29G14G22G 4G28
  -9236913.95944  -7197593.34544  22259132.2314   22259135.1514
  -5575047.62544  -4344192.86544  21346586.6454   21346587.0544
  -1292143.49944  -1006865.74144  20565228.1554   20565227.7864
   5889763.13844   4589419.19544  21299047.9554   21299049.9634
   3931453.36644   3063467.28344  21934714.9744   21934715.8774
   1086771.85844    846827.02944  24822335.3804   24822339.8124
  -3248024.354 4  -2530922.701 4  24740063.378    24740058.419
 95  2 28 17 49  0.0000000  0  7G19G18G29G14G22G 4G28
  -9298216.72644  -7245361.71044  22247466.7834   22247469.0774
  -5636889.51744  -4392381.35144  21334818.4074   21334818.9674
  -1306917.21844  -1018377.75144  20562416.7304   20562416.2784
   5968111.33344   4650469.64844  21313956.7654   21313959.2544
   3997296.68344   3114773.73144  21947244.7684   21947245.5344
   1118438.36444    871502.05644  24828361.4074   24828367.4124
  -3317118.257 4  -2584762.041 4  24726915.346    24726910.088
 95  2 28 17 49 30.0000000  0  7G19G18G29G14G22G 4G28
  -9359317.45644  -7292972.64744  22235839.8594   22235842.5744
  -5698518.20344  -4440403.70644  21323090.8404   21323091.4404
  -1321440.02544  -1029694.25344  20559653.2694   20559652.9034
   6046850.89544   4711825.05444  21328940.6084   21328942.7094
   4063594.00444   3166433.94744  21959860.3164   21959861.2454
   1150466.07444    896458.54744  24834456.5504   24834462.9724
  -3386115.236 4  -2638525.876 4  24713786.063    24713780.348
 95  2 28 17 50  0.0000000  0  8G19G18G29G14G22G 4G28G27
  -9420218.51144  -7340427.99644  22224250.7114   22224253.9014
  -5759911.75544  -4488242.83644  21311408.0564   21311409.0394
  -1335687.26144  -1040796.02144  20556942.1594   20556941.8264
   6126016.54644   4773512.47944  21344005.3314   21344007.8814
   4130363.15044   3218461.82344  21972565.8624   21972567.2484
   1182866.14744    921705.21844  24840622.5604   24840629.3254
  -3454989.221 4  -2692193.879 4  24700679.361    24700674.226
        -0.52354         0.10054  25589579.0234   25589583.6764
 95  2 28 17 50 30.0000000  0  8G19G18G29G14G22G 4G28G27
  -9480945.76144  -7387747.91044  22212694.5404   22212697.5954
  -5821103.05944  -4535924.37144  21299763.8464   21299764.3874
  -1349670.94144  -1051692.42244  20554281.0624   20554280.6974
   6205601.61544   4835526.72244  21359149.9634   21359152.3534
   4197596.24044   3270851.20844  21985360.2554   21985361.4544
   1215612.83944    947221.91944  24846853.1244   24846859.2814
  -3523753.827 4  -2745776.661 4  24687594.108    24687588.723
    -83659.20544                  25573658.7494
 95  2 28 17 51  0.0000000  0  8G19G18G29G14G22G 4G28G27
  -9541511.56744  -7434942.01844  22201169.4134   22201171.9174
  -5882137.26044  -4583483.49344  21288149.3274   21288150.0654
  -1363408.06944  -1062396.70344  20551667.0244   20551666.9864
   6285594.87144   4897859.03444  21374372.4154   21374374.8774
   4265269.75344   3323583.78244  21998237.8914   21998239.0134
   1248674.36544    972983.99844  24853144.3094
  -3592423.930 4  -2799285.811 4  24674526.637    24674521.309
   -167291.58744   -130357.64044  25557744.4384   25557751.7264
 95  2 28 17 51 30.0000000  0  7G19G18G29G14G22G28G27
  -9601879.48944  -7481981.93744  22189681.6574   22189684.0744
  -5943014.18044  -4630920.05644  21276564.7364   21276565.5614
  -1376882.41244  -1072896.21644  20549102.9334   20549102.7734
   6366017.97244   4960526.28344  21389676.0454   21389678.4654
   4333406.05544   3376676.97244  22011203.8194   22011205.1194
  -3660976.316 4  -2852703.238 4  24661481.016    24661476.252
   -250878.81244   -195490.63544  25541838.2334   25541844.5544
 95  2 28 17 52  0.0000000  0  8G19G18G29G14G22G31G28G27
  -9662040.99744  -7528861.00844  22178233.4694   22178236.0794
  -6003750.44944  -4678247.02144  21265007.0724   21265007.6704
  -1390105.73844  -1083200.13244  20546586.9134   20546586.4174
   6446861.47544   5023521.12044  21405060.3274   21405062.9364
   4402004.28444   3430130.09844  22024257.8254   22024259.3374
         0.05554                  25253058.1614
  -3729419.466 4  -2906035.553 4  24648456.756    24648451.891
   -334417.04144   -260585.37144  25525941.2514   25525950.9314
 95  2 28 17 52 30.0000000  0  8G19G18G29G14G22G31G28G27
  -9721893.32344  -7575499.15944  22166843.9124   22166846.6234
  -6064251.02044  -4725390.32644  21253494.3974   21253494.8864
  -1402996.29244  -1093244.75244  20544133.8844   20544133.4214
   6528196.06944   5086898.61844  21420537.7904   21420540.4984
   4471135.86644   3483998.82944  22037413.0024   22037413.8794
    -81929.92944                  25237467.2914
  -3797668.947 4  -2959216.961 4  24635469.697    24635464.568
   -417804.77244   -325562.94044  25510073.2684
 95  2 28 17 53  0.0000000  0  8G19G18G29G14G22G31G28G27
  -9781462.82744  -7621916.92644  22155508.0064   22155510.8394
  -6124531.85244  -4772362.41444  21242022.9714   21242023.4824
  -1415582.20144  -1103051.98744  20541738.6604   20541738.4234
   6609972.82644   5150620.65844  21436099.4514   21436102.4684
   4540753.30744   3538246.14744  22050660.5884   22050661.9964
   -164010.99244                  25221848.1904
  -3865756.477 4  -3012272.164 4  24622513.159    24622507.955
   -501062.01744   -390438.74044  25494230.8754   25494239.8104
 95  2 28 17 53 30.0000000  0  8G19G18G29G14G22G31G28G27
  -9840803.46344  -7668156.35944  22144216.0944   22144218.9474
  -6184632.82544  -4819194.34544  21230586.0794   21230587.0094
  -1427904.57344  -1112653.86544  20539393.7344   20539393.5624
   6692122.63644   5214633.38544  21451732.2784   21451735.0224
   4610796.80244   3592825.45444  22063989.6854   22063990.7604
   -246285.22244                  25206191.4734
  -3933734.639 4  -3065242.130 4  24609576.899    24609571.991
   -584232.15744   -455246.71244  25478403.9074   25478412.0984
 95  2 28 17 54  0.0000000  0  8G19G18G29G14G22G31G28G27
  -9899881.41944  -7714191.09944  22132973.7054   22132976.8594
  -6244505.98144  -4865848.75644  21219192.9254   21219193.5184
  -1439915.38444  -1122012.96544  20537108.1594   20537108.1794
   6774670.70344   5278956.44744  21467440.6814   21467443.0424
   4681278.91544   3647746.54344  22077401.9044   22077403.3124
   -328709.94644                  25190506.6064
  -4001567.273 4  -3118098.695 4  24596668.670    24596664.194
   -667279.04844   -519958.61244  25462599.8084
 95  2 28 17 54 30.0000000  0  8G19G18G29G14G22G31G28G27
  -9958717.07244  -7760037.03744  22121777.6964   22121780.6764
  -6304157.05044  -4912330.11344  21207841.7984   21207841.9264
  -1451605.62144  -1131122.26744  20534883.7864   20534883.7304
   6857606.46344   5343581.60544  21483222.9294   21483225.8134
   4752174.02244   3702989.45544  22090892.8924   22090894.4294
   -411286.33944   -320481.03344  25174792.9524
  -4069258.946 4  -3170845.421 4  24583787.630    24583782.867
   -750224.93244   -584591.80644  25446815.5984   25446822.4844
 95  2 28 17 55  0.0000000  0  8G19G18G29G14G22G31G28G27
 -10017329.28444  -7805708.86444  22110623.9724   22110626.8204
  -6363603.44944  -4958651.99144  21196529.5594   21196530.0294
  -1462983.14344  -1139987.89744  20532718.7024   20532718.3934
   6940922.74644   5408503.26844  21499077.6394   21499080.6514
   4823476.98244   3758550.16844  22104461.4564   22104462.2144
   -494020.39344                  25159048.8474
  -4136813.611 4  -3223485.381 4  24570932.610    24570927.228
   -833093.81844   -649164.99444  25431046.6074
 95  2 28 17 55 30.0000000  0  8G19G18G29G14G22G31G28G27
 -10075714.79244  -7851204.03744  22099513.5444   22099516.5694
  -6422847.83344  -5004816.45444  21185255.5744   21185256.0494
  -1474046.23244  -1148608.51744  20530613.5804   20530613.2374
   7024630.32244   5473729.83944  21515006.8034   21515009.6694
   4895194.10044   3814433.59444  22118109.0594   22118110.4214
   -576894.42844                  25143277.3494
  -4204224.597 4  -3276013.373 4  24558104.519    24558099.670
   -915899.68144   -713689.02244  25415289.7174
 95  2 28 17 56  0.0000000  0  8G19G18G29G14G22G31G28G27
 -10133883.58944  -7896530.34744  22088444.4624   22088447.5514
  -6481901.53344  -5050832.33644  21174017.9874   21174018.3254
  -1484808.68844  -1156994.87844  20528565.4434   20528565.2384
   7108732.12844   5539263.60244  21531011.0754   21531013.4684
   4967315.83244   3870632.31144  22131833.2614   22131834.0724
   -659906.19344                  25127481.2874
  -4271498.433 4  -3328434.490 4  24545302.641    24545297.095
   -998662.33544   -778179.47444  25399540.4914   25399546.8574
 95  2 28 17 56 30.0000000  0  8G19G18G29G14G22G31G28G27
 -10191840.13444  -7941691.26144  22077415.6964   22077418.0124
  -6540757.45744  -5096694.10144  21162818.1194   21162818.5264
  -1495271.58644  -1165147.81344  20526574.5454   20526574.4394
   7193247.92644   5605119.95544  21547094.0284   21547096.2774
   5039870.42444   3927168.32144  22145639.7434   22145641.0104
   -743027.27644                  25111664.0064
  -4338620.854 4  -3380737.625 4  24532529.643    24532524.071
  -1081373.16144   -842629.48344  25383800.6514   25383809.3394
 95  2 28 17 57  0.0000000  0  8G19G18G29G14G22G31G28G27
 -10249570.94944  -7986676.28444  22066429.6384   22066432.7904
  -6599414.55644  -5142400.94044  21151656.1294   21151656.3544
  -1505448.86944  -1173078.19344  20524637.9714   20524637.8834
   7278172.54944   5671294.87844  21563254.5554   21563257.3244
   5112868.86644   3984050.19044  22159530.5544   22159532.3074
   -826244.09844                  25095828.3294
  -4405588.021 4  -3432919.766 4  24519786.257    24519780.499
  -1164027.65444                  25368071.8424
 95  2 28 17 57 30.0000000  0  8G19G18G29G14G22G31G28G27
 -10307058.63144  -8031471.85644  22055490.4214   22055493.3954
  -6657856.59144  -5187940.19844  21140535.0444   21140535.4664
  -1515328.53544  -1180776.66344  20522757.9574   20522757.7844
   7363519.10144   5737798.56644  21579495.6174   21579498.4574
   5186322.93644   4041287.09644  22173508.7554   22173510.0414
   -909547.41644                  25079975.1054
  -4472384.566 4  -3484968.962 4  24507074.644    24507069.450
  -1246608.83544   -971384.65244  25352356.9604
 95  2 28 17 58  0.0000000  0  8G19G18G29G14G22G31G28G27
 -10364318.96644  -8076090.27444  22044593.8384   22044596.5144
  -6716083.25144  -5233311.62544  21129454.9084   21129455.4484
  -1524917.03744  -1188248.25344  20520933.2434   20520932.9874
   7449273.33944   5804619.93644  21595814.0764   21595817.1324
   5260226.77644   4098874.47244  22187572.2514   22187573.2494
   -992952.86744                  25064103.1414
  -4539006.689 4  -3536882.241 4  24494396.907    24494391.504
  -1329105.60944  -1035667.88644  25336659.1894
 95  2 28 17 58 30.0000000  0  8G19G18G29G14G22G31G28G27
 -10421357.67244  -8120535.98944  22033739.6924   22033742.6674
  -6774100.44944  -5278519.83944  21118414.6624   21118415.2564
  -1534229.91744  -1195505.07244  20519160.8404   20519160.7824
   7535403.87244   5871734.52344  21612204.3964   21612207.1274
   5334566.57644   4156801.54744  22201719.1214   22201719.8604
  -1076484.92344                  25048207.7614
  -4605457.594 4  -3588662.097 4  24481751.727    24481746.925
  -1411518.60244  -1099885.80244  25320976.7744
 95  2 28 17 59  0.0000000  0  8G19G18G29G14G22G31G28G27
 -10478143.59444  -8164784.73044  22022933.7314   22022936.5924
  -6831889.08744  -5323549.96044  21107417.8114   21107418.1634
  -1543236.16444  -1202522.95944  20517447.2824   20517447.1054
   7621910.95544   5939142.52844  21628666.3914   21628669.3424
   5409342.33344   4215068.34044  22215948.5444   22215949.3124
  -1160147.91044   -904006.92244  25032287.1224
  -4671716.606 4  -3640292.426 4  24469143.000    24469137.786
  -1493824.36744                  25305313.6554
 95  2 28 17 59 30.0000000  0  8G19G18G29G14G22G31G28G27
 -10534710.82344  -8208863.06444  22012169.3024   22012172.0764
  -6889460.50744  -5368410.81844  21096462.1504   21096462.8184
  -1551940.20444  -1209305.36044  20515791.1554   20515790.7054
   7708770.04844   6006824.81744  21645195.1844   21645197.7994
   5484532.07644   4273657.71444  22230256.8154   22230257.8924
  -1243961.77844                  25016337.3394
  -4737795.209 4  -3691782.177 4  24456568.053    24456563.427
  -1576026.17944  -1228073.62744  25289671.4214
 95  2 28 18  0  0.0000000  0  8G19G18G29G14G22G31G28G27
 -10591054.84144  -8252767.46544  22001447.4264   22001449.7114
  -6946803.01044  -5413093.29844  21085550.4254   21085551.1924
  -1560339.40944  -1215850.22844  20514192.7484   20514192.4614
   7795970.77144   6074773.31344  21661789.1064   21661791.7874
   5560129.28344   4332564.58544  22244642.0904   22244643.2734
  -1327912.98844  -1034732.28844  25000361.4704
  -4803692.867 4  -3743130.920 4  24444028.185    24444023.745
  -1658125.76944  -1292047.36444  25274048.4534   25274058.1344
 95  2 28 18  0 30.0000000  0  8G19G18G29G14G22G31G28G27
 -10647171.38344  -8296494.61744  21990768.7014   21990771.4844
  -7003922.62444  -5457602.09944  21074681.0034   21074681.7504
  -1568446.28844  -1222167.30644  20512649.9544   20512649.8644
   7883503.85344   6142980.78844  21678446.1624   21678448.9784
   5636121.64244   4391779.37944  22259103.1284   22259104.6684
  -1412005.39944                  24984359.6284
  -4869426.046 4  -3794351.513 4  24431519.832    24431514.623
  -1740151.75344  -1355963.78944  25258439.5914   25258442.8764
 95  2 28 18  1  0.0000000  0  8G19G18G29G14G22G31G28G27
 -10703088.25344  -8340066.17744  21980128.4154   21980130.7614
  -7060832.66144  -5501947.59444  21063851.0484   21063851.6954
  -1576274.56744  -1228267.29544  20511160.1624   20511160.3094
   7971370.06944   6211447.84144  21695166.6284   21695169.4974
   5712499.40744   4451294.48644  22273636.9764   22273638.4554
  -1496239.05744                  24968329.9934
  -4935009.935 4  -3845455.763 4  24419039.183    24419034.505
  -1822122.24544  -1419836.88244  25242840.8904
 95  2 28 18  1 30.0000000  0  8G19G18G29G14G22G31G28G27
 -10758796.73344  -8383475.35044  21969527.3544   21969529.2124
  -7117516.53644  -5546116.85844  21053064.6134   21053065.1244
  -1583825.29844  -1234151.01544  20509723.5724   20509723.5544
   8059589.27344   6280189.94844  21711954.2444   21711957.3124
   5789282.16844   4511125.18544  22288248.6734   22288250.0414
  -1580585.35344  -1231619.31644  24952279.3424   24952289.2704
  -5000431.790 4  -3896433.741 4  24406589.786    24406585.130
  -1904043.21344  -1483671.46844  25227252.7544   25227262.6824
 95  2 28 18  2  0.0000000  0  8G19G18G29G14G22G31G28G27
 -10814256.72844  -8426690.89944  21958973.3944   21958976.2984
  -7173957.63744  -5590096.94344  21042324.2164   21042324.9034
  -1591081.83644  -1239805.49644  20508342.7624   20508342.6164
   8148178.16244   6349220.12244  21728812.1764   21728815.2474
   5866480.90844   4571280.00944  22302939.0434   22302940.6564
  -1665017.90744  -1297410.76044  24936213.0164   24936222.2004
  -5065670.435 4  -3947268.965 4  24394175.422    24394170.458
  -1985906.85144  -1547461.35244  25211674.5414   25211679.8644
 95  2 28 18  2 30.0000000  0  8G19G18G29G14G22G31G28G27
 -10869479.03644  -8469721.23944  21948465.0594   21948467.4564
  -7230174.17744  -5633902.05044  21031626.6964   21031627.3294
  -1598042.19544  -1245229.19044  20507018.2234   20507018.4044
   8237144.26544   6418544.22744  21745742.1344   21745745.1914
   5944095.57844   4631758.94044  22317708.5414   22317710.4574
  -1749532.85844  -1363266.37744  24920129.1584   24920138.0934
  -5130722.494 4  -3997958.793 4  24381796.231    24381791.608
  -2067705.04044  -1611200.23444  25196108.5114
 95  2 28 18  3  0.0000000  0  8G19G18G29G14G22G31G28G27
 -10924481.03444  -8512579.91444  21937998.8174   21938000.8244
  -7286182.11144  -5677544.60744  21020968.6334   21020969.2054
  -1604696.12144  -1250414.10444  20505751.8454   20505751.9784
   8326473.71844   6488151.46144  21762741.0374   21762744.0474
   6022108.95744   4692548.54144  22332553.8134   22332555.6934
  -1834140.92344  -1429194.48644  24904028.4874   24904033.2924
  -5195587.822 4  -4048503.101 4  24369452.621    24369448.390
  -2149429.27344  -1674881.48244  25180556.6914   25180562.2144
 95  2 28 18  3 30.0000000  0  8G19G18G29G14G22G31G28G27
 -10979254.53944  -8555260.53844  21927575.5814   21927578.0084
  -7341984.38744  -5721026.91144  21010349.8784   21010350.3604
  -1611028.64844  -1255348.57544  20504546.9924   20504546.9544
   8416149.31644   6558028.41844  21779805.6534   21779808.7474
   6100504.54644   4753635.97544  22347472.2864   22347473.4674
  -1918848.21944  -1495199.94744  24887909.9334   24887921.3514
  -5260265.192 4  -4098900.951 4  24357145.007    24357140.732
  -2231088.88444  -1738512.39444  25165017.5884
 95  2 28 18  4  0.0000000  0  8G19G18G29G14G22G31G28G27
 -11033828.46044  -8597785.65144  21917190.5004   21917192.8734
  -7397588.03544  -5764354.43644  20999768.9034   20999769.3844
  -1617041.42444  -1260033.89144  20503402.9654   20503402.8844
   8506153.59444   6628161.48744  21796932.9974   21796935.9304
   6179256.74544   4815001.30244  22362458.1374   22362459.5574
  -2003670.51944  -1561295.09944  24871768.0124   24871775.7974
  -5324763.828 4  -4149159.530 4  24344871.047    24344867.130
  -2312675.54744  -1802086.44144  25149491.8844   25149502.3094
 95  2 28 18  4 30.0000000  0  8G19G18G29G14G22G31G28G27
 -11088204.80144  -8640156.79744  21906843.0524   21906845.4474
  -7452963.59344  -5807504.22944  20989231.2984   20989231.7204
  -1622708.94744  -1264450.18344  20502324.4154   20502324.4484
   8596517.92444   6698575.12044  21814128.8664   21814132.3004
   6258380.63244   4876656.23644  22377515.2444   22377516.9324
  -2088597.97844  -1627472.16044  24855606.6164   24855615.0564
  -5389064.304 4  -4199263.710 4  24332635.249    24332631.236
  -2394168.65044  -1865587.56944  25133984.6684
 95  2 28 18  5  0.0000000  0  8G19G18G29G14G22G31G28G27
 -11142350.38644  -8682348.13444  21896539.2214   21896542.1764
  -7508058.76544  -5850435.54244  20978747.1204   20978747.6734
  -1628004.00444  -1268576.24144  20501316.8684   20501316.9214
   8687262.99344   6769285.42444  21831397.1094   21831400.4904
   6337898.67744   4938618.31044  22392647.0094   22392649.0804
  -2173606.75144                  24839430.0864
  -5453132.337 4  -4249186.763 4  24320443.194    24320439.260
  -2475548.34244  -1929000.38944  25118498.6174   25118505.5564
 95  2 28 18  5 30.0000000  0  8G19G18G29G14G22G31G28G27
 -11196315.37044  -8724398.74244  21886270.1764   21886272.4204
  -7562913.25844  -5893179.31644  20968308.6134   20968309.2484
  -1633001.51344  -1272470.44544  20500365.8364   20500365.9574
   8778341.24544   6840255.34744  21848728.6594   21848731.9724
   6417760.91944   5000848.59844  22407844.8224   22407846.0884
  -2258732.22344  -1760043.84444  24823230.8074   24823239.7434
  -5517016.236 4  -4298966.339 4  24308286.748    24308282.205
  -2556867.28044  -1992365.78944  25103023.9454   25103029.8464
 95  2 28 18  6  0.0000000  0  8G19G18G29G14G22G31G28G27
 -11250083.62744  -8766296.05944  21876038.3634   21876040.6194
  -7617512.42344  -5935724.13244  20957918.5954   20957919.1654
  -1637698.95344  -1276130.82944  20499471.9264   20499472.0034
   8869769.08444   6911497.68044  21866127.2794   21866130.6924
   6497988.76844   5063363.77544  22423111.4514   22423113.1814
  -2343958.00244  -1826453.31344  24807013.1834   24807023.3604
  -5580698.020 4  -4348588.415 4  24296168.690    24296164.084
  -2638096.84644  -2055661.57844  25087566.8214   25087578.2384
 95  2 28 18  6 30.0000000  0  8G19G18G29G14G22G31G28G27
 -11303546.76844  -8807955.61944  21865864.8564   21865866.9584
  -7671775.98044  -5978007.43844  20947592.6454   20947593.0414
  -1642012.87644  -1279492.36944  20498651.1154   20498650.9434
   8961623.66644   6983072.54344  21883606.7364   21883609.9544
   6578674.20044   5126235.49844  22438465.2084   22438466.6774
  -2429196.22844  -1892872.52344  24790792.5794   24790801.0194
  -5644086.409 4  -4397981.880 4  24284106.170    24284101.516
  -2719158.42544  -2118826.46844  25072141.5914   25072144.0474
 95  2 28 18  7  0.0000000  0  8G19G18G29G14G22G31G28G27
 -11356728.27244  -8849395.72744  21855744.4904   21855746.5914
  -7725743.22544  -6020059.85344  20937322.9674   20937323.5294
  -1645980.19644  -1282583.82444  20497896.3074   20497896.1164
   9053845.21844   7054933.35844  21901155.9994   21901159.3724
   6659787.03144   5189440.25044  22453900.7704   22453902.4464
  -2514468.72544  -1959318.49444  24774565.3974   24774574.3324
  -5707210.625 4  -4447169.506 4  24272093.857    24272089.380
  -2800083.87544                  25056742.0584
 95  2 28 18  7 30.0000000  0  8G19G18G29G14G22G31G28G27
 -11409725.22044  -8890692.01344  21845659.0774   21845661.8934
  -7779518.49344  -6061962.67144  20927089.7714   20927090.6504
  -1649681.57944  -1285468.06244  20497192.0624   20497191.8644
   9146329.13844   7126998.60744  21918754.6034   21918758.1164
   6741235.07844   5252906.22744  22469399.4504   22469401.0234
  -2599862.79644  -2025859.20244  24758315.4744   24758322.8264
  -5770165.771 4  -4496225.395 4  24260113.812    24260109.306
  -2880961.14144  -2244906.53544  25041351.1104   25041356.2824
 95  2 28 18  8  0.0000000  0  8G19G18G29G14G22G31G28G27
 -11462499.41344  -8931814.73144  21835616.7874   21835618.7484
  -7833067.88144  -6103689.47544  20916899.5614   20916900.3144
  -1653058.55544  -1288099.51244  20496549.3024   20496549.2804
   9239106.21344   7199292.28244  21936409.6874   21936413.4154
   6823051.97344   5316659.60744  22484968.6174   22484970.6644
  -2685349.69044  -2092472.09644  24742047.7874   24742055.5404
  -5832915.825 4  -4545121.482 4  24248172.736    24248168.173
  -2961762.02244  -2307868.25344  25025975.3484   25025982.4674
 95  2 28 18  8 30.0000000  0  8G19G18G29G14G22G31G28G27
 -11515042.04844  -8972757.01544  21825618.0504   21825620.8244
  -7886379.47844  -6145230.99444  20906754.8704   20906755.5574
  -1656088.80544  -1290460.78644  20495972.5824   20495972.5494
   9332186.76544   7271822.43444  21954122.7114   21954126.4274
   6905240.95844   5380702.91244  22500608.6974   22500610.3064
  -2770909.48044  -2159141.84044  24725765.9074   24725776.0844
  -5895445.833 4  -4593846.112 4  24236273.463    24236269.439
  -3042488.39844  -2370771.92944  25010613.3224   25010622.7554
 95  2 28 18  9  0.0000000  0  8G19G18G29G14G22G31G28G27
 -11567349.52944  -9013516.06044  21815664.4344   21815666.7854
  -7939455.31744  -6186588.80944  20896655.0324   20896655.4554
  -1658763.85344  -1292545.28344  20495463.5964   20495463.6194
   9425586.26944   7344601.12244  21971896.1134   21971899.8264
   6987805.37244   5445038.77644  22516320.4804   22516321.6284
  -2856527.82444                  24709473.1414
  -5957749.217 4  -4642394.142 4  24224417.478    24224413.074
  -3123142.85844  -2433619.56144  24995265.8684   24995272.7284
 95  2 28 18  9 30.0000000  0  8G19G18G29G14G22G31G28G27
 -11619431.20744  -9054099.16344  21805753.7634   21805755.7664
  -7992304.63744  -6227770.11744  20886598.1294   20886598.6564
  -1661092.55144  -1294359.89544  20495020.7354   20495020.8514
   9519314.87944   7417636.26044  21989732.3174   21989735.8594
   7070732.68744   5509657.41744  22532101.1214   22532102.6964
  -2942217.62044  -2292628.12544  24693167.3644
  -6019830.391 4  -4690769.038 4  24212604.081    24212599.806
  -3203732.82544  -2496416.93244  24979929.7524   24979936.7744
 95  2 28 18 10  0.0000000  0  8G19G18G29G14G22G31G28G27
 -11671282.90344  -9094503.05644  21795886.5834   21795888.7344
  -8044926.67544  -6268774.32044  20876584.5164   20876585.2594
  -1663087.88144  -1295914.73944  20494641.1254   20494641.1254
   9613377.91144   7490931.97844  22007632.1614   22007635.4834
   7154008.38944   5574547.52644  22547947.9994   22547949.8674
  -3027990.87244                  24676845.2584
  -6081688.235 4  -4738969.899 4  24200832.895    24200828.469
  -3284267.05844  -2559170.88844  24964605.2954   24964611.4134
 95  2 28 18 10 30.0000000  0  8G19G18G29G14G22G31G28G27
 -11722876.57444  -9134705.88744  21786068.6244   21786070.9104
  -8097291.80844  -6309578.33944  20866619.9964   20866620.5394
  -1664739.46344  -1297201.72944  20494326.6974   20494326.5434
   9707788.95644   7564498.87744  22025597.9984   22025601.4764
   7237654.79344   5639726.48944  22563865.6024   22563866.1454
  -3113818.70844                  24660512.0354
  -6143294.361 4  -4786974.611 4  24189109.705    24189104.920
  -3364716.98844  -2621859.16944  24949295.3404   24949302.3724
 95  2 28 18 11  0.0000000  0  8G19G18G29G14G22G31G28G27
 -11774209.57744  -9174705.60744  21776300.0124   21776302.7514
  -8149384.99744  -6350170.45844  20856707.1634   20856707.7254
  -1666061.66744  -1298232.06144  20494075.1444   20494075.0834
   9802544.37644   7638334.12444  22043629.3194   22043632.5154
   7321671.67644   5705194.13544  22579853.2054   22579854.2564
  -3199699.16444  -2493262.59844  24644169.1534   24644174.5144
  -6204643.981 4  -4834779.448 4  24177435.221    24177430.760
  -3445070.51544  -2684472.32044  24934004.3044   24934011.6234
 95  2 28 18 11 30.0000000  0  8G19G18G29G14G22G31G28G27
 -11825309.94544  -9214524.05244  21766575.8814   21766578.5684
  -8201203.49344  -6390548.53044  20846846.1274   20846846.7844
  -1667067.84644  -1299016.13744  20493883.7144   20493883.8744
   9897610.93944   7712411.81044  22061719.9384   22061723.3134
   7406034.12744   5770931.05044  22595906.9714   22595908.5424
  -3285645.33044  -2560233.48844  24627814.1124   24627823.5444
  -6265747.099 4  -4882392.207 4  24165807.633    24165803.095
  -3525332.69644  -2747014.23544  24918730.4754
 95  2 28 18 12  0.0000000  0  8G19G18G29G14G22G31G28G27
 -11876157.20544  -9254145.27644  21756900.0314   21756902.5804
  -8252720.74144  -6430691.86244  20837042.7254   20837043.3644
  -1667739.65544  -1299539.66644  20493755.8504   20493756.1584
   9992996.37944   7786737.98344  22079871.4084   22079874.4864
   7490766.07344   5836955.89444  22612031.0634   22612031.7454
  -3371617.79044  -2627224.86644  24611454.6404
  -6326580.033 4  -4929794.429 4  24154231.340    24154226.682
  -3605488.85544  -2809473.57244  24903477.9214   24903487.3534
 95  2 28 18 12 30.0000000  0  8G19G18G29G14G22G31G28G27
 -11926758.92444  -9293575.16644  21747270.7624   21747273.1724
  -8303935.67844  -6470599.62944  20827296.8684   20827297.4514
  -1668085.81844  -1299809.44644  20493690.0524   20493690.1584
  10088687.23244   7861302.13044  22098081.2834   22098084.9514
   7575879.78744   5903278.21444  22628227.6704   22628228.6144
  -3457596.38044  -2694221.00744  24595092.4584
  -6387135.395 4  -4976980.354 4  24142707.737    24142703.686
  -3685530.48544  -2871843.64444  24888246.3054   24888254.9934
 95  2 28 18 13  0.0000000  0  8G19G18G29G14G22G31G28G27
 -11977233.08344  -9332905.66744  21737666.1214   21737668.7274
  -8354953.63644  -6510353.90744  20817588.3334   20817589.1344
  -1668199.80444  -1299898.31444  20493668.1714   20493668.4904
  10184578.39444   7936022.35544  22116328.2084   22116331.4944
   7661266.56244   5969813.30844  22644476.1284   22644477.7804
  -3543682.75244  -2761301.11944  24578710.9664   24578716.8254
  -6447511.023 4  -5024026.226 4  24131218.855    24131214.226
  -3765563.81844  -2934207.27544  24873017.0224   24873023.4024
 95  2 28 18 13 30.0000000  0  8G19G18G29G14G22G31G28G27
 -12027557.72744  -9372119.66144  21728089.6474   21728091.9564
  -8405756.55144  -6549940.62144  20807921.0364   20807921.6964
  -1668035.06144  -1299769.98844  20493699.7794   20493700.0854
  10280695.57544   8010918.70444  22134619.1124   22134622.3134
   7746954.03344   6036582.70944  22660782.1094   22660783.6884
  -3629848.89044  -2828443.41644  24562314.4464   24562321.1314
  -6507680.878 4  -5070911.763 4  24119768.645    24119764.289
  -3845567.02144  -2996547.40544  24857792.7054   24857799.8234
 95  2 28 18 14  0.0000000  0  8G19G18G29G14G22G31G28G27
 -12077655.18644  -9411156.62444  21718556.3464   21718558.9874
  -8456267.61244  -6589299.91444  20798309.1554   20798309.9464
  -1667514.09944  -1299364.09144  20493798.8364   20493799.0054
  10377114.87044   8086050.46744  22152967.2904   22152971.2264
   7833021.22144   6103647.99744  22677160.4134   22677160.8854
  -3716019.33944  -2895589.07444  24545916.3844   24545923.8704
  -6567572.434 4  -5117580.446 4  24108371.817    24108367.659
  -3925472.73444  -3058811.52144  24842586.9884   24842596.4204
 95  2 28 18 14 30.0000000  0  8G19G18G29G14G22G31G28G27
 -12127526.23044  -9450017.15744  21709066.1324   21709068.9004
  -8506489.06144  -6628433.53644  20788752.2164   20788753.0074
  -1666629.42844  -1298674.78344  20493967.3034   20493967.6814
  10473828.22744   8161411.36744  22171371.1574   22171375.1564
   7919449.68644   6170994.80644  22693607.3764   22693608.6064
  -3802205.20544  -2962746.76344  24529515.9274   24529524.3664
  -6627189.023 4  -5164034.857 4  24097026.646    24097022.414
  -4005279.43344  -3120998.54444  24827400.1904   24827410.3674
 95  2 28 18 15  0.0000000  0  8G19G18G29G14G22G31G28G27
 -12177189.09244  -9488715.47344  21699615.7064   21699618.1814
  -8556439.56944  -6667356.03444  20779246.8924   20779247.8774
  -1665382.71744  -1297703.36444  20494204.5214   20494204.8974
  10570830.28044   8236997.22344  22189830.1044   22189833.7504
   8006200.58044   6238592.84044  22710115.4274   22710116.5644
  -3888425.75344  -3029931.50844  24513108.7434   24513116.1154
  -6686553.531 4  -5210292.838 4  24085730.391    24085726.218
  -4085010.12444  -3183126.29244  24812227.2824   24812234.5864
 95  2 28 18 15 30.0000000  0  8G19G18G29G14G22G31G28G27
 -12226624.11744  -9527236.26044  21690208.7704   21690210.9944
  -8606108.45044  -6706059.08044  20769795.2334   20769796.0924
  -1663765.11244  -1296442.93944  20494512.3014   20494512.6094
  10668137.01744   8312820.49544  22208346.8054   22208351.0724
   8093284.69544   6306450.52144  22726687.0804   22726688.2194
  -3974655.16344  -3097123.17144  24496699.0604   24496706.3434
  -6745653.202 4  -5256344.452 4  24074483.718    24074480.094
  -4164645.47444  -3245179.80544  24797073.4694   24797079.3814
 95  2 28 18 16  0.0000000  0  8G19G18G29G14G22G31G28G27
 -12275828.28244  -9565577.15444  21680845.2354   21680848.1394
  -8655499.26244  -6744545.44944  20760396.5404   20760397.2804
  -1661795.56444  -1294908.27044  20494887.0444   20494887.4364
  10765747.53644   8388880.47544  22226921.8164   22226925.7974
   8180688.46344   6374557.30544  22743319.9054   22743320.5034
  -4060895.62044  -3164323.41544  24480288.0904   24480299.2594
  -6804482.281 4  -5302185.224 4  24063288.863    24063284.969
  -4244179.01244  -3307153.94944  24781939.5494   24781946.0834
 95  2 28 18 16 30.0000000  0  8G19G18G29G14G22G31G28G27
 -12324796.62744  -9603734.28244  21671526.7344   21671529.7254
  -8704629.98144  -6782829.14944  20751047.5334   20751048.1054
  -1659488.92544  -1293110.93744  20495326.1674   20495326.4704
  10863658.66044   8465174.70644  22245553.9324   22245558.1574
   8268391.07744   6442896.94844  22760008.8464   22760009.8874
  -4147154.53644  -3231538.10244  24463874.2224   24463882.6614
  -6863040.026 4  -5347814.573 4  24052145.508    24052141.960
  -4323607.06244  -3369045.90144  24766823.9964   24766834.4214
 95  2 28 18 17  0.0000000  0  8G19G18G29G14G22G31G28G27
 -12373534.64744  -9641711.94844  21662251.9624   21662255.0424
  -8753501.81144  -6820911.11544  20741747.4734   20741748.1254
  -1656856.65644  -1291059.86744  20495827.0954   20495827.4174
  10961863.08944   8541697.47144  22264241.7084   22264246.2024
   8356394.64644   6511471.09644  22776755.1784   22776756.5874
  -4233441.37544  -3298774.49344  24447453.7464   24447462.1854
  -6921326.105 4  -5393232.229 4  24041054.032    24041050.606
  -4402946.77744  -3430869.03044  24751726.1594   24751736.0884
 95  2 28 18 17 30.0000000  0  8G19G18G29G14G22G31G28G27
 -12422035.66644  -9679504.92544  21653022.6524   21653024.8904
  -8802111.18744  -6858788.57044  20732497.3544   20732497.9684
  -1653898.05344  -1288754.50844  20496390.0264   20496390.4174
  11060354.98744   8618444.24444  22282984.4144   22282988.6304
   8444713.23344   6580290.70744  22793561.8584   22793563.3364
  -4319758.69144  -3366034.64144  24431027.5624   24431035.4884
  -6979330.207 4  -5438430.163 4  24030016.223    24030012.126
  -4482201.76044  -3492626.14544  24736644.8054   24736653.4934
 95  2 28 18 18  0.0000000  0  8G19G18G29G14G22G31G28G27
 -12470283.04144  -9717100.25744  21643841.6594   21643843.8374
  -8850441.29944  -6896448.42144  20723300.2654   20723300.8434
  -1650595.79844  -1286181.36844  20497018.4114   20497018.8794
  11159140.50244   8695419.80344  22301782.6444   22301787.0544
   8533348.96844   6649357.44144  22810428.7384   22810429.5004
  -4406111.78044  -3433322.71544  24414595.4034   24414603.8434
  -7037043.577 4  -5483401.568 4  24019033.589    24019029.748
  -4561369.73244  -3554315.43144  24721579.2984   24721587.4894
 95  2 28 18 18 30.0000000  0  8G19G18G29G14G22G31G28G27
 -12518300.06744  -9754516.11244  21634704.2224   21634705.9614
  -8898493.69744  -6933891.88144  20714156.3284   20714157.1974
  -1646950.92544  -1283341.25444  20497712.1244   20497712.5364
  11258195.99544   8772605.73444  22320632.3574   22320636.4754
   8622302.14144   6718671.54344  22827355.8304   22827357.3934
  -4492501.19244  -3500639.05144  24398156.2834   24398165.2194
  -7094479.656 4  -5528156.903 4  24008103.973    24008099.800
  -4640479.59744  -3615959.43544  24706524.3974   24706535.0714
 95  2 28 18 19  0.0000000  0  8G19G18G29G14G22G31G28G27
 -12566084.87444  -9791751.08644  21625611.1134   21625613.4774
  -8946227.82344  -6971087.30844  20705073.0514   20705073.7164
  -1642930.64344  -1280208.61444  20498477.1724   20498477.6564
  11357545.61944   8850020.84944  22339538.1674   22339543.1024
   8711599.97044   6788254.20244  22844348.2664   22844349.9314
  -4578895.67244  -3567959.37044  24381715.6724   24381725.3524
  -7151610.381 4  -5572674.308 4  23997232.326    23997227.919
  -4719504.31444  -3677537.08844  24691486.9394   24691493.5324
 95  2 28 18 19 30.0000000  0  8G19G18G29G14G22G31G28G27
 -12613657.47244  -9828820.61744  21616558.0694   21616560.8104
  -8993652.70144  -7008041.77744  20696048.4274   20696049.0074
  -1638538.46044  -1276786.18044  20499313.0324   20499313.4654
  11457179.54144   8927657.49144  22358498.2834   22358502.5834
   8801217.72644   6858086.15344  22861402.4554   22861403.9884
  -4665298.99844  -3635286.56444  24365273.3254   24365283.0054
  -7208447.441 4  -5616962.885 4  23986416.311    23986412.468
  -4798433.61844  -3739040.41344  24676467.2674   24676474.9284
 95  2 28 18 20  0.0000000  0  8G19G18G29G14G22G31G28G27
 -12661064.12144  -9865760.84344  21607536.9794   21607539.4894
  -9040790.09944  -7044772.23644  20687078.2674   20687079.2644
  -1633815.41844  -1273105.93744  20500211.9704   20500212.3784
  11557048.84544   9005477.55344  22377502.6834   22377506.8584
   8891109.58144   6928131.68544  22878508.1354   22878509.6614
  -4751737.67444                  24348824.6354
  -7265024.110 4  -5661048.573 4  23975650.369    23975646.379
  -4877290.42044  -3800487.25144  24661461.1454   24661472.0674
 95  2 28 18 20 30.0000000  0  8G19G18G29G14G22G31G28G27
 -12708299.65744  -9902567.73544  21598548.5004   21598550.5744
  -9087626.86644  -7081268.43544  20678165.4834   20678166.4034
  -1628746.01544  -1269155.80144  20501176.5614   20501176.9734
  11657164.11344   9083489.27544  22396554.2334   22396558.4104
   8981295.98444   6998406.73544  22895670.1434   22895671.5294
  -4838182.13244  -3770000.59244  24332374.5654   24332382.7564
  -7321313.220 4  -5704910.199 4  23964938.642    23964935.198
  -4956054.72644  -3861861.96744  24646473.1044   24646480.1594
 95  2 28 18 21  0.0000000  0  8G19G18G29G14G22G31G28G27
 -12755329.66144  -9939214.47244  21589598.7854   21589601.3234
  -9134141.39344  -7117513.53844  20669314.0254   20669314.9904
  -1623301.61844  -1264913.46444  20502212.6194   20502213.0604
  11757545.91044   9161708.66944  22415656.2824   22415660.2104
   9071786.42544   7068918.71344  22912889.6284   22912891.3474
  -4924614.17844  -3837350.22444  24315927.4804   24315933.6904
  -7377288.907 4  -5748527.616 4  23954286.564    23954283.054
  -5034699.75044  -3923143.76244  24631507.3234   24631515.5144
 95  2 28 18 21 30.0000000  0  8G19G18G29G14G22G31G28G27
 -12802134.09944  -9975685.44844  21580692.4514   21580694.8134
  -9180354.48344  -7153523.76144  20660519.9764   20660520.9864
  -1617476.49944  -1260374.45744  20503321.3474   20503321.5704
  11858177.42344   9240122.65144  22434806.1244   22434810.5134
   9162578.02444   7139665.34844  22930166.7934   22930167.8584
  -5011030.53444  -3904687.60344  24299482.7674   24299490.0734
  -7432955.777 4  -5791904.397 4  23943693.606    23943690.101
  -5113246.67844  -3984349.06244  24616560.9234   24616569.3624
 95  2 28 18 22  0.0000000  0  8G19G18G29G14G22G31G28G27
 -12848716.05744 -10011983.06344  21571828.2504   21571830.4884
  -9226282.25544  -7189311.65944  20651780.3324   20651781.3674
  -1611287.91244  -1255552.23244  20504498.9504   20504499.3924
  11959050.42644   9318724.79744  22454001.8134   22454006.3054
   9253670.41344   7210646.36444  22947501.3964   22947501.7134
  -5097437.53744  -3972017.70644  24283040.3114   24283049.2464
  -7488317.694 4  -5835043.536 4  23933158.761    23933155.171
  -5191718.50344  -4045495.87144  24601627.4534   24601634.4494
 95  2 28 18 22 30.0000000  0  8G19G18G29G14G22G31G28G27
 -12895064.43044 -10048098.65844  21563008.3874   21563010.3684
  -9271937.31144  -7224887.05044  20643092.4774   20643093.7054
  -1604725.75544  -1250438.91344  20505747.6604   20505748.2974
  12060164.47744   9397514.78744  22473243.0724   22473247.7834
   9345059.43944   7281858.53144  22964892.2824   22964893.4774
  -5183834.00244  -4039339.62844  24266600.1384   24266606.5214
  -7543375.632 4  -5877945.806 4  23922681.120    23922677.582
  -5270129.87644  -4106595.55644  24586706.5154   24586712.7714
 95  2 28 18 23  0.0000000  0  8G19G18G29G14G22G31G28G27
 -12941148.14044 -10084008.02644  21554238.7674   21554240.9084
  -9317295.41844  -7260231.05244  20634461.0584   20634461.9614
  -1597771.90544  -1245020.38044  20507070.9974   20507071.5414
  12161540.58844   9476508.96644  22492534.3604   22492539.5624
   9436763.75644   7353316.37844  22982342.6134   22982344.3434
  -5270199.39244  -4106637.25744  24250164.9824   24250173.1734
  -7598114.527 4  -5920599.473 4  23912264.828    23912261.281
  -5348458.20744  -4167630.56444  24571800.6644   24571810.3454
 95  2 28 18 23 30.0000000  0  8G19G18G29G14G22G31G28G27
 -12986963.11544 -10119707.98944  21545520.6344   21545522.6554
  -9362346.41944  -7295335.75444  20625888.0984   20625888.9814
  -1590436.67044  -1239304.66444  20508466.8294   20508467.2024
  12263186.75644   9555713.56544  22511877.2644   22511882.1994
   9528784.96944   7425021.14744  22999853.8544   22999854.9644
  -5356522.78344  -4173902.23244  24233738.5974   24233746.7884
  -7652521.174 4  -5962994.264 4  23901911.747    23901907.971
  -5426680.27744  -4228582.73244  24556916.0104   24556926.1874
 95  2 28 18 24  0.0000000  0  8G19G18G29G14G22G31G28G27
 -13032499.60644 -10155190.95244  21536855.1854   21536857.3714
  -9407040.75344  -7330162.53144  20617383.1984   20617384.2904
  -1582708.98244  -1233283.13244  20509937.4694   20509937.7444
  12365121.02644   9635142.67544  22531274.9434   22531280.3594
   9621145.77644   7496990.56744  23017429.7934   23017431.4974
  -5442783.01144  -4241117.94144  24217323.5814   24217332.2684
  -7706567.244 4  -6005108.077 4  23891626.918    23891623.093
  -5504758.06744  -4289422.49044  24542057.6234   24542064.7954
 95  2 28 18 24 30.0000000  0  8G19G18G29G14G22G31G28G27
 -13077808.26044 -10190496.38744  21528233.4874   21528235.4534
  -9451417.30144  -7364741.68244  20608938.8084   20608939.5754
  -1574634.68644  -1226991.51744  20511474.0844   20511474.4854
  12467282.49844   9714748.81444  22550715.5594   22550721.2664
   9713780.32944   7569173.26844  23035057.3754   23035058.8344
  -5529025.91344  -4308320.17544  24200911.3054   24200920.4894
  -7760306.836 4  -6046983.079 4  23881400.783    23881396.875
  -5582740.67544  -4350188.05044  24527218.4824   24527226.6734
 95  2 28 18 25  0.0000000  0  8G19G18G29G14G22G31G28G27
 -13122942.63144 -10225666.01144  21519644.5964   21519646.6814
  -9495517.48844  -7399105.48944  20600546.7954   20600547.6654
  -1566268.41144  -1220472.38544  20513066.1804   20513066.6774
  12569632.25244   9794501.66444  22570192.3694   22570197.1544
   9806639.62544   7641531.10944  23052727.9684   23052729.8384
  -5615292.43944                  24184495.9264
  -7813782.290 4  -6088652.260 4  23871224.541    23871220.803
  -5660670.11444  -4410912.22744  24512389.1614   24512398.3454
 95  2 28 18 25 30.0000000  0  8G19G18G29G14G22G31G28G27
 -13167907.95144 -10260703.90344  21511087.9524   21511089.7304
  -9539323.53144  -7433240.08744  20592210.7314   20592211.6764
  -1557591.59644  -1213711.27144  20514717.2474   20514717.8684
  12672177.56144   9874406.89344  22589706.2674   22589711.9664
   9899725.06344   7714065.16244  23070441.7204   23070444.5344
  -5701560.84144  -4442762.88144  24168080.0974   24168085.1754
  -7866975.736 4  -6130101.689 4  23861102.238    23861098.426
  -5738540.49244  -4471590.36344  24497570.5404   24497580.2204
 95  2 28 18 26  0.0000000  0  8G19G18G29G14G22G31G28G27
 -13212649.39844 -10295567.34844  21502573.6334   21502576.4644
  -9582777.04644  -7467099.98644  20583942.0184   20583942.6914
  -1548516.67444  -1206639.94144  20516444.3444   20516444.8114
  12774989.13944   9954519.61544  22609271.0224   22609276.6344
   9993105.37144   7786828.97744  23088210.9894   23088212.5294
  -5787750.98444  -4509923.96244  24151678.0734   24151687.2574
  -7919818.818 4  -6171278.131 4  23851046.568    23851042.819
  -5816306.00344  -4532186.75744  24482772.3014   24482778.9464
 95  2 28 18 26 30.0000000  0  8G19G18G29G14G22G31G28G27
 -13257208.72144 -10330288.87944  21494094.1824   21494096.9194
  -9625937.64644  -7500731.64444  20575728.7904   20575729.5434
  -1539083.17844  -1199289.20944  20518239.4494   20518239.9084
  12878031.82144  10034812.41344  22628879.1034   22628884.1894
  10086738.99544   7859790.20144  23106029.1984   23106030.9584
  -5873890.72244  -4577045.75344  24135286.2394   24135297.4094
  -7972346.439 4  -6212208.731 4  23841051.119    23841047.040
  -5894015.41644  -4592739.50044  24467984.2604   24467989.9374
 95  2 28 18 27  0.0000000  0  8G19G18G29G14G22G31G28G27
 -13301584.56344 -10364867.43544  21485650.0594   21485652.1774
  -9668801.08244  -7534131.74744  20567572.2104   20567572.7914
  -1529289.39944  -1191657.73744  20520103.0384   20520103.4664
  12981308.33144  10115287.40444  22648531.9884   22648538.5284
  10180643.81844   7932962.73844  23123898.9184   23123900.6844
  -5959973.16744  -4644122.85244  24118904.6644   24118912.1634
  -8024540.731 4  -6252879.594 4  23831118.905    23831114.872
  -5971656.51144  -4653238.97844  24453209.7114   24453219.3914
 95  2 28 18 27 30.0000000  0  8G19G18G29G14G22G31G28G27
 -13345753.40144 -10399284.69144  21477244.9724   21477247.1414
  -9711351.21544  -7567287.71244  20559475.2804   20559476.3084
  -1519117.64544  -1183731.74144  20522038.6174   20522039.0944
  13084811.03344  10195938.65544  22668227.8374   22668233.1514
  10274834.54344   8006358.06244  23141823.0414   23141824.5204
  -6045990.02944  -4711148.89244  24102536.4994   24102546.6764
  -8076382.676 4  -6293275.899 4  23821253.720    23821249.746
  -6049215.06844  -4713674.15544  24438450.2644   24438457.6604
 95  2 28 18 28  0.0000000  0  8G19G18G29G14G22G31G28G27
 -13389723.01944 -10433546.71744  21468877.7824   21468879.9424
  -9753612.88544  -7600218.90144  20551432.7214   20551433.7634
  -1508601.25044  -1175537.19344  20524039.7684   20524040.3704
  13188511.48344  10276743.98844  22687961.6284   22687967.7784
  10369298.15544   8079966.02144  23159798.9264   23159801.0984
  -6131974.16044  -4778149.36844  24086174.1364   24086180.3314
  -8127895.009 4  -6333415.354 4  23811451.193    23811447.057
  -6126717.83644  -4774065.85044  24423703.0004   24423709.3164
 95  2 28 18 28 30.0000000  0  8G19G18G29G14G22G31G28G27
 -13433426.26944 -10467601.17944  21460561.1714   21460563.6754
  -9795528.96244  -7632880.79944  20543456.2934   20543457.7644
  -1497700.49044  -1167043.13844  20526114.2194   20526114.8184
  13292448.70944  10357733.82444  22707740.5044   22707746.7194
  10464065.49544   8153810.65744  23177832.4214   23177834.3724
  -6217886.31044  -4845093.77444  24069825.4234   24069832.3184
  -8179032.848 4  -6373262.997 4  23801720.191    23801716.130
  -6204110.11744  -4834371.45344  24408974.7704   24408982.9614
 95  2 28 18 29  0.0000000  0  8G19G18G29G14G22G31G28G27
 -13476877.57644 -10501459.31844  21452292.7584   21452295.2884
  -9837119.07044  -7665288.69144  20535542.1374   20535543.3074
  -1486431.06644  -1158261.80744  20528258.7574   20528259.4804
  13396588.76044  10438881.70544  22727557.7574   22727564.3104
  10559093.85744   8227858.68544  23195915.6074   23195919.1684
  -6303755.13944  -4912004.40044  24053484.5854   24053491.2684
  -8229824.145 4  -6412840.605 4  23792054.699    23792050.602
  -6281415.15044  -4894609.05344  24394264.7554   24394272.3244
 95  2 28 18 29 30.0000000  0  8G19G18G29G14G22G31G28G27
 -13520088.98344 -10535130.52344  21444069.8914   21444072.4434
  -9878398.89844  -7697454.81544  20527687.0074   20527687.7594
  -1474803.44144  -1149201.36044  20530471.5944   20530472.2114
  13500913.16444  10520173.22344  22747410.3604   22747415.1524
  10654347.61244   8302082.34844  23214042.0454   23214043.9734
  -6389597.95144  -4978894.70644  24037149.6524   24037156.9964
  -8280291.158 4  -6452165.532 4  23782451.190    23782447.088
  -6358656.63044  -4954797.13344  24379565.8254   24379573.1244
 95  2 28 18 30  0.0000000  0  8G19G18G29G14G22G31G28G27
 -13563033.53944 -10568593.79244  21435897.7244   21435899.9884
  -9919330.39944  -7729349.50944  20519897.9294   20519898.9054
  -1462778.42444  -1139831.24944  20532759.6544   20532760.5204
  13605464.74744  10601641.77444  22767306.5254   22767311.8264
  10749846.80444   8376497.26644  23232214.8364   23232217.2264
  -6475364.55044  -5045725.65544  24020828.3624   24020836.8014
  -8330396.369 4  -6491208.537 4  23772916.815    23772912.271
  -6435786.50744  -5014898.25344  24364887.8254   24364894.9954
 95  2 28 18 30 30.0000000  0  8G19G18G29G14G22G31G28G27
 -13605770.35944 -10601895.18944  21427765.2464   21427767.9354
  -9959966.39944  -7761013.94344  20512165.2054   20512166.3094
  -1450395.05144  -1130181.90144  20535116.1274   20535116.7034
  13710189.25744  10683245.07044  22787234.8714   22787240.4084
  10845524.89744   8451051.55344  23250421.8714   23250423.4714
  -6561102.45644  -5112534.20544  24004513.0894   24004519.7464
  -8380188.375 4  -6530007.479 4  23763441.682    23763436.931
  -6512835.88644  -5074936.61744  24350225.7444   24350232.1104
 95  2 28 18 31  0.0000000  0  8G19G18G29G14G22G31G28G27
 -13648262.98744 -10635006.30544  21419679.2574   21419681.4964
 -10000246.79044  -7792401.27844  20504500.1074   20504501.3104
  -1437600.76944  -1120212.36344  20537551.0214   20537551.6884
  13815130.77644  10765017.45744  22807204.6084   22807209.4994
  10941450.88944   8525799.04744  23268676.0454   23268679.1464
  -6646770.77444  -5179288.55444  23988210.6064   23988218.7974
  -8429608.281 4  -6568516.463 4  23754037.340    23754033.055
  -6589744.66844  -5134865.41944  24335590.2684   24335601.6864
 95  2 28 18 31 30.0000000  0  8G19G18G29G14G22G31G28G27
 -13690569.94044 -10667972.73944  21411628.6184   21411630.7024
 -10040212.37344  -7823543.31144  20496894.9264   20496895.9964
  -1424442.34744  -1109959.07744  20540055.0194   20540055.6434
  13920245.72744  10846924.99044  22827207.4064   22827212.8354
  11037595.99544   8600717.27044  23286971.6774   23286974.4384
  -6732413.18844  -5246022.70244  23971912.8294   23971921.5174
  -8478689.721 4  -6606761.685 4  23744697.432    23744692.493
  -6666549.85544  -5194713.51444  24320974.9394   24320982.2434
 95  2 28 18 32  0.0000000  0  8G19G18G29G14G22G31G28G27
 -13732651.77744 -10700763.76444  21403620.5964   21403622.9564
 -10079816.89344  -7854403.99544  20489358.6234   20489359.7034
  -1410866.68144  -1099380.66944  20542638.4634   20542639.1884
  14025585.30544  10929007.54644  22847253.3774   22847258.7404
  11134028.04144   8675859.07744  23305321.7764   23305324.1734
  -6817961.01344  -5312683.15344  23955633.4774   23955640.1584
  -8527374.696 4  -6644697.952 4  23735432.958    23735428.147
  -6743200.64444  -5254441.29544  24306389.6684   24306399.5964
 95  2 28 18 32 30.0000000  0  8G19G18G29G14G22G31G28G27
 -13774535.21544 -10733400.18244  21395650.7074   21395652.5464
 -10119072.93144  -7884993.13644  20481888.4214   20481889.5274
  -1396901.08444  -1088498.41644  20545295.8934   20545296.6994
  14131120.90244  11011242.84944  22867336.1864   22867342.0534
  11230736.65344   8751216.39244  23323724.5294   23323727.4714
  -6903446.88444  -5379295.32144  23939367.0424   23939375.7294
  -8575686.881 4  -6682343.709 4  23726239.222    23726234.562
  -6819736.65344  -5314079.63244  24291824.7534   24291831.9214
 95  2 28 18 33  0.0000000  0  8G19G18G29G14G22G31G28G27
 -13816272.48544 -10765922.70744  21387708.1124   21387709.8234
 -10158029.83944  -7915349.19044  20474474.9164   20474476.2894
  -1382603.88444  -1077357.77244  20548016.6664   20548017.3164
  14236793.04344  11093584.54144  22887445.1514   22887452.4944
  11327672.91744   8826751.08944  23342170.8704   23342174.0284
  -6988900.91844  -5445882.68544  23923105.4074   23923115.8324
  -8623671.124 4  -6719733.938 4  23717107.930    23717103.354
  -6896229.60744  -5373684.44144  24277268.2624   24277275.2534
 95  2 28 18 33 30.0000000  0  8G19G18G29G14G22G31G28G27
 -13857838.76044 -10798311.99444  21379798.1944   21379800.3334
 -10196674.78644  -7945462.15144  20467121.0984   20467122.5924
  -1367949.18244  -1065938.55544  20550805.3094   20550805.9174
  14342630.13444  11176054.78144  22907585.5864   22907591.2614
  11424841.30744   8902466.67244  23360661.9744   23360665.0464
  -7074269.66544  -5512403.59344  23906859.6234   23906868.5584
  -8671309.302 4  -6756854.492 4  23708042.972    23708038.277
  -6972675.59444  -5433252.63944  24262721.3644   24262730.0524
 95  2 28 18 34  0.0000000  0  8G19G18G29G14G22G31G28G27
 -13899200.46144 -10830541.86944  21371927.0594   21371929.2604
 -10234973.46144  -7975305.29344  20459833.4014   20459834.4644
  -1352911.94644  -1054221.25844  20553666.7954   20553667.5484
  14448654.57044  11258670.99644  22927761.3024   22927767.2604
  11522251.58244   8978370.74244  23379199.1634   23379200.2044
  -7159521.78544  -5578833.58444  23890636.2604   23890643.7174
  -8718583.263 4  -6793691.230 4  23699046.681    23699042.251
  -7049058.98944  -5492772.03944  24248185.4584   24248194.8914
 95  2 28 18 34 30.0000000  0  8G19G18G29G14G22G31G28G27
 -13940307.25644 -10862573.11244  21364104.6094   21364107.4474
 -10272877.04044  -8004840.57144  20452620.3664   20452621.3824
  -1337453.30444  -1042175.59844  20556608.5174   20556609.3494
  14554901.89844  11341460.88544  22947979.6914   22947986.0604
  11619923.15844   9054478.43644  23397785.3134   23397788.1984
  -7244622.87344  -5645145.93544  23874441.9464   23874448.0444
  -8765452.763 4  -6830212.817 4  23690127.274    23690123.308
  -7125339.14144  -5552211.01044  24233669.4834   24233678.9154
 95  2 28 18 35  0.0000000  0  8G19G18G29G14G22G31G28G27
 -13981150.46244 -10894398.95944  21356332.5344   21356334.9674
 -10310408.52844  -8034085.90544  20445478.4684   20445479.6564
  -1321571.57944  -1029800.26244  20559630.7164   20559631.3694
  14661378.78944  11424429.65544  22968241.7154   22968248.6874
  11717845.17244   9130781.26844  23416418.7034   23416422.1064
  -7329552.59344  -5711324.75044  23858280.0824   23858288.2734
  -8811912.660 4  -6866415.228 4  23681286.367    23681282.194
  -7201510.56544  -5611565.23744  24219175.1134   24219185.0414
 95  2 28 18 35 30.0000000  0  8G19G18G29G14G22G31G28G27
 -14021822.08944 -10926091.10544  21348592.9814   21348595.5534
 -10347652.93944  -8063107.54144  20438390.8344   20438392.2394
  -1305350.59244  -1017160.56444  20562717.5994   20562718.3224
  14768003.23744  11507513.41144  22988531.6304   22988538.1834
  11815927.05044   9207208.66744  23435082.9164   23435085.5614
  -7414414.80644  -5777450.93544  23842131.4974   23842139.0854
  -8858053.739 4  -6902369.195 4  23672505.787    23672501.468
  -7277648.82944  -5670893.66444  24204686.5064   24204693.0904
 95  2 28 18 36  0.0000000  0  8G19G18G29G14G22G31G28G27
 -14062274.18844 -10957612.18744  21340894.9004   21340897.6084
 -10384549.02344  -8091857.74944  20431369.7984   20431371.1454
  -1288744.40444  -1004220.70644  20565877.8624   20565878.4904
  14874811.15444  11590740.12044  23008857.1344   23008863.7814
  11914221.99344   9283802.07244  23453788.2094   23453791.2384
  -7499176.63744  -5843498.90644  23826001.8574   23826011.0414
  -8903818.813 4  -6938030.183 4  23663796.263    23663792.445
  -7353682.71244  -5730140.72544  24190218.0594   24190225.2404
 95  2 28 18 36 30.0000000  0  8G19G18G29G14G22G31G28G27
 -14102500.36944 -10988957.23044  21333240.4314   21333242.8954
 -10421096.85544  -8120336.59444  20424415.1224   20424416.5614
  -1271755.79644   -990982.85944  20569110.6774   20569111.4974
  14981806.94644  11674113.22244  23029217.8764   23029224.5174
  12012734.45344   9360565.00844  23472534.9364   23472537.4824
  -7583838.83844  -5909469.25744  23809890.4404   23809899.1284
  -8949195.335 4  -6973388.396 4  23655161.508    23655157.548
  -7429595.64544  -5789293.52944  24175772.1474   24175778.1574
 95  2 28 18 37  0.0000000  0  8G19G18G29G14G22G31G28G27
 -14142492.48944 -11020119.88744  21325630.1704   21325632.7234
 -10457273.14744  -8148525.92944  20417531.1144   20417532.6584
  -1254369.80644   -977435.36544  20572419.0854   20572419.8634
  15088989.30144  11757631.71144  23049613.7904   23049620.7534
  12111471.27944   9437502.75944  23491324.1774   23491325.3994
  -7668399.41344  -5975360.41944  23793799.3244   23793807.7634
  -8994168.921 4  -7008432.641 4  23646603.216    23646599.375
  -7505381.06444  -5848346.94444  24161350.5324   24161357.7974
 95  2 28 18 37 30.0000000  0  8G19G18G29G14G22G31G28G27
 -14182308.30944 -11051145.17344  21318053.5614   21318055.6494
 -10493097.47544  -8176441.00244  20410713.8464   20410715.1134
  -1236638.82044   -963619.04844  20575793.3084   20575793.9904
  15196293.46444  11841245.10744  23070033.6434   23070040.0074
  12210380.80344   9514575.09044  23510146.0824   23510149.2244
  -7752911.85144  -6041214.06744  23777716.8594   23777724.1444
  -9038786.572 4  -7043199.529 4  23638112.540    23638109.377
  -7581089.09444  -5907340.07744  24146943.3684   24146948.7584
 95  2 28 18 38  0.0000000  0  8G19G18G29G14G22G31G28G27
 -14221949.23144 -11082034.17344  21310510.2404   21310512.0774
 -10528581.35244  -8204090.78844  20403961.4534   20403962.7394
  -1218581.00144   -949548.05444  20579229.5134   20579230.1214
  15303696.25744  11924935.34444  23090471.8134   23090477.9644
  12309449.39444   9591771.37144  23528998.3184   23529000.3704
  -7837376.60444  -6107030.55844  23761643.6024   23761649.6804
  -9083054.110 4  -7077693.602 4  23629688.566    23629685.429
  -7656753.04744  -5966298.85244  24132544.8154   24132550.9884
 95  2 28 18 38 30.0000000  0  8G19G18G29G14G22G31G28G27
 -14261386.40344 -11112764.40844  21303005.5094   21303007.4084
 -10563717.63544  -8231469.71944  20397275.4054   20397276.7414
  -1200161.28444   -935195.06344  20582734.5984   20582735.3064
  15411224.98644  12008723.72844  23110934.1784   23110941.3014
  12408713.75844   9669120.19444  23547887.6304   23547889.0214
  -7921751.83544  -6172777.30144  23745587.7434   23745594.1574
  -9126939.256 4  -7111889.700 4  23621337.628    23621334.082
  -7732368.08444  -6025219.47444  24118155.7744   24118164.4624
 95  2 28 18 39  0.0000000  0  8G19G18G29G14G22G31G28G27
 -14300616.25044 -11143333.08044  21295540.3514   21295542.5304
 -10598503.05344  -8258575.25244  20390656.2474   20390657.1854
  -1181356.07144   -920541.67944  20586313.2914   20586313.8274
  15518870.36444  12092602.99944  23131418.7414   23131425.8524
  12508190.85344   9746634.78044  23566817.3364   23566819.9324
  -8006006.75544  -6238430.27744  23729554.2694   23729560.6514
  -9170430.254 4  -7145778.685 4  23613061.639    23613058.048
  -7807934.06144  -6084101.93344  24103776.0544   24103782.0444
 95  2 28 18 39 30.0000000  0  8G19G18G29G14G22G31G28G27
 -14339631.60144 -11173734.61644  21288115.6794   21288118.0514
 -10632949.89744  -8285416.96044  20384101.0964   20384102.0414
  -1162162.72944   -905585.85944  20589965.6264   20589966.4004
  15626645.60544  12176583.46244  23151927.8544   23151934.6744
  12607899.52644   9824329.81744  23585791.2174   23585794.4964
  -8090124.75644  -6303976.57244  23713547.0484   23713552.6924
  -9213520.317 4  -7179355.247 4  23604861.664    23604858.327
  -7883442.40644  -6142939.46144  24089407.2814   24089413.3704
 95  2 28 18 40  0.0000000  0  8G19G18G29G14G22G31G28G27
 -14378418.52344 -11203958.15744  21280734.5654   21280737.0764
 -10667070.75344  -8312004.65144  20377608.2074   20377609.0624
  -1142556.06244   -890307.97144  20593696.5434   20593697.5014
  15734571.53444  12260681.33644  23172465.6664   23172472.6224
  12707849.11944   9902212.59044  23604810.5854   23604812.8624
  -8174108.82744  -6369418.51644  23697565.4144   23697572.6604
  -9256199.322 4  -7212611.505 4  23596740.090    23596736.364
  -7958881.62044  -6201723.13944  24075051.6254   24075059.1424
 95  2 28 18 40 30.0000000  0  8G19G18G29G14G22G31G28G27
 -14416978.82744 -11234005.11644  21273396.6884   21273399.2884
 -10700855.68444  -8338330.58244  20371178.9334   20371180.1574
  -1122530.84844   -874703.94244  20597507.4014   20597508.1104
  15842662.27944  12344907.66344  23193034.5844   23193041.2194
  12808024.05844   9980270.95544  23623873.6324   23623876.9934
  -8257960.39244  -6434757.22744  23681608.3814   23681617.3174
  -9298467.483 4  -7245547.649 4  23588696.539    23588693.291
  -8034226.60744  -6260433.34744  24060713.7414   24060719.8374
 95  2 28 18 41  0.0000000  0  8G19G18G29G14G22G31G28G27
 -14455305.94744 -11263870.37644  21266103.4684   21266106.0194
 -10734272.69144  -8364369.82044  20364819.8874   20364821.1534
  -1102100.20744   -858783.99744  20601395.2804   20601396.2054
  15950924.41744  12429267.53544  23213636.3084   23213643.3924
  12908397.71944  10058484.17444  23642974.3934   23642977.5274
  -8341689.63944  -6500000.61744  23665675.9484   23665682.8914
  -9340326.351 4  -7278164.862 4  23580731.009    23580727.599
  -8109463.26444  -6319059.14844  24046395.9784   24046402.4254
 95  2 28 18 41 30.0000000  0  8G19G18G29G14G22G31G28G27
 -14493389.06144 -11293545.49644  21258856.4374   21258858.7664
 -10767302.92944  -8390107.67944  20358534.6304   20358535.6214
  -1081258.43144   -842543.68544  20605361.3654   20605362.2854
  16059383.36744  12513780.76444  23234275.5744   23234281.5004
  13008964.06744  10136847.53744  23662112.0344   23662114.7944
  -8425299.82244  -6565151.22544  23649764.8594   23649771.5744
  -9381761.397 4  -7310451.825 4  23572846.150    23572842.385
  -8184568.80144  -6377582.80444  24032103.9324   24032112.1234
 95  2 28 18 42  0.0000000  0  8G19G18G29G14G22G31G28G27
 -14531246.58444 -11323044.84044  21251652.9384   21251654.7344
 -10799951.67544  -8415548.27444  20352321.6654   20352322.6024
  -1060023.80544   -825997.25944  20609402.2104   20609402.9874
  16168021.02644  12598433.23244  23254948.7464   23254957.1854
  13109697.62144  10215341.16844  23681280.8274   23681282.0724
  -8508795.23844  -6630212.41144  23633876.1324   23633883.3634
  -9422781.337 4  -7342415.329 4  23565040.218    23565036.743
  -8259562.71544  -6436019.45944  24017833.1414   24017838.3014
 95  2 28 18 42 30.0000000  0  8G19G18G29G14G22G31G28G27
 -14568909.35844 -11352392.42944  21244485.6774   21244487.5664
 -10832215.52644  -8440688.94944  20346182.2714   20346183.1274
  -1038434.65744   -809174.57844  20613510.5094   20613511.2664
  16276800.52844  12683196.24344  23275648.8544   23275656.0784
  13210574.77444  10293946.71644  23700476.8114   23700478.5724
  -8592174.67744  -6695183.24944  23618009.0574   23618014.8994
  -9463403.741 4  -7374069.072 4  23557309.857    23557307.008
  -8334468.39444  -6494387.36844  24003578.9164   24003584.2234
 95  2 28 18 43  0.0000000  0  8G19G18G29G14G22G31G28G27
 -14606399.77444 -11381605.71344  21237351.6524   21237353.4124
 -10864100.93444  -8465534.73344  20340114.6134   20340115.4814
  -1016485.67544   -792071.51444  20617687.4484   20617688.1844
  16385697.91344  12768051.08544  23296372.2264   23296380.1544
  13311601.25944  10372668.61644  23719701.1084   23719705.0384
  -8675424.38144  -6760053.00244  23602166.9294   23602173.8584
  -9503629.116 4  -7405413.458 4  23549654.939    23549651.922
  -8409298.00744  -6552695.99444  23989339.4844   23989344.2094
 95  2 28 18 43 30.0000000  0  8G19G18G29G14G22G31G28G27
 -14643731.51144 -11410695.35444  21230247.5064   21230249.3234
 -10895611.88644  -8490088.73144  20334118.1664   20334119.3424
   -994147.56544   -774665.23444  20621938.2124   20621938.8384
  16494713.10444  12852997.72444  23317117.0114   23317124.1014
  13412802.49044  10451526.68744  23738958.7764   23738962.5434
  -8758511.37044  -6824795.97744  23586356.4934   23586361.9414
  -9543445.042 4  -7436438.796 4  23542078.084    23542075.154
  -8484049.91144  -6610944.06144  23975114.3884   23975121.7434
 95  2 28 18 44  0.0000000  0  8G19G18G29G14G22G31G28G27
 -14680856.12144 -11439623.59544  21223182.9314   21223184.9374
 -10926689.61044  -8514305.14944  20328204.3634   20328205.5484
   -971368.48644   -756915.34344  20626273.1014   20626273.7484
  16603884.43944  12938066.04644  23337891.8624   23337899.7734
  13514226.58044  10530558.43144  23758259.5934   23758262.4854
  -8841366.52144  -6889358.30344  23570589.5414   23570596.1064
  -9582806.683 4  -7467110.139 4  23534588.017    23534584.774
  -8558682.93044  -6669099.51544  23960912.0694   23960916.2294
 95  2 28 18 44 30.0000000  0  8G19G18G29G14G22G31G28G27
 -14717829.53444 -11468434.02144  21216146.8404   21216148.9204
 -10957406.09944  -8538240.08944  20322359.2674   20322360.3194
   -948200.99644   -738862.79144  20630681.5374   20630682.5044
  16713137.95544  13023198.40144  23358682.2564   23358687.9784
  13615797.05344  10609704.22544  23777587.7194   23777589.6604
  -8924062.45244  -6953796.56644  23554852.9744   23554858.8384
  -9621781.060 4  -7497479.723 4  23527171.343    23527168.421
  -8633247.84044  -6727201.86544  23946722.3594   23946727.2424
 95  2 28 18 45  0.0000000  0  8G19G18G29G14G22G31G28G27
 -14754607.99544 -11497092.54044  21209148.1924   21209150.0024
 -10987762.33044  -8561894.30844  20316582.6574   20316583.6914
   -924614.05544   -720483.39244  20635170.1334   20635170.9424
  16822493.40044  13108410.18844  23379491.8454   23379499.6124
  13717529.71644  10688976.41344  23796946.9004   23796949.4464
  -9006579.74644  -7018095.62844  23539150.1674   23539156.9304
  -9660342.787 4  -7527527.777 4  23519833.120    23519830.410
  -8707728.93244  -6785238.93744  23932548.4374   23932554.9744
 95  2 28 18 45 30.0000000  0  8G19G18G29G14G22G31G28G27
 -14791142.49344 -11525560.95744  21202195.8934   21202197.8574
 -11017751.62644  -8585262.60344  20310875.8904   20310876.8674
   -900616.24444   -701783.83644  20639736.6694   20639737.6964
  16931970.91244  13193717.07344  23400325.1684   23400334.1044
  13819432.87244  10768381.45844  23816338.7534   23816341.1284
  -9088928.94444  -7082263.73244  23523480.0324   23523484.8974
  -9698476.022 4  -7557241.941 4  23512576.495    23512573.598
  -8782115.03644  -6843201.96544  23918393.9864   23918398.9024
 95  2 28 18 46  0.0000000  0  8G19G18G29G14G22G31G28G27
 -14827389.43244 -11553805.30044  21195298.4414   21195300.3374
 -11047359.35944  -8608333.57544  20305241.7364   20305242.5334
   -876209.86644   -682765.91744  20644381.0054   20644382.0654
  17041581.70844  13279127.84044  23421183.6094   23421191.0104
  13921501.38444  10847915.33844  23835762.1514   23835764.7234
  -9171122.21444  -7146310.31044  23507838.7364   23507844.6974
  -9736168.649 4  -7586612.782 4  23505403.883    23505400.881
  -8856392.17444  -6901080.09744  23904259.4884   23904263.7344
 95  2 28 18 46 30.0000000  0  8G19G18G29G14G22G31G28G27
 -14863378.81144 -11581848.94544  21188449.9354   21188451.7714
 -11076620.64944  -8631134.59244  20299673.4994   20299674.5504
   -851427.52944   -663455.04644  20649096.8834   20649097.5544
  17151293.35344  13364617.17244  23442061.3634   23442067.8834
  14023714.87644  10927562.20844  23855212.1854   23855216.3074
  -9253199.22544  -7210266.28944  23492219.4374   23492227.0744
  -9773444.403 4  -7615658.798 4  23498310.504    23498307.566
  -8930590.81644  -6958897.05144  23890139.9454   23890147.5594
 95  2 28 18 47  0.0000000  0  8G19G18G29G14G22G31G28G27
 -14899121.29044 -11609700.20344  21181648.1964   21181650.1654
 -11105502.89844  -8653640.25844  20294177.5834   20294178.5034
   -826264.56244   -643847.57944  20653885.3264   20653885.9424
  17261114.67744  13450191.97244  23462959.5734   23462968.5094
  14126094.60844  11007338.57644  23874694.1554   23874697.0974
  -9335141.39144  -7274117.20744  23476626.2964   23476632.1544
  -9810289.468 4  -7644369.227 4  23491299.330    23491295.901
  -9004704.01544  -7016647.43744  23876036.9164   23876042.1204
 95  2 28 18 47 30.0000000  0  8G19G18G29G14G22G31G28G27
 -14934627.15244 -11637367.08344  21174891.7124   21174893.5654
 -11133973.93544  -8675825.49244  20288759.5454   20288760.7094
   -800690.87644   -623920.06744  20658751.9394   20658752.6234
  17371055.62344  13535859.97844  23483880.6944   23483888.6204
  14228666.02944  11087264.33144  23894211.9984   23894215.0994
  -9416934.34744  -7337851.82744  23461061.3784   23461068.3714
  -9846687.878 4  -7672731.604 4  23484373.214    23484369.467
  -9078690.81144  -7074299.30544  23861957.1144   23861963.9804
 95  2 28 18 48  0.0000000  0  8G19G18G29G14G22G31G28G27
 -14969949.97444 -11664891.33744  21168169.9994   21168171.7074
 -11162045.33744  -8697699.32344  20283417.5404   20283418.8094
   -774699.60944   -603667.16944  20663697.7304   20663698.5784
  17481082.83444  13621595.20744  23504818.6154   23504828.0484
  14331408.42844  11167323.30544  23913762.8664   23913767.4754
  -9498558.31344  -7401454.75444  23445529.0354   23445535.6174
  -9882657.278 4  -7700759.690 4  23477528.287    23477524.916
  -9152569.74444  -7131867.13344  23847898.2354   23847905.1344
 95  2 28 18 48 30.0000000  0  8G19G18G29G14G22G31G28G27
 -15005140.27744 -11692312.33044  21161473.5714   21161475.2994
 -11189738.41844  -8719278.36044  20278147.7164   20278148.9634
   -748310.89244   -583104.56944  20668719.4984   20668720.5804
  17591169.79044  13707376.98244  23525767.6914   23525776.3784
  14434310.74844  11247506.90344  23933344.4374   23933348.9124
  -9580009.70244  -7464923.21744  23430029.3414   23430036.0334
  -9918213.484 4  -7728465.817 4  23470761.930    23470758.926
  -9226359.76644  -7189365.69844  23833856.5654   23833862.5304
 95  2 28 18 49  0.0000000  0  8G19G18G29G14G22G31G28G27
 -15040176.99444 -11719613.64544  21154806.5134   21154808.0304
 -11217030.09744  -8740544.61544  20272954.5044   20272955.6624
   -721511.02444   -562221.59444  20673819.5564   20673820.3924
  17701324.73944  13793211.74344  23546729.2894   23546737.7284
  14537368.04144  11327811.23444  23952956.0754   23952960.9854
  -9661266.44144  -7528240.00944  23414566.8674   23414574.1194
  -9953336.016 4  -7755834.029 4  23464078.659    23464075.322
  -9300047.07244  -7246784.22744  23819833.6344   23819839.6194
 95  2 28 18 49 30.0000000  0  8G19G18G29G14G22G31G28G27
 -15075029.86444 -11746771.69544  21148174.2324   21148175.7184
 -11243921.66444  -8761499.09544  20267837.3974   20267838.4064
   -694292.09144   -541012.07244  20678999.1744   20679000.0964
  17811561.71944  13879110.42344  23567707.0264   23567715.4664
  14640577.24444  11408233.97944  23972596.9864   23972600.1584
  -9742305.83644  -7591387.43144  23399145.4084   23399152.3284
  -9988010.906 4  -7782853.415 4  23457480.178    23457476.892
  -9373632.36644  -7304123.25944  23805831.0824   23805836.1054
 95  2 28 18 50  0.0000000  0  8G19G18G29G14G22G31G28G27
 -15109695.10044 -11773783.54044  21141577.4644   21141578.8734
 -11270409.75644  -8782139.18244  20262796.7874   20262797.9754
   -666681.07344   -519497.03244  20684253.2634   20684254.1554
  17921881.06944  13965073.28444  23588700.3894   23588709.5734
  14743910.50744  11488753.36244  23992260.7494   23992262.6294
  -9823128.82844  -7654366.21744  23383765.2314   23383771.9054
 -10022243.314 4  -7809528.020 4  23450965.925    23450962.774
  -9447153.29044  -7361412.12144  23791840.3864   23791845.8554
 95  2 28 18 50 30.0000000  0  8G19G18G29G14G22G31G28G27
 -15144172.53344 -11800649.04244  21135016.5804   21135018.3934
 -11296514.29144  -8802480.38844  20257829.1124   20257830.4324
   -638708.24544   -497700.06144  20689576.4014   20689577.5824
  18032264.96444  14051086.43344  23609706.3974   23609714.2444
  14847339.06544  11569347.01744  24011943.0064   24011944.8464
  -9903785.13644  -7717215.12044  23368416.4814   23368422.3564
 -10056050.900 4  -7835871.601 4  23444532.437    23444529.255
  -9520630.70444  -7418667.08544  23777858.3304   23777863.8674
 95  2 28 18 51  0.0000000  0  8G19G18G29G14G22G31G28G27
 -15178425.56444 -11827339.68544  21128498.1734   21128500.0914
 -11322207.01944  -8822500.70444  20252940.0244   20252941.2534
   -610338.89244   -475594.10644  20694974.7614   20694975.8304
  18142745.27044  14137174.71844  23630730.2424   23630738.9304
  14950890.10344  11650036.09144  24031648.2734   24031651.3804
  -9984245.73544  -7779911.51544  23353105.1694   23353111.0784
 -10089404.291 4  -7861861.266 4  23438185.607    23438182.261
  -9594041.55744  -7475870.22744  23763888.7894   23763893.6244
 95  2 28 18 51 30.0000000  0  8G19G18G29G14G22G31G28G27
 -15212457.07044 -11853857.71144  21122022.2234   21122024.2034
 -11347487.77244  -8842200.00044  20248129.2364   20248130.3014
   -581563.39244   -453171.67844  20700450.8844   20700451.6324
  18253336.41344  14223349.34744  23651774.9414   23651783.8764
  15054588.40744  11730839.94544  24051381.7374   24051384.3254
 -10064497.78844  -7842445.41744  23337833.1094   23337838.3654
 -10122298.663 4  -7887493.251 4  23431925.881    23431922.932
  -9667380.22144  -7533017.09444  23749932.3044   23749937.7104
 95  2 28 18 52  0.0000000  0  8G19G18G29G14G22G31G28G27
 -15246274.66844 -11880209.06244  21115586.9674   21115589.2014
 -11372354.80844  -8861576.92444  20243397.4854   20243398.2384
   -552371.58344   -430424.85244  20706006.0224   20706007.1794
  18364033.31044  14309606.41444  23672840.4524   23672848.8924
  15158445.10444  11811767.22244  24071145.3044   24071148.3004
 -10144552.39444  -7904825.45444  23322599.0544   23322605.5944
 -10154725.953 4  -7912761.282 4  23425755.507    23425751.931
  -9740633.62244  -7590097.51544  23735993.0094   23735996.2354
 95  2 28 18 52 30.0000000  0  8G19G18G29G14G22G31G28G27
 -15279902.42144 -11906412.47944  21109187.7214   21109190.0584
 -11396850.72244  -8880664.66144  20238735.8954   20238736.9694
   -522781.21144   -407367.45644  20711636.8174   20711638.0384
  18474799.98644  14395917.83044  23693918.7044   23693928.1374
  15262447.47744  11892808.00844  24090936.5004   24090938.1994
 -10224428.81644  -7967066.64544  23307399.0104   23307404.8384
 -10186707.191 4  -7937681.741 4  23419669.464    23419666.226
  -9813817.72244  -7647123.94144  23722065.9214   23722072.0174
 95  2 28 18 53  0.0000000  0  8G19G18G29G14G22G31G28G27
 -15313347.59044 -11932473.62544  21102823.3354   21102825.5194
 -11420970.10144  -8899458.99544  20234146.2334   20234147.0984
   -492789.37644   -383997.23244  20717343.9024   20717345.1924
  18585635.67844  14482283.03344  23715010.3024   23715018.9894
  15366596.40144  11973963.00144  24110755.2044   24110758.1784
 -10304097.91444  -8029146.28544  23292238.5104   23292245.1574
 -10218238.218 4  -7962251.388 4  23413669.237    23413666.135
  -9886930.88144  -7704095.08844  23708153.0714   23708156.9084
 95  2 28 18 53 30.0000000  0  8G19G18G29G14G22G31G28G27
 -15346569.56944 -11958360.85944  21096501.2804   21096503.1814
 -11444679.97744  -8917934.23744  20229634.5104   20229635.1374
   -462369.44944   -360293.43044  20723132.7324   20723134.0884
  18696548.03944  14568707.96044  23736116.3914   23736125.5754
  15470902.44144  12055240.40744  24130603.9234   24130605.7314
 -10383547.22844  -8091054.66044  23277119.8894   23277126.1744
 -10249292.474 4  -7986449.519 4  23407759.923    23407756.753
  -9959946.04944  -7760989.88244  23694258.7754   23694265.0864
 95  2 28 18 54  0.0000000  0  8G19G18G29G14G22G31G28G27
 -15379570.21244 -11984075.62444  21090221.5004   21090223.3104
 -11467984.74544  -8936093.81044  20225199.7734   20225200.6644
   -431534.98044   -336266.60644  20729000.4164   20729001.5494
  18807518.47544  14655178.15844  23757233.6914   23757240.6284
  15575340.27144  12136620.51344  24150477.8734   24150479.2114
 -10462779.58144  -8152793.99744  23262042.1844   23262048.0514
 -10279876.990 4  -8010281.612 4  23401939.909    23401936.677
 -10032863.10544  -7817808.24444  23680383.0464   23680387.5674
 95  2 28 18 54 30.0000000  0  8G19G18G29G14G22G31G28G27
 -15412348.27644 -12009616.94744  21083984.0394   21083986.0604
 -11490882.40644  -8953936.15844  20220842.5534   20220843.5234
   -400297.12444   -311925.45544  20734944.9444   20734946.0344
  18918544.50244  14741691.66144  23778361.4284   23778370.8604
  15679899.46344  12218095.17144  24170374.8024   24170379.0984
 -10541769.78744  -8214344.66144  23247011.0694   23247016.1964
 -10309996.202 4  -8033751.129 4  23396208.860    23396205.401
 -10105688.07644  -7874554.83344  23666524.7564   23666529.4854
 95  2 28 18 55  0.0000000  0  8G19G18G29G14G22G31G28G27
 -15444911.79944 -12034991.09744  21077787.3204   21077789.1564
 -11513364.06044  -8971454.34544  20216564.2574   20216565.4494
   -368672.14544   -287282.64944  20740962.8444   20740963.7454
  19029627.24844  14828249.37344  23799499.9494   23799508.6364
  15784558.54544  12299647.66644  24190290.8404   24190290.4504
 -10620522.54044  -8275710.27144  23232024.4044   23232029.7814
 -10339654.058 4  -8056861.141 4  23390564.951    23390561.569
 -10178417.26144  -7931226.79544  23652684.6624   23652689.7704
 95  2 28 18 55 30.0000000  0  8G19G18G29G14G22G31G28G27
 -15477257.40144 -12060195.44644  21071632.3824   21071634.1364
 -11535420.38744  -8988641.10844  20212367.2064   20212368.3134
   -336654.74744   -262334.06944  20747055.6294   20747056.5674
  19140774.90444  14914857.62344  23820651.0414   23820662.7074
  15889322.11044  12381281.61644  24210226.3584   24210229.7104
 -10699049.23444  -8336899.76444  23217081.3574   23217086.9034
 -10368846.308 4  -8079608.356 4  23385009.702    23385006.386
 -10251046.52644  -7987820.88444  23638863.5174   23638868.1214
 95  2 28 18 56  0.0000000  0  8G19G18G29G14G22G31G28G27
 -15509405.53744 -12085245.92544  21065514.8464   21065516.4284
 -11557067.36044  -9005508.89644  20208247.8664   20208248.8854
   -304250.05644   -237083.70044  20753222.1114   20753223.0644
  19251988.88644  15001517.63944  23841814.8544   23841826.2724
  15994190.56244  12462997.29444  24230182.5044   24230184.6004
 -10777326.43944  -8397894.82944  23202186.2204   23202191.6114
 -10397577.716 4  -8101996.458 4  23379542.197    23379539.189
 -10323587.22044  -8044345.94344  23625059.5864   23625065.2554
 95  2 28 18 56 30.0000000  0  7G19G18G29G14G31G28G27
 -15541318.83044 -12110113.40644  21059442.0254   21059443.6864
 -11578269.01544  -9022029.68144  20204213.3924   20204214.3924
   -271422.11744   -211503.52544  20759469.0034   20759470.1154
  19363305.88144  15088257.86944  23862997.6264   23863008.2994
 -10855319.17444  -8458668.23444  23187344.4814   23187350.5824
 -10425810.055 4  -8123995.671 4  23374169.750    23374166.528
 -10396015.06444  -8100783.09644  23611276.2774   23611280.4554
 95  2 28 18 57  0.0000000  0  7G19G18G29G14G31G28G27
 -15573039.70044 -12134830.95044  21053405.6244   21053407.4974
 -11599050.93144  -9038223.39944  20200258.6854   20200259.4794
   -238196.94044   -185613.81844  20765791.7584   20765792.6424
  19474688.32144  15175049.08044  23884192.8384   23884202.5194
 -10933086.98044  -8519266.35344  23172545.7424   23172551.3474
 -10453579.754 4  -8145634.399 4  23368885.061    23368882.020
 -10468369.22044  -8157162.82144  23597507.9834   23597511.9564
 95  2 28 18 57 30.0000000  0  8G19G18G29G14G 2G31G28G27
 -15604590.57944 -12159416.03044  21047401.4164   21047403.7334
 -11619439.67944  -9054110.75044  20196378.8034   20196379.8224
   -204580.30844   -159419.08144  20772188.6564   20772189.8144
  19586093.43044  15261857.98044  23905392.9084   23905402.0924
        -1.10354                  25499221.3174
 -11010642.97044  -8579699.44244  23157786.6894   23157790.4654
 -10480908.807 4  -8166929.752 4  23363684.512    23363680.952
 -10540679.78344  -8213508.59844  23583747.5554   23583751.9344
 95  2 28 18 58  0.0000000  0  8G19G18G29G14G 2G31G28G27
 -15635952.48944 -12183853.86744  21041433.4524   21041435.7724
 -11639416.94344  -9069677.46444  20192577.1954   20192578.4384
   -170561.85844   -132911.23844  20778662.1144   20778663.2684
  19697529.61644  15348691.05644  23926598.4974   23926605.7064
    -99481.59944                  25480290.2024
 -11087946.38844  -8639935.71044  23143076.2324   23143082.6554
 -10507771.039 4  -8187861.335 4  23358573.034    23358569.467
 -10612912.46444  -8269793.66444  23570001.9564   23570006.3894
 95  2 28 18 58 30.0000000  0  8G19G18G29G14G 2G31G28G27
 -15667115.91344 -12208137.03244  21035503.1854   21035505.5104
 -11658955.27644  -9084902.15444  20188859.2624   20188860.5024
   -136131.82244   -106082.68244  20785214.1094   20785215.1154
  19808997.77344  15435549.06344  23947810.5664   23947821.7364
   -198914.74644                  25461368.3234
 -11165012.36344  -8699986.94844  23128410.7964   23128417.3124
 -10534154.803 4  -8208420.086 4  23353552.309    23353549.014
 -10685048.35844  -8326003.32944  23556275.0294   23556279.9464
 95  2 28 18 59  0.0000000  0  8G19G18G29G14G 2G31G28G27
 -15698080.23744 -12232265.05544  21029610.9444   21029613.3684
 -11678044.02544  -9099776.51944  20185226.7724   20185227.8894
   -101275.37844    -78921.86044  20791846.9934   20791848.0904
  19920488.15744  15522424.36644  23969026.6054   23969038.2714
   -298290.74144                  25442457.7664
 -11241836.91744  -8759850.08544  23113791.4894   23113797.4544
 -10560056.007 4  -8228602.825 4  23348623.331    23348620.404
 -10757076.18044  -8382128.77644  23542568.6004   23542573.8734
 95  2 28 18 59 30.0000000  0  8G19G18G29G14G 2G31G28G27
 -15728853.51844 -12256244.21344  21023754.8684   21023756.9784
 -11696711.05444  -9114322.27144  20181674.5014   20181675.6334
    -66026.88444    -51455.54544  20798554.6544   20798555.7034
  20031968.35044  15609291.76544  23990241.2514   23990252.6694
   -397618.92344                  25423556.0584
 -11318429.53644  -8819532.49544  23099216.2034   23099221.6294
 -10585491.677 4  -8248422.797 4  23343782.639    23343780.158
 -10829016.42844  -8438185.99944  23528878.5204   23528882.6674
 95  2 28 19  0  0.0000000  0  8G19G18G29G14G 2G31G28G27
 -15759402.51544 -12280048.61044  21017941.6664   21017943.7004
 -11714923.47544  -9128513.78344  20178208.8864   20178209.9784
    -30353.75844    -23658.34544  20805342.7564   20805344.0964
  20143492.82644                  24011463.4724
   -496853.70844                  25404671.9684
 -11394773.86844  -8879021.44244  23084688.9204   23084692.8894
 -10610427.208 4  -8267853.049 4  23339037.887    23339034.655
 -10900836.45644  -8494149.53644  23515211.8874   23515216.4584
 95  2 28 19  0 30.0000000  0  8G19G18G29G14G 2G31G28G27
 -15789733.31344 -12303682.98144  21012169.9124   21012171.8264
 -11732689.29044  -9142357.28844  20174828.0654   20174829.0984
      5749.75444      4474.21944  20812213.2094   20812214.3274
  20255050.44244  15783121.34244  24032692.6554   24032700.5634
   -596001.81944   -464415.98044  25385804.6394
 -11470903.05044  -8938342.76044  23070201.8584   23070207.1364
 -10634877.315 4  -8286905.055 4  23334385.359    23334382.096
 -10972564.91244  -8550041.71644  23501562.2674   23501567.2714
 95  2 28 19  1  0.0000000  0  8G19G18G29G14G 2G31G28G27
 -15819873.76144 -12327169.03144  21006434.3744   21006436.2874
 -11750049.41044  -9155884.66944  20171524.6544   20171525.7784
     42253.84944     32918.92244  20819159.9314   20819161.0854
  20366632.99944  15870068.49044  24053926.1904   24053935.6224
   -695071.76544                  25366952.5084
 -11546821.56944  -8997499.93544  23055754.9464   23055759.3274
 -10658862.329 4  -8305594.647 4  23329821.088    23329818.053
 -11044222.89044  -8605878.99644  23487926.4894   23487930.9594
 95  2 28 19  1 30.0000000  0  8G19G18G29G14G 2G31G28G27
 -15849771.55944 -12350465.99944  21000745.0424   21000746.8984
 -11766964.36144  -9169065.16444  20168305.8014   20168306.8524
     79201.18944     61709.01344  20826190.8424   20826192.2244
  20478312.27144                  24075178.0774
   -794002.49844                  25348126.6894
 -11622482.56444  -9056456.42644  23041357.0904   23041361.8384
 -10682324.283 4  -8323876.663 4  23325356.592    23325353.403
 -11115763.74644  -8661624.99744  23474312.4044   23474317.5654
 95  2 28 19  2  0.0000000  0  8G19G18G29G14G 2G31G28G27
 -15879466.69944 -12373605.05944  20995094.3124   20995095.8704
 -11783472.82844  -9181928.92444  20165164.3074   20165165.3934
    116571.56844     90828.74544  20833302.0754   20833303.3044
  20590062.21944  16044168.60244  24096443.6454   24096454.3184
   -892828.92444                  25329320.3394
 -11697909.32944  -9115230.43744  23027003.9924   23027008.6874
 -10705292.910 4  -8341774.277 4  23320985.677    23320982.521
 -11187215.05744  -8717301.25544  23460715.0854   23460720.2634
 95  2 28 19  2 30.0000000  0  8G19G18G29G14G 2G31G28G27
 -15908988.73544 -12396609.23244  20989476.6184   20989478.1234
 -11799595.79444  -9194492.28644  20162096.2554   20162097.5154
    154336.27944    120255.74644  20840488.3254   20840489.8134
  20701841.83144  16131269.30744  24117714.9414   24117726.3594
   -991580.18744   -772657.89244  25310528.2544
 -11773097.19644  -9173818.30144  23012696.0764   23012700.2894
 -10727786.867 4  -8359302.002 4  23316705.399    23316702.441
 -11258600.12044  -8772925.87444  23447131.1744   23447135.7594
 95  2 28 19  3  0.0000000  0  8G19G18G29G14G 2G31G28G27
 -15938320.04344 -12419464.79044  20983895.0514   20983896.4974
 -11815322.26444  -9206746.69344  20159103.4914   20159104.8684
    192504.31544    149997.02544  20847751.5054   20847752.9134
  20813658.17044  16218398.60644  24138993.1834   24139000.8054
  -1090239.14444   -849534.75844  25291753.7064   25291761.1944
 -11848008.58044  -9232190.72744  22998440.1504   22998445.3094
 -10749784.725 4  -8376443.160 4  23312519.560    23312516.211
 -11329902.40444  -8828485.99244  23433562.6374   23433569.4544
 95  2 28 19  3 30.0000000  0  8G19G18G29G14G 2G31G28G27
 -15967468.96544 -12442178.22744  20978348.0084   20978349.5384
 -11830650.13444  -9218690.50044  20156186.7784   20156188.0724
    231063.91344    180043.41844  20855089.5324   20855090.7154
  20925454.36944                  24160267.6204
  -1188845.66344                  25272989.0114
 -11922654.08044  -9290355.96744  22984235.5884   22984240.3164
 -10771306.798 4  -8393213.575 4  23308423.962    23308420.522
 -11401148.99744  -8884002.71544  23420004.9464   23420010.6714
 95  2 28 19  4  0.0000000  0  8G19G18G29G14G 2G31G28G27
 -15996417.81544 -12464735.76644  20972839.1974   20972840.7144
 -11845530.52144  -9230285.62344  20153355.1414   20153356.4914
    270056.18544    210426.96044  20862509.6614   20862510.6624
  21037234.81044  16392613.56044  24181538.9164   24181550.0864
  -1287363.35144                  25254241.8904
 -11996966.46344  -9348261.62844  22970094.4944   22970100.7064
 -10792317.777 4  -8409585.726 4  23304425.603    23304422.522
 -11472289.81444  -8939437.02244  23406467.3934   23406471.6674
 95  2 28 19  4 30.0000000  0  8G19G18G29G14G 2G31G28G27
 -16025185.78744 -12487152.36144  20967365.0014   20967366.6514
 -11859953.25244  -9241524.13044  20150610.6114   20150611.7824
    309468.67044    241137.93844  20870009.5864   20870010.6844
  21148982.20744  16479689.19444  24202803.9144   24202814.5884
  -1385801.03244  -1079842.14144  25235509.3484
 -12070944.90644  -9405907.10644  22956016.6174   22956021.4954
 -10812825.156 4  -8425565.466 4  23300523.088    23300519.698
 -11543332.28644  -8994794.70944  23392947.9334   23392952.8744
 95  2 28 19  5  0.0000000  0  8G19G18G29G14G 2G31G28G27
 -16053796.24344 -12509446.21344  20961920.4444   20961922.3994
 -11873954.50444  -9252434.21244  20147946.2454   20147947.4674
    349253.05744    272138.71544  20877580.3714   20877581.3664
  21260657.49644                  24224055.2054
  -1484200.41644                  25216784.3524
 -12144632.28444  -9463325.75344  22941994.4214   22941998.9244
 -10832870.305 4  -8441185.027 4  23296708.523    23296705.293
 -11614318.29044  -9050108.37844  23379439.5704   23379444.5484
 95  2 28 19  5 30.0000000  0  8G19G18G29G14G 2G31G28G27
 -16082231.22244 -12531603.33044  20956509.2234   20956511.2244
 -11887488.86844  -9262980.48844  20145370.9774   20145371.9794
    389433.22144    303447.89044  20885226.3834   20885227.6064
  21372304.41544  16653705.90844  24245301.1884   24245312.8544
  -1582525.76744                  25198073.3294
 -12218001.87244  -9520496.78844  22928032.8694   22928038.4354
 -10852418.065 4  -8456417.006 4  23292988.547    23292985.379
 -11685210.62244  -9105349.06044  23365949.4504   23365954.4674
 95  2 28 19  6  0.0000000  0  8G19G18G29G14G 2G31G28G27
 -16110482.56244 -12553617.35444  20951133.3164   20951135.1944
 -11900559.78844  -9273165.63944  20142883.5634   20142884.8844
    430016.99244    335071.56244  20892949.3354   20892950.5354
  21483960.42344                  24266548.9544
  -1680755.09744                  25179380.9374
 -12291061.73844  -9577426.49244  22914129.9294   22914134.9374
 -10871461.209 4  -8471255.777 4  23289364.615    23289361.241
 -11756006.88044  -9160514.87344  23352477.3514   23352480.8424
 95  2 28 19  6 30.0000000  0  8G19G18G29G14G 2G31G28G27
 -16138522.90544 -12575466.96444  20945797.2384   20945799.0444
 -11913177.14844  -9282997.36844  20140482.5294   20140483.8934
    470993.48944    367001.25644  20900746.6384   20900748.2274
  21595634.98244  16827729.16644  24287800.1744   24287810.1034
  -1778908.85044                  25160702.6644
 -12363851.34044  -9634145.59744  22900278.4614   22900282.2174
 -10890009.795 4  -8485709.175 4  23285834.931    23285831.941
 -11826730.99744  -9215624.47544  23339019.0994   23339023.0184
 95  2 28 19  7  0.0000000  0  8G19G18G29G14G 2G31G28G27
 -16166330.47544 -12597135.19344  20940505.8594   20940507.6764
 -11925348.42544  -9292481.49744  20138166.3944   20138167.7494
    512362.97844    399237.18044  20908619.0444   20908620.5984
  21707330.94644                  24309055.2734
  -1876970.30444  -1462570.14144  25142042.3384   25142052.7634
 -12436375.10344  -9690657.54544  22886477.4114   22886482.6094
 -10908053.651 4  -8499769.275 4  23282401.381    23282397.631
 -11897380.31144  -9270675.79844  23325574.6814   23325578.0574
 95  2 28 19  7 30.0000000  0  8G19G18G29G14G 2G31G28G27
 -16193907.95744 -12618624.13744  20935258.1184   20935259.9664
 -11937065.38344  -9301611.61444  20135936.8494   20135938.0014
    554159.94444    431806.20044  20916572.7144   20916574.1914
  21819058.25244  17001824.54244  24330316.6414   24330325.5774
  -1974992.56944                  25123413.4654
 -12508617.92644  -9746950.58544  22872730.0494   22872734.5904
 -10925576.658 4  -8513423.518 4  23279066.558    23279063.175
 -11967927.51144  -9325647.53744  23312150.1744   23312154.3174
 95  2 28 19  8  0.0000000  0  8G19G18G29G14G 2G31G28G27
 -16221224.49844 -12639909.74844  20930059.9474   20930061.7514
 -11948325.81944  -9310385.99744  20133794.1924   20133795.2074
    596411.53444    464729.46644  20924612.9364   20924614.2094
  21930818.71644                  24351584.3354
  -2073564.18344                  25104784.8074
 -12580542.92144  -9802995.94444  22859042.8394   22859047.8484
 -10942563.215 4  -8526659.749 4  23275834.179    23275831.034
 -12038358.29044  -9380528.57644  23298747.7284   23298751.4704
 95  2 28 19  8 30.0000000  0  7G19G18G29G14G31G28G27
 -16248283.87544 -12660994.96844  20924910.6604   20924912.3504
 -11959113.08244  -9318791.67744  20131741.3234   20131742.5764
    639119.22544    498008.13244  20932740.0804   20932741.5654
  22042612.51444                  24372858.0124
 -12652112.77944  -9858764.58444  22845423.2664   22845428.4904
 -10958995.093 4  -8539463.761 4  23272707.163    23272704.252
 -12108644.89944  -9435297.27944  23285372.5114   23285376.5244
 95  2 28 19  9  0.0000000  0  8G19G18G29G14G 2G31G28G27
 -16275178.02744 -12681951.44344  20919792.7084   20919794.6364
 -11969485.86044  -9326874.38144  20129767.3584   20129768.7334
    682234.69644    531604.55244  20940944.7744   20940946.3864
  22154366.18244  17263102.43644  24394123.9104   24394135.3284
        -0.17354         0.82154  25067635.6154   25067646.7844
 -12723365.38844  -9914286.00844  22831864.1634   22831870.2224
 -10974932.333 4  -8551882.335 4  23269674.436    23269671.187
 -12178851.91044  -9490003.94744  23272012.3064   23272017.1874
 95  2 28 19  9 30.0000000  0  8G19G18G29G14G 2G31G28G27
 -16301909.44544 -12702781.11244  20914706.0924   20914707.8514
 -11979423.63144  -9334618.11744  20127876.4544   20127877.8254
    725766.39244    565525.30244  20949228.7264   20949230.1984
  22266081.24644  17350152.73644  24415383.2804   24415394.2014
    -97469.66044                  25049086.3184
 -12794297.89444  -9969557.99344  22818366.0284   22818371.8664
 -10990379.707 4  -8563919.182 4  23266734.861    23266731.411
 -12248972.86044  -9544643.55144  23258668.8554   23258672.8964
 95  2 28 19 10  0.0000000  0  8G19G18G29G14G 2G31G28G27
 -16328481.37844 -12723486.50844  20909649.6474   20909651.2684
 -11988927.95744  -9342024.10344  20126068.0334   20126069.0664
    769689.87244    599751.33944  20957586.9194   20957588.5274
  22377741.48644                  24436631.7384
   -194844.93644   -151826.15944  25030556.1674
 -12864921.99244 -10024589.66244  22804926.7494   22804931.2044
 -11005350.389 4  -8575584.578 4  23263886.110    23263882.523
 -12319029.02644  -9599232.68044  23245337.3444   23245341.7354
 95  2 28 19 10 30.0000000  0  8G19G18G29G14G 2G31G28G27
 -16354885.40244 -12744061.06544  20904624.9084   20904627.0564
 -11997971.44844  -9349070.99944  20124346.9824   20124348.1074
    814029.42844    634301.59144  20966024.5114   20966026.0884
  22489360.01244                  24457872.2964
   -292109.15944                  25012046.9754
 -12935232.03344 -10079376.60544  22791547.1224   22791551.6434
 -11019824.902 4  -8586863.357 4  23261131.449    23261128.144
 -12388999.59544  -9653755.11244  23232022.2724   23232026.0434
 95  2 28 19 11  0.0000000  0  8G19G18G29G14G 2G31G28G27
 -16381101.62144 -12764489.28244  20899635.8984   20899637.9624
 -12006544.98744  -9355751.70344  20122715.3624   20122716.3974
    858797.47444    669185.72844  20974543.7184   20974545.3344
  22600935.22044                  24479104.8834
   -389267.92444   -303324.04844  24993558.2004   24993568.8734
 -13005236.70444 -10133925.57044  22778225.6244   22778230.6504
 -11033795.925 4  -8597749.805 4  23258472.398    23258469.754
 -12458893.15744  -9708217.56644  23218721.6634   23218725.5944
 95  2 28 19 11 30.0000000  0  8G29G19G18G14G 2G31G28G27
    903969.72844    704384.83244  20983139.7894   20983141.2974
 -16407119.30244 -12784762.79244  20894685.1084   20894687.1404
 -12014666.34244  -9362080.05344  20121169.9864   20121171.0304
  22712463.43444                  24500327.8524
   -486343.13344                  24975085.5494
 -13074937.62044 -10188237.91244  22764962.0944   22764967.2704
 -11047262.880 4  -8608243.465 4  23255910.121    23255906.991
 -12528706.63244  -9762617.57044  23205436.5854   23205440.8204
 95  2 28 19 12  0.0000000  0  8G29G19G18G14G 2G31G28G27
    949545.63144    739898.47244  20991812.4184   20991814.2224
 -16432943.82244 -12804885.78544  20889770.9454   20889772.7304
 -12022350.22544  -9368067.51544  20119707.7024   20119708.8694
  22823939.72644                  24521541.4494
   -583332.37844                  24956629.3094
 -13144314.33044 -10242297.59044  22751760.0614   22751765.2904
 -11060213.531 4  -8618334.816 4  23253445.556    23253442.228
 -12598448.90144  -9816962.10644  23192165.0674   23192169.7014
 95  2 28 19 12 30.0000000  0  8G29G19G18G14G 2G31G28G27
    995532.85144    775732.61444  21000563.6654   21000565.4064
 -16458565.14644 -12824850.44244  20884895.5094   20884897.2034
 -12029579.98544  -9373701.11444  20118332.0004   20118333.0554
  22935376.89944                  24542747.9164
   -680229.63144   -530046.66244  24938189.9144   24938200.5874
 -13213351.29144 -10296092.52344  22738622.7324   22738627.9624
 -11072628.960 4  -8628009.105 4  23251082.785    23251079.889
 -12668110.43344  -9871243.73744  23178909.1274   23178912.8244
 95  2 28 19 13  0.0000000  0  8G29G19G18G14G 2G31G28G27
   1041895.28344    811859.12644  21009386.1114   21009387.7604
 -16483987.92244 -12844660.38644  20880057.8174   20880059.3374
 -12036361.84544  -9378985.70144  20117041.3834   20117042.7984
  23046777.06144                  24563946.7754
   -777037.91344   -605481.43044  24919768.0404   24919777.2244
 -13282056.14144 -10349628.65944  22725547.9414   22725553.0924
 -11084519.587 4  -8637274.469 4  23248820.155    23248817.173
 -12737705.96644  -9925473.94144  23165665.6484   23165669.9174
 95  2 28 19 13 30.0000000  0  8G29G19G18G14G 2G31G28G27
   1088639.59244    848283.20844  21018281.4334   21018283.0784
 -16509211.43544 -12864315.06244  20875257.8874   20875259.5544
 -12042694.39944  -9383920.18244  20115836.5024   20115837.7604
  23158147.78644                  24585139.9474
   -873736.41344   -680830.66844  24901366.5454   24901374.2824
 -13350412.80444 -10402893.49144  22712540.6294   22712545.6854
 -11095881.179 4  -8646127.601 4  23246658.213    23246654.924
 -12807210.95844  -9979633.60844  23152439.1574   23152442.8254
 95  2 28 19 14  0.0000000  0  8G29G19G18G14G 2G31G28G27
   1135763.47144    885003.05744  21027248.9574   21027250.8154
 -16534258.71744 -12883832.41344  20870491.3764   20870493.2514
 -12048555.85544  -9388487.56644  20114721.0304   20114722.2444
  23269471.76144  18132011.72044  24606324.3554   24606334.7804
   -970313.39944                  24882988.2904
 -13418435.37644 -10455897.99244  22699596.4124   22699602.0814
 -11106723.775 4  -8654576.324 4  23244594.814    23244591.727
 -12876629.77744 -10033726.10544  23139229.0504   23139233.0524
 95  2 28 19 14 30.0000000  0  8G29G19G18G14G 2G31G28G27
   1183279.06044    922028.13444  21036290.7664   21036292.3634
 -16559120.28544 -12903205.05244  20865760.2004   20865762.1744
 -12053918.10344  -9392665.96744  20113700.6474   20113701.7474
  23380770.19944                  24627504.7654
  -1066756.45244   -831235.47044  24864636.3574   24864646.7824
 -13486123.31044 -10508641.73144  22686715.4174   22686720.1234
 -11117037.949 4  -8662613.288 4  23242632.083    23242628.775
 -12945936.00244 -10087730.86044  23126040.2044   23126043.2284
 95  2 28 19 15  0.0000000  0  8G29G19G18G14G 2G31G28G27
   1231224.06744    959387.82744  21045414.5474   21045416.0854
 -16583771.20644 -12922413.55044  20861069.3884   20861071.3884
 -12058765.17544  -9396442.93044  20112778.4874   20112779.6154
  23492070.24644                  24648685.1294
  -1163039.56744   -906261.03744  24846314.0864   24846325.2564
 -13553442.15144 -10561097.87544  22673905.0284   22673910.4284
 -11126803.305 4  -8670222.610 4  23240773.728    23240770.425
 -13015103.96344 -10141627.88044  23112877.7304   23112880.8724
 95  2 28 19 15 30.0000000  0  8G29G19G18G14G 2G31G28G27
   1279547.98544    997042.77244  21054610.2624   21054611.8464
 -16608291.57844 -12941520.31844  20856403.3444   20856405.2684
 -12063169.19644  -9399874.66044  20111940.4394   20111941.5014
  23603280.62244                  24669848.1974
  -1259237.70344   -981220.40644  24828007.8884   24828017.8174
 -13620458.51444 -10613318.31544  22661152.7714   22661156.9584
 -11136089.333 4  -8677458.424 4  23239006.524    23239003.982
 -13084207.95344 -10195475.05844  23099727.9874   23099731.1894
 95  2 28 19 16  0.0000000  0  8G29G19G18G14G 2G31G28G27
   1328261.65044   1035001.41544  21063879.9684   21063881.7994
 -16632668.89344 -12960515.62244  20851764.5924   20851766.1654
 -12067109.29844  -9402944.89744  20111190.6624   20111191.8104
  23714421.63844                  24690998.1054
  -1355340.84044  -1056105.76144  24809719.2804   24809729.4564
 -13687149.86144 -10665285.51244  22648462.0734   22648466.5384
 -11144880.087 4  -8684308.318 4  23237333.428    23237331.085
 -13153256.96144 -10249279.39944  23086588.7474   23086591.6704
 95  2 28 19 16 30.0000000  0  8G29G19G18G14G 2G31G28G27
   1377411.21744   1073299.72044  21073232.8644   21073234.6774
 -16656846.48144 -12979355.29844  20847163.6284   20847165.2564
 -12070577.90444  -9405647.72844  20110530.3734   20110531.8734
  23825540.97744                  24712143.5214
  -1451316.49544                  24791455.1914
 -13753467.29744 -10716961.34144  22635842.0974   22635846.6054
 -11153133.702 4  -8690739.665 4  23235762.942    23235760.078
 -13222220.78344 -10303017.36944  23073465.4864   23073468.9184
 95  2 28 19 17  0.0000000  0  8G29G19G18G14G 2G31G28G27
   1427003.70844   1111943.16044  21082670.1894   21082671.7864
 -16680794.80644 -12998016.32644  20842606.4664   20842608.0974
 -12073583.27944  -9407989.59644  20109958.6304   20109959.9054
  23936634.03844                  24733284.1124
  -1547147.85944                  24773218.8774
 -13819393.32444 -10768332.17244  22623296.5864   22623300.9254
 -11160837.775 4  -8696742.808 4  23234296.810    23234294.063
 -13291100.01244 -10356689.41644  23060357.8214   23060360.6744
 95  2 28 19 17 30.0000000  0  7G29G 2G19G18G31G28G27
   1477027.17444   1150922.42644  21092189.5814   21092191.3274
  -1642836.48444                  24755010.1754
 -16704526.51944 -13016508.56444  20838090.3924   20838092.1864
 -12076139.98644  -9409981.85644  20109472.1454   20109473.5624
 -13884933.22544 -10819402.12044  22610824.5934   22610828.8184
 -11167999.969 4  -8702323.707 4  23232933.514    23232930.879
 -13359900.03944 -10410299.73544  23047265.1464   23047269.1254
 95  2 28 19 18  0.0000000  0  7G29G19G18G 2G31G28G27
   1527485.06444   1190240.20444  21101791.0584   21101792.9244
 -16728025.79744 -13034819.67944  20833618.4524   20833620.5434
 -12078245.94944  -9411622.89144  20109071.3264   20109072.7464
  -1738369.98444                  24736830.7424
 -13950074.28744 -10870161.28444  22598428.4314   22598433.2554
 -11174616.359 4  -8707479.304 4  23231674.565    23231671.526
 -13428603.81144 -10463835.05744  23034191.2794   23034195.0274
 95  2 28 19 18 30.0000000  0  7G29G 2G19G18G31G28G27
   1578382.89044   1229900.79044  21111476.7484   21111478.6134
  -1833750.81544  -1428891.74144  24718680.0434   24718687.2164
 -16751281.24544 -13052940.80344  20829193.4194   20829195.1624
 -12079899.68044  -9412911.53644  20108756.7534   20108757.9784
 -14014822.09444 -10920614.02244  22586107.1164   22586111.8784
 -11180682.040 4  -8712205.774 4  23230520.380    23230517.344
 -13497194.78544 -10517282.48144  23021138.8994   23021142.7554
 95  2 28 19 19  0.0000000  0  7G29G19G18G 2G31G28G27
   1629651.79344   1269850.52744  21121233.0524   21121234.8994
 -16774369.97444 -13070932.01744  20824799.6294   20824801.5684
 -12081142.89744  -9413880.29844  20108520.2634   20108521.3804
  -1929044.53044                  24700546.2344
 -14079233.10744 -10970804.31344  22573850.2224   22573854.7284
 -11186260.738 4  -8716552.790 4  23229458.888    23229456.028
 -13565729.44844 -10570686.01844  23008097.2114   23008100.1894
 95  2 28 19 19 30.0000000  0  7G29G 2G19G18G31G28G27
   1681302.48944   1310097.77444  21131061.7654   21131063.6134
  -2024233.56644                  24682432.4044
 -16797292.06544 -13088793.38044  20820437.7254   20820439.5984
 -12081939.66644  -9414501.17944  20108368.4564   20108369.7584
 -14143284.13944 -11020714.10544  22561661.7184   22561665.9034
 -11191333.896 4  -8720505.867 4  23228493.311    23228490.857
 -13634179.09844 -10624023.33144  22995071.2014   22995075.0604
 95  2 28 19 20  0.0000000  0  7G29G19G18G 2G31G28G27
   1733351.77644   1350655.60644  21140966.7534   21140968.2174
 -16820002.88344 -13106490.11844  20816115.9934   20816117.8114
 -12082238.98144  -9414734.43544  20108311.5664   20108312.9874
  -2119292.63844  -1651391.23844  24664342.7004   24664350.8914
 -14206958.62744 -11070330.48544  22549544.8524   22549548.4614
 -11195862.202 4  -8724034.389 4  23227631.805    23227628.726
 -13702508.18144 -10677266.68744  22982068.5774   22982072.2324
 95  2 28 19 20 30.0000000  0  7G29G19G18G 2G31G28G27
   1785772.28144   1391502.69444  21150941.7704   21150943.6784
 -16842532.87844 -13124045.95744  20811828.5424   20811830.2664
 -12082055.24344  -9414591.28844  20108346.5864   20108347.8844
  -2214248.87944  -1725382.89744  24646273.1054   24646282.0414
 -14270278.59244 -11119670.61444  22537495.3724   22537498.9994
 -11199861.843 4  -8727150.972 4  23226870.669    23226867.873
 -13770746.34344 -10730439.20244  22969083.3614   22969086.5664
 95  2 28 19 21  0.0000000  0  7G29G19G18G 2G31G28G27
   1838554.27644   1432631.46844  21160985.8164   21160987.6774
 -16864899.37144 -13141474.39444  20807572.3094   20807574.1904
 -12081394.08044  -9414076.12044  20108472.4614   20108473.7924
  -2309104.54544  -1799296.16344  24628222.3084   24628231.7404
 -14333249.04344 -11168738.38044  22525512.4114   22525516.0304
 -11203344.518 4  -8729864.723 4  23226207.771    23226205.396
 -13838914.75244 -10783557.36344  22956111.1244   22956114.8554
 95  2 28 19 21 30.0000000  0  7G29G19G18G 2G31G28G27
   1891730.94544   1474067.77944  21171105.3824   21171107.1014
 -16887064.47144 -13158745.90544  20803354.5694   20803356.3784
 -12080229.24444  -9413168.47744  20108694.0534   20108695.3334
  -2403821.24944                  24610198.6854
 -14395856.15444 -11217523.03244  22513598.5544   22513602.5164
 -11206280.682 4  -8732152.625 4  23225648.694    23225646.537
 -13906996.74444 -10836608.18344  22943155.6144   22943159.6074
 95  2 28 19 22  0.0000000  0  7G29G19G18G 2G31G28G27
   1945320.18644   1515825.57644  21181302.8044   21181304.8214
 -16909037.23444 -13175867.54244  20799173.4044   20799175.0874
 -12078559.57344  -9411867.45844  20109011.7954   20109013.1344
  -2498400.46244                  24592200.7754
 -14458096.55744 -11266021.95144  22501754.3954   22501757.6154
 -11208671.701 4  -8734015.735 4  23225193.972    23225191.569
 -13975003.18344 -10889600.14444  22930214.2194   22930217.4254
 95  2 28 19 22 30.0000000  0  7G29G 2G19G18G31G28G27
   1999325.33644   1557907.45244  21191579.6834   21191581.7954
  -2592845.77144  -2020392.55944  24574228.0204   24574239.4384
 -16930839.40044 -13192856.24344  20795024.5944   20795026.2664
 -12076406.12044  -9410189.46844  20109421.4304   20109422.7734
 -14519948.55844 -11314218.19944  22489984.3024   22489988.2544
 -11210535.456 4  -8735467.998 4  23224839.472    23224837.088
 -14042956.37444 -10942550.59844  22917283.0674   22917286.7674
 95  2 28 19 23  0.0000000  0  7G29G19G18G 2G31G28G27
   2053771.31644   1600332.82644  21201940.7934   21201942.6344
 -16952447.40344 -13209693.65144  20790912.8694   20790914.3274
 -12073752.27144  -9408121.56044  20109926.5064   20109928.0544
  -2687128.37044  -2093859.26344  24556286.0204   24556295.7004
 -14581371.99044 -11362080.50344  22478295.6154   22478299.2204
 -11211850.372 4  -8736492.601 4  23224589.279    23224586.770
 -14110827.43844 -10995437.06544  22904367.8944   22904370.8244
 95  2 28 19 23 30.0000000  0  7G29G 2G19G18G31G28G27
   2108672.00644   1643112.52644  21212387.9814   21212389.9954
  -2781240.68344                  24538377.7914
 -16973844.78044 -13226366.93744  20786841.1064   20786842.4394
 -12070586.63344  -9405654.85544  20110529.1794   20110530.5744
 -14642343.98544 -11409591.03844  22466692.9184   22466696.9784
 -11212601.707 4  -8737078.045 4  23224446.433    23224443.599
 -14178585.92744 -11048235.81944  22891473.6844   22891477.0474
 95  2 28 19 24  0.0000000  0  7G29G19G18G 2G31G28G27
   2164016.03344   1686237.67744  21222919.6994   21222921.4794
 -16995045.08344 -13242886.66244  20782806.7364   20782808.0954
 -12066924.45144  -9402801.23544  20111225.9784   20111227.2544
  -2875196.20144  -2240405.13044  24520498.2034   24520509.1244
 -14702847.98044 -11456736.90044  22455179.5674   22455182.8384
 -11212798.189 4  -8737231.141 4  23224409.024    23224406.155
 -14246230.33544 -11100945.68444  22878601.7914   22878604.9284
 95  2 28 19 24 30.0000000  0  7G29G 2G19G18G31G28G27
   2219792.23844   1729699.59144  21233533.4644   21233535.3294
  -2968988.40344  -2313489.67744  24502649.5514   24502658.9834
 -17016041.01344 -13259247.12844  20778811.1814   20778812.8704
 -12062785.15144  -9399575.83544  20112013.4544   20112014.9594
 -14762894.20944 -11503526.07444  22443752.7844   22443757.0024
 -11212442.686 4  -8736954.114 4  23224476.455    23224473.928
 -14313769.95744 -11153573.90344  22865749.0714   22865752.4064
 95  2 28 19 25  0.0000000  0  7G29G19G18G 2G31G28G27
   2275958.09244   1773465.12544  21244221.4534   21244223.3934
 -17036875.57044 -13275481.84944  20774846.4314   20774848.1184
 -12058208.45944  -9396009.61044  20112884.4194   20112885.9014
  -3062659.78144                  24484824.0234
 -14822551.91544 -11550012.49644  22432400.5424   22432404.5724
 -11211570.541 4  -8736274.503 4  23224642.606    23224639.533
 -14381235.28444 -11206144.23544  22852911.0604   22852914.0664
 95  2 28 19 25 30.0000000  0  7G29G 2G19G18G31G28G27
   2332542.42544   1817556.75244  21254989.1394   21254990.8234
  -3156176.09744                  24467028.3294
 -17057528.47844 -13291575.02544  20770916.2734   20770917.7934
 -12053157.99244  -9392074.20544  20113845.5834   20113846.8874
 -14881810.96044 -11596188.25844  22421123.7524   22421127.9434
 -11210152.656 4  -8735169.638 4  23224912.480    23224909.342
 -14448599.22444 -11258635.55244  22840092.0374   22840094.8324
 95  2 28 19 26  0.0000000  0  7G29G19G18G 2G31G28G27
   2389524.56344   1861958.34744  21265832.5464   21265834.5824
 -17078016.10344 -13307539.41944  20767018.0794   20767019.6824
 -12047640.60944  -9387774.98844  20114895.3894   20114896.9444
  -3249529.72744  -2532092.54844  24449263.9034   24449270.6094
 -14940668.87244 -11642051.47844  22409923.2524   22409926.5524
 -11208192.719 4  -8733642.420 4  23225285.441    23225282.347
 -14515875.17644 -11311058.32044  22827289.7864   22827292.9504
 95  2 28 19 26 30.0000000  0  7G29G 2G31G19G18G28G27
   2446915.07644   1906678.15644  21276753.6064   21276755.6754
  -3342707.27644  -2604698.16344  24431532.1474   24431540.5864
 -14999119.35744 -11687597.22244  22398800.6624   22398803.9214
 -17098314.37644 -13323356.26444  20763155.1924   20763156.7474
 -12041633.52044  -9383094.17744  20116038.8764   20116040.2984
 -11205673.493 4  -8731679.379 4  23225764.631    23225761.772
 -14583048.08844 -11363400.77944  22814506.8344   22814510.8034
 95  2 28 19 27  0.0000000  0  7G29G19G18G 2G31G28G27
   2504723.66544   1951723.74044  21287754.3284   21287756.5374
 -17118402.07244 -13339009.01844  20759332.9664   20759334.4104
 -12035110.06644  -9378010.99844  20117280.1644   20117281.4864
  -3435703.43044  -2677162.47144  24413835.6064   24413844.7904
 -15057135.40744 -11732804.43644  22387760.4554   22387764.0194
 -11202584.685 4  -8729272.514 4  23226351.993    23226349.998
 -14650095.22844 -11415645.24044  22801747.9014   22801751.2124
 95  2 28 19 27 30.0000000  0  7G29G 2G31G28G19G18G27
   2562915.93644   1997068.29344  21298827.7934   21298830.1004
  -3528523.34144                  24396172.3484
 -15114711.02644 -11777668.47044  22376803.9464   22376808.3304
 -11198945.013 4  -8726436.377 4  23227044.857    23227042.339
 -17138280.32144 -13354498.56844  20755549.8954   20755551.7104
 -12028079.03344  -9372532.29644  20118618.1974   20118619.5834
 -14717044.37244 -11467813.35044  22789007.6934   22789011.8894
 95  2 28 19 28  0.0000000  0  7G29G19G18G 2G31G28G27
   2621415.69944   2042652.43944  21309960.3894   21309962.2824
 -17157986.72144 -13369854.21844  20751799.7484   20751801.8584
 -12020610.46644  -9366712.67844  20120039.2474   20120040.8614
  -3621237.94544                  24378529.1504
 -15171909.38044 -11822238.54444  22365919.2554   22365922.4164
 -11194821.416 4  -8723223.210 4  23227829.793    23227826.912
 -14783972.36644 -11519964.97344  22776271.7584   22776275.8294
 95  2 28 19 28 30.0000000  0  7G29G 2G31G19G18G28G27
   2680225.89144   2088478.48644  21321151.5154   21321153.3504
  -3713857.20044                  24360903.8904
 -15228758.40244 -11866536.40344  22355101.5154   22355104.8814
 -17177517.25944 -13385072.83044  20748083.3754   20748085.1414
 -12012702.40544  -9360550.59044  20121544.2024   20121545.7274
 -11190219.909 4  -8719637.614 4  23228705.431    23228702.291
 -14850884.51444 -11572104.24244  22763539.1494   22763542.2844
 95  2 28 19 29  0.0000000  0  7G29G19G18G 2G31G28G27
   2739381.28144   2134573.51344  21332408.6434   21332410.5544
 -17196838.11244 -13400128.05244  20744406.7484   20744408.4074
 -12004306.22644  -9354008.15144  20123141.9744   20123143.3614
  -3806328.01944                  24343306.9814
 -15285219.77244 -11910532.20444  22344356.9234   22344361.2024
 -11185096.382 4  -8715645.266 4  23229680.147    23229677.253
 -14917737.17244 -11624197.16444  22750817.1204   22750820.4244
 95  2 28 19 29 30.0000000  0  8G29G19G18G16G 2G31G28G27
   2798937.99744   2180981.26644  21343742.1314   21343743.8094
 -17215907.15744 -13414987.05844  20740778.0204   20740779.7844
 -11995364.36744  -9347040.50344  20124843.7034   20124845.0584
        -0.25054        -0.12354  25048708.4694
  -3898590.07744  -3037852.21444  24325750.0614   24325759.9904
 -15341248.77044 -11954191.07644  22333695.1794   22333699.0024
 -11179391.035 4  -8711199.551 4  23230765.642    23230762.955
 -14984476.31744 -11676201.63344  22738117.0504   22738120.1914
 95  2 28 19 30  0.0000000  0  8G19G18G29G16G 2G31G28G27
 -17234740.46544 -13429662.37344  20737194.2864   20737196.1574
 -11985869.60944  -9339642.03044  20126650.6484   20126651.8654
   2858925.33944   2227724.56944  21355157.1174   21355159.1154
    -76290.30044                  25034190.8314
  -3990656.34244  -3109591.98244  24308230.5434   24308239.9764
 -15396849.30144 -11997516.09544  22323114.5584   22323117.7614
 -11173097.417 4  -8706295.439 4  23231963.137    23231960.700
 -15051086.93144 -11728105.95744  22725441.9034   22725445.0744
 95  2 28 19 30 30.0000000  0  8G19G18G29G16G 2G31G28G27
 -17253312.25544 -13444133.90844  20733660.0944   20733661.7604
 -11975774.63944  -9331775.85844  20128571.4854   20128572.9574
   2919403.36244   2274850.21244  21366665.8454   21366667.9194
   -152156.02544                  25019754.6464
  -4082477.11244  -3181140.42644  24290757.4754   24290768.8934
 -15451961.47944 -12040460.58444  22312627.1614   22312630.0154
 -11166168.687 4  -8700896.426 4  23233281.921    23233279.146
 -15117511.35444 -11779865.20344  22712801.4434   22712804.6254
 95  2 28 19 31  0.0000000  0  8G19G18G29G16G 2G31G28G27
 -17271714.25944 -13458473.14544  20730158.2604   20730160.0114
 -11965176.48344  -9323517.59544  20130588.4654   20130589.8884
   2980295.04444   2322298.18744  21378253.3454   21378255.4314
   -227674.97644                  25005384.6674
  -4174134.34344                  24273315.6224
 -15506638.01444 -12083065.60944  22302222.3454   22302225.2224
 -11158690.016 4  -8695068.899 4  23234705.009    23234702.500
 -15183828.32744 -11831540.72044  22700181.2214   22700184.3004
 95  2 28 19 31 30.0000000  0  8G19G18G29G16G 2G31G28G27
 -17289965.62744 -13472695.00344  20726685.1554   20726686.9204
 -11954112.26744  -9314896.16444  20132693.8144   20132695.4044
   3041597.64044   2370066.35244  21389918.8334   21389920.7674
   -302849.03544   -235986.18544  24991079.2504
  -4265649.06844  -3323871.49544  24255901.2434   24255910.6754
 -15560877.38044 -12125329.98744  22291901.1194   22291904.4444
 -11150679.902 4  -8688827.249 4  23236229.482    23236226.613
 -15250060.76544 -11883150.36544  22687577.8274   22687581.2034
 95  2 28 19 32  0.0000000  0  8G19G18G29G16G 2G31G28G27
 -17308048.98044 -13486785.94044  20723244.0854   20723245.8244
 -11942592.19144  -9305919.51144  20134886.0114   20134887.5894
   3103320.53844   2418162.02644  21401664.3194   21401666.5984
   -377653.70644   -294275.53844  24976844.6844
  -4357013.78744  -3395064.61444  24238514.8854   24238525.3104
 -15614648.12444 -12167229.20744  22281668.6264   22281671.8944
 -11142128.586 4  -8682163.875 4  23237857.069    23237853.637
 -15316194.72344 -11934683.28544  22674992.7324   22674996.1974
 95  2 28 19 32 30.0000000  0  8G19G18G29G16G 2G31G28G27
 -17325939.43844 -13500726.56944  20719839.6964   20719841.6304
 -11930618.68944  -9296589.54544  20137164.5554   20137166.2134
   3165468.68044   2466589.05544  21413490.7674   21413492.7524
   -452056.97644   -352252.21644  24962686.1754
  -4448199.70944  -3466118.43244  24221162.6434   24221174.0614
 -15667914.43944 -12208735.36144  22271532.7334   22271536.0804
 -11133023.323 4  -8675068.866 4  23239589.957    23239586.624
 -15382221.26344 -11986132.49344  22662428.5144   22662431.8554
 95  2 28 19 33  0.0000000  0  8G19G18G29G16G 2G31G28G27
 -17343671.87044 -13514544.05844  20716465.3054   20716467.1244
 -11918227.96444  -9286934.47344  20139522.4654   20139523.9474
   3228002.21144   2515316.39044  21425390.6454   21425392.7024
   -526081.76844   -409933.89144  24948599.8834
  -4539241.54444  -3537059.95244  24203837.4514   24203846.3864
 -15720712.00244 -12249876.26144  22261485.2144   22261488.3054
 -11123397.333 4  -8667568.097 4  23241421.692    23241418.275
 -15448181.05844 -12037529.67944  22649876.6514   22649879.8544
 95  2 28 19 33 30.0000000  0  8G19G18G29G16G 2G31G28G27
 -17361232.75244 -13528227.87444  20713123.6634   20713125.4184
 -11905398.63344  -9276937.62344  20141963.9224   20141965.2444
   3290920.56744   2564343.58544  21437363.3014   21437365.4774
   -599721.48044   -467315.59544  24934586.4514   24934588.9714
  -4630138.10344  -3607888.29644  24186540.4044   24186548.8434
 -15773055.87344 -12290663.62844  22251524.2984   22251527.8934
 -11113248.237 4  -8659659.716 4  23243352.561    23243349.801
 -15514086.06544 -12088884.19044  22637335.1324   22637338.2114
 95  2 28 19 34  0.0000000  0  8G19G18G29G16G 2G31G28G27
 -17378576.68344 -13541742.63744  20709823.2364   20709825.0084
 -11892062.33144  -9266545.72944  20144501.7874   20144503.1984
   3354260.64344   2613699.39244  21449416.8694   21449419.2164
   -672938.23844   -524367.67044  24920654.2314   24920657.4214
  -4720846.00144  -3678569.63044  24169279.5024   24169288.4374
 -15824918.69444 -12331076.15844  22241655.5554   22241659.0134
 -11102534.512 4  -8651311.368 4  23245391.199    23245388.664
 -15579888.38544 -12140158.68844  22624813.7874   22624816.7814
 95  2 28 19 34 30.0000000  0  8G19G18G29G16G 2G31G28G27
 -17395712.53844 -13555095.26244  20706562.3954   20706564.1824
 -11878202.11044  -9255745.58544  20147139.2724   20147140.8094
   3418015.29344   2663378.24544  21461549.0144   21461551.2644
   -745746.17444                  24906799.7134
  -4811359.69044  -3749099.61744  24152055.2974   24152065.4744
 -15876324.11444 -12371132.27344  22231873.0434   22231876.5884
 -11091262.295 4  -8642527.842 4  23247536.156    23247533.979
 -15645602.31444 -12191364.30144  22612309.3074   22612312.0784
 95  2 28 19 35  0.0000000  0  8G19G18G29G16G 2G31G28G27
 -17412650.55344 -13568293.72744  20703339.0564   20703340.9784
 -11863797.69344  -9244521.39144  20149880.3294   20149881.7604
   3482176.10744   2713373.58944  21473758.4084   21473760.6144
   -818162.95744   -637529.93244  24893019.1854
  -4901677.51244  -3819477.00444  24134867.9604   24134876.6484
 -15927289.63444 -12410845.61144  22222174.9424   22222178.3644
 -11079429.433 4  -8633307.461 4  23249787.650    23249785.720
 -15711222.77244 -12242497.08444  22599821.8784   22599824.5974
 95  2 28 19 35 30.0000000  0  8G19G18G29G16G 2G31G28G27
 -17429417.18144 -13581358.64544  20700148.4854   20700150.0914
 -11848871.84144  -9232890.88844  20152720.5624   20152722.0994
   3546706.12744   2763656.62244  21486038.3024   21486040.3034
   -890234.77744   -693689.89444  24879304.0814
  -4991825.91844  -3889722.37144  24117712.7334   24117723.6544
 -15977842.04344 -12450237.03944  22212555.1734   22212558.4064
 -11067068.397 4  -8623675.506 4  23252139.839    23252137.850
 -15776780.35644 -12293580.87444  22587346.7034   22587349.9294
 95  2 28 19 36  0.0000000  0  8G19G18G29G16G 2G31G28G27
 -17446035.35944 -13594307.88844  20696986.2964   20696987.6864
 -11833442.69844  -9220868.21244  20155656.7284   20155658.2414
   3611584.19244   2814210.85944  21498384.2214   21498386.5734
   -961960.94044   -749580.48744  24865654.6174   24865657.6894
  -5081811.81944  -3959841.09744  24100589.2004   24100598.6324
 -16027969.19644 -12489297.10644  22203015.9654   22203019.5054
 -11054183.220 4  -8613635.122 4  23254591.951    23254589.814
 -15842272.24044 -12344613.46344  22574883.6974   22574886.8914
 95  2 28 19 36 30.0000000  0  8G19G18G29G16G 2G31G28G27
 -17462484.61144 -13607125.49944  20693856.2274   20693858.0434
 -11817494.46844  -9208441.05244  20158691.8244   20158693.1254
   3676828.19344   2865050.24244  21510799.6824   21510802.0654
  -1033306.05944   -805174.11144  24852078.2734   24852081.7134
  -5171603.92244  -4029808.82044  24083501.9104   24083512.5834
 -16077623.21944 -12527988.49444  22193567.0394   22193570.3224
 -11040746.458 4  -8603164.934 4  23257149.398    23257146.040
 -15907671.69244 -12395574.02444  22562438.8204   22562441.8734
 95  2 28 19 37  0.0000000  0  8G19G18G29G16G 2G31G28G27
 -17478756.71844 -13619805.07144  20690759.4224   20690761.4634
 -11801029.72844  -9195611.41744  20161824.9444   20161826.1364
   3742439.54844   2916175.87444  21523285.3984   21523287.4744
  -1104252.15544   -860456.85744  24838578.0134
  -5261205.70544  -4099628.24644  24066451.2144   24066461.8874
 -16126775.44644 -12566288.87144  22184213.7824   22184217.3974
 -11026753.738 4  -8592261.537 4  23259812.343    23259808.592
 -15972969.20044 -12446455.15144  22550013.2064   22550015.9774
 95  2 28 19 37 30.0000000  0  8G19G18G29G16G 2G31G28G27
 -17494848.31944 -13632343.98644  20687697.3874   20687699.2384
 -11784079.41544  -9182403.41244  20165050.6034   20165051.7354
   3808407.12444   2967579.07444  21535838.8564   21535841.0544
  -1174783.95444   -915416.78044  24825156.3094   24825160.1594
  -5350639.42344  -4169316.71344  24049432.7984   24049441.4854
 -16175429.39344 -12604200.99144  22174955.3554   22174958.3434
 -11012219.068 4  -8580935.838 4  23262577.876    23262574.501
 -16038182.50744 -12497270.67644  22537603.3974   22537606.2584
 95  2 28 19 38  0.0000000  0  8G19G18G29G16G 2G31G28G27
 -17510763.56044 -13644745.48144  20684669.0274   20684670.6674
 -11766652.53844  -9168824.06244  20168366.6724   20168367.9944
   3874734.60144   3019262.71344  21548460.3104   21548462.9394
  -1244876.48144   -970034.33944  24811817.8114   24811817.5614
  -5439912.25344  -4238879.79744  24032444.6724   24032453.3594
 -16223590.85144 -12641729.34744  22165790.5014   22165793.6124
 -10997140.235 4  -8569186.112 4  23265447.211    23265444.264
 -16103303.49944 -12548014.26044  22525211.0044   22525214.0984
 95  2 28 19 38 30.0000000  0  8G19G18G29G16G 2G31G28G27
 -17526449.93844 -13656968.64344  20681683.9064   20681685.3804
 -11748720.30044  -9154850.92544  20171778.8094   20171780.3944
   3941463.25244   3071258.96244  21561158.6754   21561161.2114
  -1314507.08144  -1024292.05044  24798567.3614   24798568.6054
  -5528991.19644  -4308291.81144  24015492.8254   24015501.2644
 -16271242.28044 -12678860.27144  22156722.3234   22156725.3834
 -10981489.588 4  -8556990.802 4  23268425.305    23268422.630
 -16168303.95444 -12598663.91644  22512841.5784   22512844.7384
 95  2 28 19 39  0.0000000  0  8G19G18G29G16G 2G31G28G27
 -17541965.29544 -13669058.54244  20678731.5014   20678733.1424
 -11730362.16644  -9140545.91944  20175272.2864   20175273.9624
   4008528.12044   3123517.19044  21573920.6524   21573922.9014
  -1383755.89444  -1078252.20244  24785388.5244   24785390.9444
  -5617951.72944  -4377611.56144  23998564.3194   23998573.2554
 -16318465.44344 -12715657.49044  22147735.9274   22147739.4084
 -10965334.777 4  -8544402.645 4  23271499.449    23271497.018
 -16233254.91944 -12649275.00944  22500481.9574   22500485.2424
 95  2 28 19 39 30.0000000  0  8G19G18G29G16G 2G31G28G27
 -17557300.79444 -13681008.29344  20675813.1254   20675815.0054
 -11711574.29744  -9125906.06044  20178847.5874   20178849.1504
   4075943.40144   3176048.47244  21586749.2134   21586751.6124
  -1452626.69344  -1131917.79944  24772283.6014   24772287.7044
  -5706786.40544  -4446833.22044  23981659.9864   23981668.4254
 -16365268.89444 -12752127.66344  22138829.8184   22138832.9914
 -10948668.806 4  -8531416.184 4  23274670.812    23274668.637
 -16298154.13644 -12699845.77144  22488132.0184   22488135.2164
 95  2 28 19 40  0.0000000  0  8G19G18G29G16G 2G31G28G27
 -17572407.90644 -13692780.07944  20672938.1784   20672940.2444
 -11692292.35544  -9110881.20444  20182516.9104   20182518.5154
   4143777.06244   3228905.75644  21599657.8114   21599660.2964
  -1521085.26244  -1185262.17244  24759257.1424   24759260.9814
  -5795422.64544  -4515900.28244  23964792.9404   23964800.0904
 -16411586.14044 -12788218.98244  22130015.4164   22130018.6404
 -10931428.920 4  -8517982.526 4  23277951.544    23277948.951
 -16362940.99344 -12750328.98644  22475803.4954   22475807.2744
 95  2 28 19 40 30.0000000  0  8G19G18G29G16G 2G31G28G27
 -17587319.81544 -13704399.75944  20670100.4944   20670102.7374
 -11672541.86044  -9095491.24544  20186275.4424   20186276.9524
   4212003.26444   3282068.91444  21612641.0044   21612643.4004
  -1589179.09944  -1238322.33844  24746299.0064   24746301.2924
  -5883878.16744  -4584826.52744  23947960.3314   23947969.2674
 -16457425.29344 -12823937.76344  22121292.6514   22121295.7594
 -10913643.284 4  -8504123.600 4  23281336.331    23281333.395
 -16427656.25244 -12800756.41144  22463488.4994   22463491.5164
 95  2 28 19 41  0.0000000  0  8G19G18G29G16G 2G31G28G27
 -17602046.44844 -13715875.07144  20667298.3064   20667300.2914
 -11652302.45244  -9079720.31244  20190126.9444   20190128.5124
   4280628.30644   3335542.85944  21625699.9114   21625702.1514
  -1656882.30544  -1291078.16244  24733415.2654   24733419.3264
  -5972134.75744  -4653597.76644  23931165.3734   23931174.3084
 -16502757.91544 -12859261.83644  22112665.9464   22112669.0314
 -10895298.102 4  -8489828.658 4  23284827.467    23284824.457
 -16492275.45844 -12851108.98944  22451191.9624   22451194.6734
 95  2 28 19 41 30.0000000  0  8G19G18G29G16G 2G31G28G27
 -17616582.02744 -13727201.51344  20664532.4364   20664534.2114
 -11631538.63944  -9063540.75344  20194078.1084   20194079.6704
   4349664.78644   3389337.40544  21638837.2324   21638840.2644
  -1724172.02644  -1343511.74044  24720611.0524   24720615.8884
  -6060164.52744  -4722192.27044  23914413.5664   23914421.7574
 -16547553.97544 -12894167.81244  22104141.5594   22104144.9314
 -10876382.602 4  -8475089.310 4  23288426.962    23288424.231
 -16556792.28644 -12901381.79944  22438914.7924   22438918.0044
 95  2 28 19 42  0.0000000  0  8G19G18G29G16G 2G31G28G27
 -17630955.07444 -13738401.30944  20661797.5024   20661799.2364
 -11610263.05644  -9046962.41244  20198126.6234   20198128.4144
   4419079.14844   3443426.39944  21652046.2164   21652049.1454
  -1791054.83544  -1395628.25444  24707883.4824   24707887.5134
  -6147984.10844  -4790622.99744  23897702.1334   23897710.8214
 -16591822.10244 -12928662.42044  22095717.9004   22095721.0664
 -10856918.451 4  -8459922.432 4  23292130.455    23292128.115
 -16621217.45144 -12951583.18844  22426655.1834   22426657.6024
 95  2 28 19 42 30.0000000  0  8G19G18G29G16G 2G31G28G27
 -17645143.71844 -13749457.41344  20659097.1544   20659099.2494
 -11588448.96244  -9029964.45544  20202277.8864   20202279.4124
   4488863.06944   3497803.36044  21665325.7314   21665328.8884
  -1857506.09844  -1447408.52744  24695238.5974   24695243.5184
  -6235585.56044  -4858883.75544  23881032.0624   23881041.7424
 -16635557.54344 -12962741.94644  22087394.9604   22087398.6664
 -10836898.959 4  -8444322.820 4  23295940.060    23295937.557
 -16685539.43344 -13001704.16644  22414414.8094   22414417.0394
 95  2 28 19 43  0.0000000  0  8G19G18G29G16G 2G31G28G27
 -17659150.09044 -13760371.48544  20656431.8414   20656433.8214
 -11566104.85444  -9012553.50044  20206529.8824   20206531.3684
   4558985.61044   3552444.18344  21678669.9514   21678672.7744
  -1923538.35144  -1498862.29344  24682672.8184   24682676.0494
  -6322991.67844  -4926992.28144  23864398.4344   23864406.8744
 -16678797.89644 -12996435.68544  22079166.9834   22079170.5734
 -10816346.757 4  -8428308.106 4  23299851.315    23299848.399
 -16749773.84244 -13051756.90244  22402191.5734   22402194.6034
 95  2 28 19 43 30.0000000  0  8G19G18G29G16G 2G31G28G27
 -17672977.24844 -13771145.91344  20653800.7714   20653802.4134
 -11543253.87144  -8994747.57744  20210878.3694   20210879.9884
   4629432.67244   3607337.87844  21692075.5454   21692078.4984
  -1989179.26344  -1550011.13044  24670181.7064   24670185.2394
  -6410228.86344  -4994969.19344  23847797.9104   23847807.8394
 -16721577.82744 -13029770.66344  22071025.8754   22071029.4014
 -10795280.107 4  -8411892.526 4  23303860.307    23303856.849
 -16813955.61944 -13101768.63844  22389978.0604   22389980.4844
 95  2 28 19 44  0.0000000  0  8G19G18G29G16G 2G31G28G27
 -17686596.88944 -13781758.64144  20651209.1334   20651210.8834
 -11519881.76344  -8976535.58344  20215325.7524   20215327.4724
   4700235.30344   3662508.63444  21705548.8944   21705551.8854
  -2054409.37344  -1600839.85844  24657769.2194   24657772.3364
  -6497283.14844  -5062803.58044  23831232.1424   23831239.2044
 -16763882.68944 -13062735.46044  22062975.5834   22062979.1914
 -10773673.348 4  -8395056.085 4  23307971.662    23307968.374
 -16878046.49744 -13151709.54344  22377781.7744   22377784.7794
 95  2 28 19 44 30.0000000  0  8G19G18G29G16G 2G31G28G27
 -17699951.12644 -13792164.55644  20648667.9154   20648669.5334
 -11495938.87844  -8957878.82844  20219881.9544   20219883.7844
   4771450.92944   3718001.21044  21719100.8194   21719103.9754
  -2119197.32644  -1651324.07844  24645439.9514   24645446.9264
  -6584100.66044  -5130453.44744  23814711.5984   23814720.2854
 -16805663.08744 -13095291.58144  22055025.0864   22055028.6034
 -10751476.320 4  -8377759.694 4  23312195.496    23312192.804
 -16942001.63044 -13201544.66644  22365611.5364   22365614.5084
 95  2 28 19 45  0.0000000  0  8G19G18G29G16G 2G31G28G27
 -17713063.41744 -13802381.94844  20646172.8374   20646174.7214
 -11471463.94344  -8938807.49244  20224539.4424   20224541.2464
   4843077.90344   3773814.31944  21732731.2414   21732734.2844
  -2183550.39244  -1701469.44244  24633194.2504   24633198.5274
  -6670698.46244  -5197932.12044  23798232.3764   23798241.8084
 -16846930.77144 -13127448.18944  22047172.2094   22047175.3734
 -10728705.805 4  -8360016.417 4  23316528.968    23316526.242
 -17005825.46844 -13251277.48344  22353465.9854   22353469.7984
 95  2 28 19 45 30.0000000  0  8G19G18G29G16G 2G31G28G27
 -17725982.33444 -13812448.65844  20643714.2274   20643716.3184
 -11446507.07344  -8919360.62044  20229288.4694   20229290.2374
   4915098.58344   3829934.20744  21746436.3674   21746439.2644
  -2247491.83944  -1751294.91444  24621026.8804   24621031.1264
  -6757101.52744  -5265259.05344  23781790.1384   23781797.4514
 -16887703.54844 -13159219.15644  22039413.2784   22039416.2854
 -10705388.512 4  -8341847.077 4  23320966.150    23320963.179
 -17069538.92344 -13300924.28744  22341341.9514   22341345.2924
 95  2 28 19 46  0.0000000  0  8G19G18G29G16G 2G31G28G27
 -17738723.10744 -13822376.55744  20641289.7174   20641291.4174
 -11421078.89944  -8899546.49944  20234127.5934   20234129.3274
   4987498.53844   3886349.63144  21760213.8694   21760216.8644
  -2311027.15944                  24608937.0284
  -6843308.53644  -5332433.19744  23765385.1724   23765393.8594
 -16927972.36444 -13190597.42644  22031750.2054   22031753.9094
 -10681534.800 4  -8323259.753 4  23325505.463    23325502.218
 -17133144.80744 -13350487.27244  22329238.2564   22329241.5784
 95  2 28 19 46 30.0000000  0  8G19G18G29G16G 2G31G28G27
 -17751281.31444 -13832162.19444  20638900.0714   20638902.0184
 -11395168.25344  -8879356.42644  20239058.1584   20239059.8984
   5060283.81444   3943065.30744  21774064.4634   21774067.5464
  -2374121.60444  -1849966.61944  24596930.3654   24596932.4084
  -6929295.85644  -5399436.16744  23749022.6234   23749030.1794
 -16967717.37044 -13221567.52344  22024186.8934   22024190.1484
 -10657129.536 4  -8304242.648 4  23330149.275    23330146.421
 -17196629.22444 -13399955.61144  22317157.6134   22317160.8614
 95  2 28 19 47  0.0000000  0  8G19G18G29G16G 2G31G28G27
 -17763668.41644 -13841814.50144  20636542.8384   20636544.8374
 -11368782.69144  -8858796.28644  20244079.0284   20244080.7444
   5133453.27544   4000080.34944  21787988.1234   21787991.1394
  -2436750.34544  -1898768.36244  24585012.5094   24585018.4124
  -7015059.28644  -5466264.66144  23732702.4234   23732710.2134
 -17006921.31144 -13252116.02744  22016726.7874   22016729.9824
 -10632173.608 4  -8284796.459 4  23334898.023    23334895.447
 -17259995.30944 -13449331.74144  22305099.4884   22305102.7074
 95  2 28 19 47 30.0000000  0  8G19G18G29G16G 2G31G28G27
 -17775889.36344 -13851337.33344  20634217.2844   20634219.1044
 -11341910.88944  -8837857.26044  20249192.7334   20249194.5664
   5206990.08844   4057381.64344  21801982.0294   21801985.0884
  -2498929.73944  -1947219.93544  24573180.4564   24573186.1374
  -7100611.22244  -5532928.36644  23716421.8554   23716429.0144
 -17045589.79344 -13282247.29044  22009368.6754   22009371.8624
 -10606676.393 4  -8264928.482 4  23339750.021    23339747.423
 -17323272.78544 -13498638.83644  22293057.7554   22293060.9344
 95  2 28 19 48  0.0000000  0  8G19G18G29G16G 2G31G28G27
 -17787930.92444 -13860720.38544  20631925.9504   20631927.8334
 -11314538.63844  -8816528.27444  20254401.5524   20254403.1864
   5280877.04844   4114955.77944  21816042.3574   21816045.3864
  -2560666.43144  -1995326.54944  24561432.2724   24561435.4434
  -7185963.11544  -5599436.17744  23700179.5004   23700187.6914
 -17083724.88544 -13311962.92444  22002111.4754   22002114.6814
 -10580647.105 4  -8244645.901 4  23344703.512    23344700.600
 -17386466.33744 -13547880.52444  22281032.4394   22281035.6374
 95  2 28 19 48 30.0000000  0  8G19G18G29G16G 2G31G28G27
 -17799789.13844 -13869960.57144  20629669.4214   20629671.2434
 -11286654.99044  -8794800.79944  20259707.7664   20259709.3884
   5355108.62144   4172798.44044  21830167.9274   21830171.1364
  -2621958.68144  -2043086.84844  24549768.9074   24549772.2724
  -7271118.33344  -5665790.74044  23683975.2854   23683982.6824
 -17121324.10444 -13341260.99444  21994956.6744   21994960.0384
 -10554085.738 4  -8223948.726 4  23349757.747    23349754.634
 -17449577.34544 -13597057.89544  22269023.1844   22269026.0294
 95  2 28 19 49  0.0000000  0  8G19G18G29G16G 2G31G28G27
 -17811445.87344 -13879043.75944  20627451.0114   20627453.0034
 -11258251.59844  -8772668.32744  20265112.8774   20265114.4254
   5429683.61444   4230908.69944  21844359.3434   21844362.4374
  -2682819.78544  -2090511.15744  24538187.4484   24538194.1554
  -7356088.82744  -5732001.36844  23667805.9054   23667814.5924
 -17158391.58944 -13370144.72544  21987903.0664   21987906.4124
 -10526994.344 4  -8202838.539 4  23354912.983    23354910.057
 -17512609.26344 -13646173.64744  22257028.2814   22257030.4384
 95  2 28 19 49 30.0000000  0  8G19G18G29G16G 2G31G28G27
 -17822877.87944 -13887951.83044  20625275.7784   20625277.7404
 -11229317.76344  -8750122.52744  20270618.7104   20270620.3964
   5504608.14144   4289291.32344  21858617.1494   21858620.3304
  -2743257.00444  -2137605.21644  24526687.1354   24526689.8824
  -7440874.13944  -5798067.70344  23651671.4164   23651679.8554
 -17194933.90444 -13398619.23444  21980948.9504   21980952.0434
 -10499362.816 4  -8181307.464 4  23360171.067    23360167.865
 -17575544.98644 -13695214.43944  22245052.0484   22245055.2434
 95  2 28 19 50  0.0000000  0  8G19G18G29G16G 2G31G28G27
 -17834090.67744 -13896689.09244  20623142.1174   20623143.9884
 -11199854.30744  -8727164.03744  20276225.3644   20276227.3044
   5579898.20844   4347958.78944  21872944.4004   21872947.5064
  -2803260.64144  -2184361.34744  24515267.8494   24515272.7124
  -7525454.22444  -5863974.11544  23635576.0594   23635584.4994
 -17230930.17144 -13426668.24744  21974099.5274   21974102.3264
 -10471183.362 4  -8159349.417 4  23365533.310    23365530.799
 -17638368.33744 -13744167.65944  22233097.0164   22233100.0634
 95  2 28 19 50 30.0000000  0  8G19G18G29G16G 2G31G28G27
 -17845110.94544 -13905276.32744  20621044.8254   20621046.8194
 -11169878.76044  -8703806.51644  20281929.5644   20281931.4124
   5655549.58844   4406907.79144  21887340.5594   21887343.7004
  -2862833.67744  -2230781.92944  24503931.4494
  -7609834.26244  -5929724.65044  23619519.4684   23619526.7714
 -17266393.93944 -13454302.32544  21967350.8584   21967353.9744
 -10442466.456 4  -8136972.596 4  23370997.555    23370995.732
 -17701100.39144 -13793049.74844  22221159.6404   22221162.2004
 95  2 28 19 51  0.0000000  0  8G19G18G29G16G 2G31G28G27
 -17855937.64644 -13913712.73244  20618984.4744   20618986.5554
 -11139403.25444  -8680059.41844  20287728.8694   20287730.6664
   5731579.32944   4466151.62444  21901808.3254   21901811.5334
  -2921964.20344  -2276857.77644  24492679.2164
  -7694013.76944  -5995318.93544  23603500.4444   23603508.6354
 -17301325.85344 -13481521.97244  21960703.4394   21960706.5754
 -10413210.970 4  -8114176.099 4  23376564.629    23376562.650
 -17763744.37444 -13841863.19844  22209238.6654   22209241.8724
 95  2 28 19 51 30.0000000  0  8G19G18G29G16G 2G31G28G27
 -17866559.01144 -13921989.13444  20616963.4824   20616965.4944
 -11108402.04844  -8655902.68344  20293628.3784   20293630.2034
   5808018.07044   4525714.15544  21916354.0634   21916357.2094
  -2980619.62344  -2322563.36644  24481517.8034
  -7777946.94344  -6060721.26644  23587528.4404   23587535.4974
 -17335690.89244 -13508299.88444  21954163.8504   21954167.0754
 -10383387.860 4  -8090937.302 4  23382240.167    23382237.897
 -17826273.66644 -13890587.29744  22197339.7304   22197342.9274
 95  2 28 19 52  0.0000000  0  8G19G18G29G16G 2G31G28G27
 -17876923.92744 -13930065.70844  20614991.1274   20614993.3534
 -11076818.66244  -8631292.30044  20299638.3754   20299640.3684
   5884912.38744   4585631.68844  21930986.7634   21930989.8704
  -3038737.24444  -2367849.96444  24470458.0144
  -7861578.92144  -6125888.90944  23571613.5754   23571622.2624
 -17369441.03444 -13534598.65944  21947741.2884   21947744.7224
 -10352945.154 4  -8067215.706 4  23388033.131    23388031.021
 -17888646.92844 -13939189.80444  22185470.6204   22185473.4974
 95  2 28 19 52 30.0000000  0  8G19G18G29G16G 2G31G28G27
 -17887164.71444 -13938045.55444  20613042.2264   20613044.4194
 -11044808.25744  -8606349.17444  20305729.9514   20305731.6334
   5962102.58244   4645779.76444  21945675.7594   21945679.1004
  -3096458.50944                  24459473.4404
  -7945061.51044  -6190940.13644  23555727.4624   23555734.4664
 -17402742.94344 -13560548.16144  21941404.3664   21941407.4894
 -10322026.548 4  -8043123.280 4  23393916.856    23393914.180
 -17951001.40644 -13987777.67544  22173604.8594   22173607.7324
 95  2 28 19 53  0.0000000  0  8G19G18G29G16G 2G31G28G27
 -17897223.50844 -13945883.59244  20611128.2254   20611130.3004
 -11012323.34944  -8581036.30344  20311911.5894   20311913.5154
   6039632.23644   4706192.35244  21960429.2444   21960432.6274
  -3153732.45244  -2457456.74944  24448575.3914
  -8028328.74144  -6255823.54644  23539882.2414   23539889.3924
 -17435531.47644 -13586097.64344  21935164.8974   21935168.0894
 -10290575.205 4  -8018615.753 4  23399902.057    23399898.712
 -18013261.49844 -14036291.99644  22161757.3674   22161760.2004
 95  2 28 19 53 30.0000000  0  8G19G18G29G16G 2G31G28G27
 -17907024.11444 -13953520.44044  20609263.0924   20609265.3674
 -10979282.00444  -8555289.84144  20318199.1484   20318201.1584
   6117560.49044   4766915.53944  21975258.4744   21975261.6834
  -3210480.68944                  24437777.1214
  -8111285.24744  -6320464.83244  23524096.0474   23524102.5694
 -17467720.81044 -13611180.21044  21929039.0144   21929042.3084
 -10258508.371 4  -7993628.606 4  23406004.092    23406001.166
 -18075337.39344 -14084662.79744  22149944.5134   22149946.9574
 95  2 28 19 54  0.0000000  0  8G19G18G29G16G 2G31G28G27
 -17916667.02944 -13961034.41044  20607428.2014   20607430.2704
 -10945794.88944  -8529196.03044  20324571.5254   20324573.4414
   6195778.22544   4827864.28044  21990143.0794   21990146.2944
  -3266804.96944  -2545565.34644  24427059.0054   24427062.1854
  -8194038.15744  -6384947.47244  23508348.1374   23508355.4854
 -17499418.76644 -13635879.89244  21923007.5764   21923010.7904
 -10225934.656 4  -7968246.482 4  23412202.864    23412199.260
 -18137332.36244 -14132970.53544  22138147.0634   22138150.2024
 95  2 28 19 54 30.0000000  0  8G19G18G29G16G 2G31G28G27
 -17926188.93244 -13968454.08644  20605616.3794   20605618.3754
 -10911890.01144  -8502776.68744  20331023.3424   20331025.2284
   6274259.49744   4889018.38044  22005077.6864   22005081.0874
  -3322724.20644  -2589138.88644  24416417.7184   24416424.0904
  -8276597.18744  -6449279.04644  23492637.6294   23492644.7064
 -17530633.88944 -13660203.34544  21917067.3994   21917070.5354
 -10192885.667 4  -7942494.030 4  23418491.741    23418488.618
 -18199271.23844 -14181234.55944  22126360.4184   22126363.4724
 95  2 28 19 55  0.0000000  0  8G19G18G29G16G 2G31G28G27
 -17935560.58844 -13975756.68744  20603833.1814   20603835.1374
 -10877523.16044  -8475997.36244  20337563.3364   20337565.2564
   6353039.30144   4950405.09144  22020069.0154   22020072.5624
  -3378206.90644  -2632372.23244  24405860.1524   24405864.6514
  -8358922.56744  -6513428.54244  23476971.8204   23476979.2054
 -17561306.91944 -13684104.38844  21911230.5034   21911233.7144
 -10159329.899 4  -7916346.685 4  23424877.140    23424873.743
 -18261142.43444 -14229445.85544  22114587.0654   22114589.8084
 95  2 28 19 55 30.0000000  0  8G19G18G29G16G 2G31G28G27
 -17944680.65644 -13982863.25044  20602097.5794   20602099.5774
 -10842595.79844  -8448781.27644  20344209.9224   20344211.8184
   6432223.75744   5012107.11744  22035137.4504   22035140.6724
  -3433157.90844  -2675191.25844  24395403.3174   24395406.6894
  -8440942.99244  -6577340.41744  23461363.8784   23461370.4454
 -17591353.90544 -13707517.60944  21905512.6124   21905515.7454
 -10125180.565 4  -7889736.831 4  23431375.209    23431372.387
 -18322879.18944 -14277552.38944  22102838.6644   22102841.2364
 95  2 28 19 56  0.0000000  0  8G19G18G29G16G 2G31G28G27
 -17953728.94044 -13989913.87444  20600375.4264   20600377.6844
 -10807295.17744  -8421274.34244  20350927.1294   20350929.1864
   6511635.41744   5073986.19344  22050249.1864   22050252.3834
  -3487764.66544  -2717742.06244  24385011.7924   24385016.2134
  -8522864.38744  -6641175.12044  23445774.3144   23445781.6584
 -17620967.20744 -13730592.89344  21899877.7364   21899880.3494
 -10090629.811 4  -7862814.174 4  23437949.793    23437947.577
 -18384672.24644 -14325702.79244  22091079.8364   22091082.6064
 95  2 28 19 56 30.0000000  0  8G19G18G29G16G 2G31G28G27
 -17962634.99044 -13996853.66644  20598680.6624   20598682.8154
 -10771552.65044  -8393423.06344  20357728.7744   20357730.8514
   6591342.44144   5136095.41744  22065416.9484   22065420.7034
  -3541961.98044  -2759973.81944  24374698.7904   24374704.8764
  -8604628.56144  -6704887.32844  23430215.1214   23430221.6684
 -17650061.86844 -13753264.04544  21894340.9564   21894344.0764
 -10055607.292 4  -7835523.915 4  23444614.508    23444612.098
 -18446449.22844 -14373840.67644  22079324.3284   22079327.0964
 95  2 28 19 57  0.0000000  0  8G19G18G29G16G 2G31G28G27
 -17971170.46744 -14003504.70244  20597056.6444   20597058.6134
 -10735149.37444  -8365056.91744  20364656.2084   20364658.2234
   6671564.36444   5198605.85544  22080682.7174   22080686.5734
  -3595534.55244  -2801718.76044  24364504.3454   24364509.6494
  -8686037.29544  -6768322.57444  23414723.3904   23414731.0294
 -17678423.45444 -13775363.96544  21888943.8824   21888946.8464
 -10019892.048 4  -7807693.873 4  23451410.867    23451408.584
 -18507968.04644 -14421777.39744  22067617.2244   22067619.7964
 95  2 28 19 57 30.0000000  0  8G19G18G29G16G 2G31G28G27
 -17979481.13944 -14009980.56644  20595475.2814   20595477.2494
 -10698232.71344  -8336290.72844  20371681.1724   20371683.1704
   6752156.55244   5261404.81444  22096019.3514   22096022.7264
  -3648628.92044  -2843091.06544  24354400.3734   24354405.1644
  -8767241.21044  -6831598.21344  23399270.5524   23399277.8274
 -17706213.34144 -13797018.40844  21883655.3464   21883658.3994
  -9983632.032 4  -7779439.339 4  23458311.004    23458308.702
 -18569347.57544 -14469605.57444  22055937.2374   22055939.9324
 95  2 28 19 58  0.0000000  0  8G19G18G29G16G 2G31G28G27
 -17987669.79744 -14016361.35444  20593916.9194   20593918.8564
 -10660895.11644  -8307196.53944  20378786.2644   20378788.5564
   6833002.42344   5324401.45444  22111403.5924   22111407.1504
  -3701344.45444  -2884168.21844  24344369.6634   24344375.0504
  -8848316.12544  -6894773.33944  23383842.3704   23383850.8104
 -17733516.77544 -13818293.80844  21878459.5984   21878462.7874
  -9946920.238 4  -7750832.772 4  23465297.363    23465294.861
 -18630666.96944 -14517386.89744  22044268.3534   22044270.8344
 95  2 28 19 58 30.0000000  0  8G19G18G29G16G 2G31G28G27
 -17995734.00144 -14022645.16544  20592382.3994   20592384.5544
 -10623123.91844  -8277764.48144  20385973.9894   20385976.0434
   6914105.04344   5387598.14144  22126837.0724   22126840.4414
  -3753674.15744  -2924944.68044  24334411.7844   24334418.2604
  -8929238.22944  -6957829.38944  23368443.5944   23368450.1684
 -17760316.49144 -13839176.69944  21873359.9374   21873363.0514
  -9909751.457 4  -7721870.108 4  23472370.447    23472367.613
 -18691916.98144 -14565114.14744  22032612.7184   22032615.3084
 95  2 28 19 59  0.0000000  0  8G19G18G29G16G 2G31G28G27
 -18003663.45144 -14028823.97544  20590873.6244   20590875.6394
 -10584895.42144  -8247976.08744  20393248.7084   20393250.8704
   6995482.06444   5451008.65244  22142323.0944   22142326.9574
  -3805602.16644  -2965408.17644  24324530.1254   24324536.0794
  -9009988.74744  -7020751.75244  23353077.4934   23353084.1754
 -17786608.57044 -13859664.02644  21868356.6774   21868359.7894
  -9872112.700 4  -7692541.234 4  23479532.950    23479529.820
 -18753089.53644 -14612781.04944  22020971.8044   22020974.9814
 95  2 28 19 59 30.0000000  0  8G19G18G29G16G 2G31G28G27
 -18011264.91644 -14034747.21244  20589427.1114   20589429.0004
 -10546013.05644  -8217678.18444  20400647.8264   20400649.9394
   7077329.65644   5514785.83844  22157898.1794   22157901.8294
  -3856927.62044  -3005402.11144  24314763.2854   24314769.1194
  -9090369.38744  -7083385.89144  23337781.2504   23337788.0204
 -17812203.36344 -13879608.00144  21863485.8694   21863489.0024
  -9833810.737 4  -7662695.582 4  23486821.461    23486818.163
 -18814018.88644 -14660258.43844  22009377.6484   22009380.3644
 95  2 28 20  0  0.0000000  0  8G19G18G29G16G 2G31G28G27
 -18018650.50644 -14040502.23344  20588021.3304   20588023.6094
 -10506589.57244  -8186958.63444  20408149.8094   20408151.8974
   7159539.10544   5578844.98844  22173541.8514   22173545.9224
  -3907749.20744  -3045003.43944  24305092.0764   24305096.8354
  -9170494.98644  -7145821.31344  23322533.8894   23322540.3464
 -17837208.91144 -13899092.83144  21858727.7494   21858730.9364
  -9794961.825 4  -7632423.719 4  23494214.131    23494211.342
 -18874831.52944 -14707644.88844  21997805.4584   21997808.0394
 95  2 28 20  0 30.0000000  0  8G19G18G29G16G 2G31G28G27
 -18025817.56444 -14046086.97244  20586657.5974   20586659.6714
 -10466626.68344  -8155818.76644  20415754.5874   20415756.5314
   7242125.84244   5643198.13344  22189258.0364   22189261.7314
  -3958058.28144  -3084205.39544  24295518.7124   24295523.2714
  -9250377.69044  -7208067.45244  23307332.6164   23307340.3414
 -17861631.04544 -13918123.05444  21854080.4864   21854083.6774
  -9755570.103 4  -7601728.882 4  23501710.433    23501707.564
 -18935533.71544 -14754945.26944  21986254.3674   21986257.4744
 95  2 28 20  1  0.0000000  0  8G19G18G29G16G 2G31G28G27
 -18032783.04944 -14051514.63844  20585332.0824   20585334.1844
 -10426143.83144  -8124273.73144  20423458.1394   20423460.1714
   7325072.90244   5707832.04244  22205042.5264   22205046.0974
  -4007867.94544  -3123018.22844  24286040.0894   24286047.5194
  -9330041.31244  -7270142.88744  23292173.0174   23292180.6644
 -17885488.26044 -13936713.07244  21849540.5154   21849543.7114
  -9715651.383 4  -7570623.411 4  23509307.170    23509304.144
 -18996139.44744 -14802170.48944  21974721.2454   21974724.4234
 95  2 28 20  1 30.0000000  0  8G19G18G29G16G 2G31G28G27
 -18039541.79144 -14056781.20944  20584045.7714   20584047.7534
 -10385160.03244  -8092338.34744  20431257.0754   20431259.1974
   7408368.90044   5772737.84744  22220892.9414   22220896.5344
  -4057174.79844  -3161439.25444  24276657.2274   24276663.9004
  -9409475.91744  -7332039.87644  23277056.9124   23277064.6114
 -17908781.81244 -13954863.87644  21845108.0764   21845111.1754
  -9675214.437 4  -7539114.142 4  23517001.726    23516998.599
 -19056646.02944 -14849318.45344  21963207.3994   21963210.1644
 95  2 28 20  2  0.0000000  0  8G19G18G29G16G 2G31G28G27
 -18046087.53544 -14061881.80244  20582800.4394   20582802.4874
 -10343670.81944  -8060009.14044  20439152.2834   20439154.6434
   7492018.59344   5837919.26344  22236811.2904   22236815.4424
  -4105976.23844  -3199466.43344  24267370.8694   24267376.0074
  -9488652.79544  -7393736.03544  23261989.8074   23261997.2434
 -17931492.86744 -13972560.77644  21840786.3074   21840789.6074
  -9634250.436 4  -7507194.168 4  23524796.849    23524793.820
 -19117027.95244 -14896369.28444  21951716.9424   21951719.5604
 95  2 28 20  2 30.0000000  0  8G19G18G29G16G 2G31G28G27
 -18052436.88444 -14066829.36544  20581592.5744   20581594.3414
 -10301696.25244  -8027301.73244  20447139.7924   20447142.0584
   7575991.17044   5903352.28244  22252790.8304   22252795.0574
  -4154294.62744  -3237117.20144  24258176.7504   24258182.5874
  -9567576.50544  -7455234.92444  23246971.1504   23246978.4094
 -17953629.08844 -13989809.75344  21836573.5804   21836576.8034
  -9592768.683 4  -7474870.762 4  23532690.565    23532687.701
 -19177294.13844 -14943329.92344  21940248.6754   21940251.4554
 95  2 28 20  3  0.0000000  0  8G19G18G29G16G 2G31G28G27
 -18058597.65744 -14071629.98844  20580419.9764   20580422.0134
 -10259245.74244  -7994223.46444  20455218.0084   20455220.0134
   7660273.70244   5969026.82344  22268829.1454   22268833.2284
  -4202135.96144  -3274396.29244  24249073.1774   24249080.5564
  -9646239.14644  -7516530.38444  23232001.9064   23232008.9904
 -17975191.25544 -14006611.40644  21832470.4274   21832473.7264
  -9550772.708 4  -7442146.653 4  23540681.942    23540679.468
 -19237448.30444 -14990203.27544  21928801.3934   21928804.5014
 95  2 28 20  3 30.0000000  0  8G19G18G29G16G 2G31G28G27
 -18064551.51344 -14076269.37544  20579286.9644   20579288.8574
 -10216310.19144  -7960767.23244  20463388.3734   20463390.4764
   7744879.19444   6034953.00544  22284928.9104   22284933.6814
  -4249480.83244  -3311288.53844  24240063.4284   24240068.3614
  -9724624.92844  -7577610.10544  23217085.3444   23217092.3804
 -17996171.24844 -14022959.42244  21828477.7544   21828481.2954
  -9508245.663 4  -7409008.729 4  23548774.590    23548771.378
 -19297486.82644 -15036986.51744  21917376.6524   21917379.7284
 95  2 28 20  4  0.0000000  0  8G19G18G29G16G 2G31G28G27
 -18070302.65744 -14080750.79844  20578192.5834   20578194.5724
 -10172886.70444  -7926930.79244  20471651.6744   20471653.7394
   7829803.41944   6101127.55944  22301090.1334   22301094.7794
  -4296334.47344  -3347797.92944  24231147.3154   24231150.4364
  -9802747.53944  -7638484.76344  23202219.0214   23202226.8884
 -18016557.79844 -14038845.00544  21824598.4414   21824601.5844
  -9465183.783 4  -7375454.049 4  23556968.718    23556966.169
 -19357413.29844 -15083682.44644  21905973.2954   21905976.0944
 95  2 28 20  4 30.0000000  0  8G19G18G29G16G 2G31G28G27
 -18075895.73444 -14085109.05644  20577128.3794   20577130.4184
 -10129031.00444  -7892757.57344  20479997.1684   20479999.5114
   7914995.47344   6167510.81044  22317301.5494   22317305.6074
  -4342757.88444  -3383972.08944  24222313.3994   24222320.0774
  -9880676.02244  -7699208.14944  23187389.8544   23187397.4724
 -18036400.74944 -14054307.01344  21820822.6994   21820825.8094
  -9421641.918 4  -7341525.351 4  23565254.597    23565252.218
 -19417287.51944 -15130337.65944  21894579.2784   21894582.3564
 95  2 28 20  5  0.0000000  0  8G19G18G29G16G 2G31G28G27
 -18081329.84544 -14089343.44344  20576094.2194   20576096.3194
 -10084753.34744  -7858255.55244  20488422.8584   20488425.3124
   8000453.14144   6234101.03044  22333563.8264   22333568.3614
  -4388761.47644  -3419819.14844  24213559.3434   24213566.9864
  -9958423.38744  -7759790.40844  23172594.9864   23172602.1304
 -18055713.95544 -14069356.23444  21817147.5564   21817150.8774
  -9377633.010 4  -7307232.713 4  23573629.292    23573626.779
 -19477116.65244 -15176957.74544  21883193.9674   21883197.0534
 95  2 28 20  5 30.0000000  0  8G19G18G29G16G 2G31G28G27
 -18086531.83244 -14093396.95844  20575104.3724   20575106.3744
 -10039975.97744  -7823364.14544  20496943.7894   20496945.9044
   8086244.98644   6300951.65244  22349889.9294   22349893.9764
  -4434267.05744  -3455278.17044  24204899.7914   24204906.1334
 -10035929.91244  -7820185.00344  23157845.8074   23157853.3674
 -18074424.21644 -14083935.61744  21813587.2334   21813590.2764
  -9333088.374 4  -7272522.632 4  23582105.848    23582102.934
 -19536818.76344 -15223478.85444  21871833.0304   21871835.9404
 95  2 28 20  6  0.0000000  0  8G19G18G29G16G 2G31G28G27
 -18091507.23044 -14097273.90644  20574157.7084   20574159.6434
  -9994678.69544  -7788067.61444  20505563.7524   20505566.0724
   8172375.73444   6368066.35844  22366280.0374   22366284.2934
  -4479277.43744  -3490351.29444  24196334.0354   24196341.4144
 -10113196.70944  -7880392.80044  23143142.3544   23143150.2094
 -18092516.00244 -14098033.07244  21810144.3794   21810147.5014
  -9288010.809 4  -7237397.282 4  23590684.052    23590681.031
 -19596385.80144 -15269894.70744  21860497.9034   21860501.0194
 95  2 28 20  6 30.0000000  0  8G19G18G29G16G 2G31G28G27
 -18096289.34344 -14101000.24744  20573247.6904   20573249.7044
  -9948882.23444  -7752382.10944  20514278.4394   20514280.8004
   8258828.18044   6435431.71644  22382731.3594   22382736.2884
  -4523798.27444  -3525042.97144  24187862.5464   24187869.2304
 -10190245.41144  -7940430.65144  23128480.5394   23128488.7304
 -18110033.12444 -14111682.74144  21806811.2024   21806813.9674
  -9242431.094 4  -7201880.633 4  23599357.622    23599354.622
 -19655844.19544 -15316225.89744  21849183.3524   21849186.3824
 95  2 28 20  7  0.0000000  0  8G19G18G29G16G 2G31G28G27
 -18100892.65644 -14104587.25744  20572371.7604   20572373.8634
  -9902582.19244  -7716304.20844  20523089.2294   20523091.6274
   8345599.65244   6503045.67744  22399243.7924   22399248.4804
  -4567804.35844  -3559333.52544  24179488.8124   24179495.8004
 -10267069.16444  -8000293.21344  23113861.3664   23113868.5234
 -18126974.82144 -14124884.02944  21803587.2434   21803589.9424
  -9196353.716 4  -7165976.214 4  23608126.204    23608122.699
 -19715188.19844 -15362467.95444  21837890.6604   21837893.4784
 95  2 28 20  7 30.0000000  0  8G19G18G29G16G 2G31G28G27
 -18105319.58844 -14108036.83244  20571529.0484   20571531.2324
  -9855769.89444  -7679827.14844  20531997.4704   20531999.8154
   8432705.85444   6570920.45344  22415819.9004   22415824.3724
  -4611289.10544  -3593217.81644  24171213.9244   24171219.5284
 -10343657.57944  -8059972.40544  23099286.8294   23099293.6604
 -18143326.15344 -14137625.28944  21800475.1234   21800477.9064
  -9149774.291 4  -7129680.585 4  23616990.059    23616986.417
 -19774417.88344 -15408620.93944  21826619.9124   21826622.1584
 95  2 28 20  8  0.0000000  0  8G19G18G29G16G 2G31G28G27
 -18109506.45244 -14111299.34244  20570732.3574   20570734.5264
  -9808406.13744  -7642920.37844  20541010.4624   20541012.9384
   8520194.95944   6639093.61044  22432468.1934   22432472.9904
  -4654205.94944  -3626659.62044  24163046.8244   24163051.0414
 -10419947.22344  -8119418.77544  23084769.6874   23084775.7874
 -18159027.20244 -14149859.84144  21797487.3204   21797489.7684
  -9102640.584 4  -7092953.042 4  23625958.805    23625955.675
 -19833492.14044 -15454652.81544  21815378.3944   21815380.3304
 95  2 28 20  8 30.0000000  0  8G19G18G29G16G 2G31G28G27
 -18113454.08544 -14114375.43844  20569981.2774   20569983.2314
  -9760539.22044  -7605621.53744  20550119.1204   20550121.4794
   8608024.91444   6707532.36144  22449181.9064   22449186.2184
  -4696578.28444  -3659677.10844  24154983.0164   24154987.7004
 -10495948.90144  -8178640.75744  23070306.8554   23070313.5534
 -18174109.19444 -14161612.01544  21794617.3894   21794620.2064
  -9054974.595 4  -7055810.734 4  23635029.436    23635026.710
 -19892417.86044 -15500568.95144  21804165.1304   21804167.2244
 95  2 28 20  9  0.0000000  0  8G19G18G29G16G 2G31G28G27
 -18117233.62644 -14117320.55244  20569262.3554   20569264.0804
  -9712248.27944  -7567992.28844  20559308.7704   20559311.1334
   8696105.73144   6776166.59144  22465943.1604   22465947.9554
  -4738513.65844  -3692354.11444  24147003.1854   24147011.8734
 -10571746.23344  -8237703.51844  23055882.8644   23055889.5684
 -18188633.93444 -14172929.96744  21791853.2824   21791855.9344
  -9006854.722 4  -7018314.754 4  23644186.722    23644183.444
 -19951267.50744 -15546425.80544  21792966.0814   21792968.9594
 95  2 28 20  9 30.0000000  0  8G19G18G29G16G 2G31G28G27
 -18120790.58244 -14120092.22244  20568585.3334   20568587.1664
  -9663487.73444  -7529997.11044  20568587.5574   20568589.8754
   8784467.90044   6845020.04244  22482757.9984   22482762.6564
  -4779975.91944  -3724662.42544  24139113.5774   24139118.6724
 -10647299.82144  -8296576.33544  23041505.8534   23041512.6604
 -18202568.83644 -14183788.30544  21789201.7674   21789204.1304
  -8958231.710 4  -6980426.715 4  23653439.309    23653436.130
 -20009998.38544 -15592190.10444  21781789.9284   21781793.1114
 95  2 28 20 10  0.0000000  0  8G19G18G29G16G 2G31G28G27
 -18124111.57844 -14122680.02744  20567953.2364   20567955.4134
  -9614247.86244  -7491628.43044  20577957.5754   20577959.8424
   8873106.14844   6914088.61944  22499625.3524   22499631.0604
  -4820951.33244  -3756591.41244  24131316.8714   24131321.4044
 -10722604.01744  -8355254.81544  23027175.5474   23027182.4884
 -18215912.99744 -14194186.32644  21786662.3314   21786665.1434
  -8909095.436 4  -6942138.743 4  23662789.539    23662785.928
 -20068593.37344 -15637848.52244  21770639.7464   21770642.8224
 95  2 28 20 10 30.0000000  0  8G19G18G29G16G 2G31G28G27
 -18127216.05644 -14125099.11744  20567362.4594   20567364.6484
  -9564504.68744  -7452867.56944  20587423.4424   20587425.8054
   8962038.76144   6983386.55744  22516548.7004   22516553.8424
  -4861434.56444  -3788136.87344  24123613.1424   24123615.1504
 -10797651.31644  -8413733.11544  23012894.5684   23012901.2264
 -18228665.25444 -14204123.12644  21784235.9004   21784238.7734
  -8859442.171 4  -6903447.917 4  23672238.103    23672234.898
 -20127039.58644 -15683391.01544  21759517.8384   21759520.6264
 95  2 28 20 11  0.0000000  0  8G19G18G29G16G 2G31G28G27
 -18130158.47544 -14127391.92744  20566802.3874   20566804.4144
  -9514273.68644  -7413726.58344  20596982.0034   20596984.2764
   9051251.52344   7052902.80544  22533525.5064   22533531.4904
  -4901447.82944  -3819316.11944  24115999.5054   24116004.4094
 -10872473.54944  -8472036.04644  22998656.3564   22998662.8824
 -18240844.49144 -14213613.42344  21781918.1774   21781921.1284
  -8809302.885 4  -6864378.381 4  23681779.319    23681776.707
 -20185400.06944 -15728866.69944  21748411.9654   21748414.9934
 95  2 28 20 11 30.0000000  0  8G19G18G29G16G 2G31G28G27
 -18132925.11944 -14129547.77044  20566276.0584   20566278.1794
  -9463553.07944  -7374204.08844  20606633.7694   20606636.2034
   9140750.82544   7122642.33344  22550556.9464   22550562.1604
  -4940965.22944  -3850108.96944  24108479.7124   24108482.8594
 -10947052.68844  -8530149.53244  22984464.2314   22984471.5134
 -18252453.40844 -14222659.31644  21779708.9814   21779711.4004
  -8758670.615 4  -6824924.694 4  23691414.506    23691411.781
 -20243680.68044 -15774280.14644  21737321.8434   21737324.6264
 95  2 28 20 12  0.0000000  0  8G19G18G29G16G 2G31G28G27
 -18135470.38944 -14131531.11344  20565791.8014   20565793.9434
  -9412300.87044  -7334267.35644  20616386.7014   20616389.1164
   9230596.77344   7192651.96444  22567654.3564   22567658.8934
  -4979936.35544  -3880476.17144  24101064.1184   24101069.2794
 -11021327.51144  -8588025.90044  22970329.7804   22970336.7894
 -18263426.37644 -14231209.66844  21777620.6824   21777623.9094
  -8707503.144 4  -6785053.968 4  23701151.622    23701148.089
 -20301839.72344 -15819598.86744  21726254.5624   21726256.8484
 95  2 28 20 12 30.0000000  0  8G19G18G29G16G 2G31G28G27
 -18137780.50544 -14133331.21644  20565352.2974   20565354.2674
  -9360518.41144  -7293917.44444  20626240.7444   20626243.3024
   9320793.76944   7262935.14544  22584818.1784   22584822.7324
  -5018347.60644  -3910407.13944  24093754.5174   24093757.9634
 -11095288.50344  -8645657.72644  22956255.5334   22956262.2954
 -18273753.42944 -14239256.71644  21775655.4614   21775658.4044
  -8655801.178 4  -6744766.756 4  23710990.294    23710986.961
 -20359874.65144 -15864820.87344  21715210.8234   21715213.5754
 95  2 28 20 13  0.0000000  0  8G19G18G29G16G 2G31G28G27
 -18139885.33644 -14134971.35944  20564951.6464   20564953.4844
  -9308284.92044  -7253216.07544  20636180.5934   20636183.0724
   9411272.83144   7333438.11144  22602036.1504   22602040.7574
  -5056247.76844  -3939939.77944  24086542.1254   24086547.2164
 -11169007.02044  -8703100.60744  22942227.4774   22942233.8934
 -18283501.92044 -14246852.92844  21773800.5944   21773803.6224
  -8603625.206 4  -6704110.197 4  23720919.133    23720915.592
 -20417844.82044 -15909992.41244  21704179.3964   21704181.5454
 95  2 28 20 13 30.0000000  0  8G19G18G29G16G 2G31G28G27
 -18141786.77744 -14136453.01644  20564589.8444   20564591.8604
  -9255621.62744  -7212179.80044  20646201.9534   20646204.5254
   9502016.59344   7404147.33944  22619304.1734   22619309.7464
  -5093657.10944  -3969089.97844  24079423.3824   24079426.8634
 -11242503.45044  -8760370.42844  22928241.4294   22928247.9394
 -18292689.44644 -14254012.02844  21772052.2264   21772055.3904
  -8550993.694 4  -6663098.657 4  23730934.331    23730931.339
 -20475730.46644 -15955098.08244  21693164.1504   21693166.4654
 95  2 28 20 14  0.0000000  0  8G19G18G29G16G 2G31G28G27
 -18143491.77444 -14137781.59944  20564265.4544   20564267.6004
  -9202517.56044  -7170800.06944  20656307.5474   20656310.0824
   9593035.77044   7475071.18444  22636624.3534   22636629.8114
  -5130573.03244  -3997855.71544  24072398.3564   24072404.6944
 -11315778.48844  -8817467.74744  22914297.3814   22914303.8194
 -18301296.65744 -14260718.94244  21770414.4214   21770417.4544
  -8497905.008 4  -6621730.875 4  23741036.798    23741033.921
 -20533508.96644 -16000120.26544  21682169.2154   21682171.6704
 95  2 28 20 14 30.0000000  0  8G19G18G29G16G 2G31G28G27
 -18144981.87344 -14138942.72344  20563981.9134   20563983.9324
  -9148941.78444  -7129052.76744  20666502.7874   20666505.1424
   9684356.19644   7546229.75144  22654002.1084   22654007.9404
  -5166968.96644  -4026216.26644  24065472.2084   24065479.6354
 -11388817.82944  -8874381.39144  22900398.3864   22900404.3554
 -18309302.89444 -14266957.55544  21768890.8734   21768893.3904
  -8444328.680 4  -6579983.105 4  23751231.935    23751229.086
 -20591134.79244 -16045023.48144  21671203.5404   21671205.8314
 95  2 28 20 15  0.0000000  0  8G19G18G29G16G 2G31G28G27
 -18146278.97944 -14139953.46844  20563735.1094   20563737.1754
  -9094880.92744  -7086927.47244  20676790.2194   20676792.7934
   9775982.29844   7617626.51544  22671438.5034   22671445.2354
  -5202855.83544  -4054180.17144  24058642.9224   24058648.6594
 -11461613.92644  -8931105.49844  22886545.7634   22886552.2524
 -18316701.01344 -14272722.30844  21767483.3314   21767486.4214
  -8390259.944 4  -6537851.635 4  23761520.798    23761517.851
 -20648609.33944 -16089808.81544  21660266.6424   21660268.9594
 95  2 28 20 15 30.0000000  0  8G19G18G29G16G 2G31G28G27
 -18147432.55244 -14140852.37044  20563515.7244   20563517.5824
  -9040353.23744  -7044438.42544  20687166.5604   20687169.3824
   9867886.99244   7689240.36044  22688927.6874   22688932.8654
  -5238268.37344  -4081774.42344  24051904.3874   24051910.7754
 -11534176.64144  -8987647.74644  22872737.4594   22872743.4064
 -18323500.06444 -14278020.26244  21766189.5204   21766191.9984
  -8335725.911 4  -6495357.610 4  23771898.135    23771895.537
 -20705955.51044 -16134494.12044  21649353.8804   21649356.4094
 95  2 28 20 16  0.0000000  0  8G19G18G29G16G 2G31G28G27
 -18148449.14644 -14141644.53344  20563322.1634   20563323.8824
  -8985369.20144  -7001593.78044  20697629.7244   20697632.4014
   9960056.17944   7761060.31444  22706466.9704   22706472.1644
  -5273207.80244  -4108999.98544  24045255.5234   24045261.7754
 -11606501.30744  -9044004.50444  22858974.2904   22858981.2154
 -18329717.49444 -14282865.00244  21765005.8824   21765008.7304
  -8280735.478 4  -6452507.930 4  23782362.474    23782359.966
 -20763195.39444 -16179096.59544  21638461.4264   21638463.9924
 95  2 28 20 16 30.0000000  0  8G19G18G29G16G 2G31G28G27
 -18149203.15344 -14142232.08344  20563178.6794   20563180.6474
  -8929827.48844  -6958314.57744  20708199.0194   20708201.5374
  10052581.02544   7833157.39644  22724073.9444   22724080.1544
  -5307565.37544  -4135772.22244  24038718.2174   24038721.2734
 -11678477.61344  -9100089.81344  22845277.9294   22845283.7784
 -18335257.62644 -14287181.98244  21763951.8624   21763954.2024
  -8225185.758 4  -6409222.459 4  23792933.489    23792930.419
 -20820229.91144 -16223539.05244  21627608.0224   21627610.6834
 95  2 28 20 17  0.0000000  0  8G19G18G29G16G 2G31G28G27
 -18149786.28244 -14142686.47944  20563067.6494   20563069.9184
  -8873854.75344  -6914699.51444  20718850.3214   20718852.9144
  10145326.08244   7905426.09344  22741722.9914   22741729.3584
  -5341461.00444  -4162184.47144  24032267.9684   24032272.4984
 -11750214.67644  -9155988.69844  22831626.4964   22831632.3234
 -18340237.25244 -14291062.20444  21763004.1474   21763007.2604
  -8169203.496 4  -6365599.935 4  23803586.413    23803583.558
 -20877190.80644 -16267924.13644  21616768.6244   21616771.4034
 95  2 28 20 17 30.0000000  0  8G19G18G29G16G 2G31G28G27
 -18150183.80444 -14142996.24544  20562992.1254   20562994.3564
  -8817464.73844  -6870759.29744  20729580.9534   20729583.2704
  10238269.87644   7977849.62644  22759409.7754   22759415.7384
  -5374883.58344  -4188228.08344  24025908.1124   24025912.9894
 -11821734.61944  -9211718.38644  22818016.6744   22818023.0304
 -18344675.42244 -14294520.50944  21762159.4984   21762162.5884
  -8112805.206 4  -6321653.221 4  23814318.403    23814315.222
 -20934080.67144 -16312253.87244  21605942.9374   21605945.5294
 95  2 28 20 18  0.0000000  0  8G19G18G29G16G 2G31G28G27
 -18150323.44644 -14143105.06844  20562965.5294   20562967.4244
  -8760595.99244  -6826446.03844  20740402.8934   20740405.3644
  10331468.54444   8050471.77844  22777144.4314   22777150.6414
  -5407767.72844  -4213852.14144  24019650.8174   24019656.9454
 -11892996.78344  -9267247.22044  22804455.7624   22804461.7614
 -18348523.05844 -14297518.65544  21761427.5224   21761430.0454
  -8055936.051 4  -6277339.592 4  23825140.500    23825137.410
 -20990855.24644 -16356493.76844  21595138.8254   21595141.8644
 95  2 28 20 18 30.0000000  0  8G19G18G29G16G 2G31G28G27
 -18150204.93344 -14143012.73144  20562987.9284   20562989.9494
  -8703249.50444  -6781760.52744  20751315.5484   20751318.1284
  10424929.56744   8123298.36544  22794929.8734   22794935.3684
  -5440109.84144  -4239053.82644  24013496.3044   24013500.9394
 -11964006.44244  -9322579.29544  22790943.0704   22790949.0114
 -18351756.50844 -14300038.22144  21760812.3674   21760815.0434
  -7998589.569 4  -6232654.021 4  23836052.998    23836050.179
 -21047514.33244 -16400643.67344  21584356.7704   21584359.3014
 95  2 28 20 19  0.0000000  0  8G19G18G29G16G 2G31G28G27
 -18149847.98044 -14142734.59644  20563055.9914   20563057.9494
  -8645430.12244  -6736706.51344  20762318.1144   20762320.6854
  10518675.13344   8196346.65744  22812769.5454   22812776.3264
  -5471910.76944  -4263833.79844  24007444.7834   24007448.9744
 -12034754.80644  -9377707.76444  22777479.9654   22777485.5354
 -18354369.91244 -14302074.62744  21760315.0544   21760317.4934
  -7940760.944 4  -6187592.763 4  23847057.308    23847054.987
 -21104054.72544 -16444701.09444  21573597.6134   21573600.3894
 95  2 28 20 19 30.0000000  0  8G19G18G29G16G 2G31G28G27
 -18149291.51644 -14142300.99744  20563161.9834   20563164.0724
  -8587145.75844  -6691290.18044  20773409.5334   20773411.9034
  10612718.60444   8269627.10244  22830665.2904   22830671.6134
  -5503181.78744  -4288200.86444  24001493.6854   24001498.6994
 -12105259.89144  -9432646.67144  22764063.1584   22764068.7614
 -18356367.72344 -14303631.35244  21759934.5154   21759937.4894
  -7882458.529 4  -6142162.319 4  23858152.208    23858149.461
 -21160477.73544 -16488667.04644  21562860.7974   21562863.5024
 95  2 28 20 20  0.0000000  0  8G19G18G29G16G 2G31G28G27
 -18148541.37144 -14141716.47244  20563304.5924   20563306.7934
  -8528412.59544  -6645524.13044  20784585.9424   20784588.6844
  10707066.86944   8343145.03144  22848619.1904   22848625.5674
  -5533947.97444  -4312174.58444  23995639.3094   23995644.4894
 -12175507.29344  -9487384.78344  22750694.9424   22750701.4374
 -18357736.24444 -14304697.71744  21759673.7954   21759677.2014
  -7823682.804 4  -6096363.075 4  23869336.647    23869333.814
 -21216789.40944 -16532546.24544  21552145.3364   21552147.2684
 95  2 28 20 20 30.0000000  0  8G19G18G29G16G 2G31G28G27
 -18147578.78744 -14140966.41344  20563487.5724   20563489.8274
  -8469206.87044  -6599389.84844  20795852.5154   20795855.3094
  10801738.67544   8416915.08544  22866634.9344   22866640.8824
  -5564189.14644  -4335739.18844  23989884.7844   23989890.0274
 -12245457.48844  -9541891.30944  22737384.0264   22737390.0684
 -18358459.32144 -14305261.14344  21759536.6754   21759539.6274
  -7764412.326 4  -6050178.280 4  23880615.338    23880612.502
 -21272948.36344 -16576306.43844  21541458.5904   21541461.0044
 95  2 28 20 21  0.0000000  0  8G19G18G29G16G 2G31G28G27
 -18146382.10644 -14140033.94144  20563715.3624   20563717.6714
  -8409495.18244  -6552861.31244  20807215.4064   20807218.1104
  10896746.57544   8490947.03744  22884714.3914   22884719.3574
  -5593884.63044  -4358878.59344  23984233.4544   23984238.4084
 -12315096.70144  -9596155.51744  22724131.9904   22724137.6724
 -18358536.17244 -14305321.01944  21759521.9044   21759525.0044
  -7704635.363 4  -6003598.822 4  23891990.359    23891987.581
 -21328919.38344 -16619920.19144  21530807.3064   21530810.0814
 95  2 28 20 21 30.0000000  0  8G19G18G29G16G 2G31G28G27
 -18145095.51144 -14139031.40444  20563960.3954   20563962.5794
  -8349433.99844  -6506060.44044  20818644.5334   20818647.2944
  10991907.67444   8565098.35944  22902822.7794   22902829.0634
  -5623192.69744  -4381716.11044  23978656.4014   23978662.4774
 -12384600.21444  -9650313.98244  22710905.8544   22710911.7194
 -18358128.41644 -14305003.27544  21759599.6224   21759602.7104
  -7644519.888 4  -5956755.588 4  23903430.340    23903427.381
 -21384872.40244 -16663519.90744  21520159.8514   21520162.5354
 95  2 28 20 22  0.0000000  0  8G19G18G29G16G 2G31G28G27
 -18143570.93044 -14137843.41944  20564250.3734   20564252.6514
  -8288886.75044  -6458880.81444  20830166.5544   20830169.3384
  11087334.81844   8639456.98544  22920982.3884   22920989.1024
  -5651973.58644  -4404142.82544  23973179.3784   23973186.8024
 -12453825.54544  -9704255.69444  22697732.6454   22697738.9284
 -18357115.80244 -14304214.21944  21759792.3254   21759795.4674
  -7583934.315 4  -5909546.041 4  23914959.371    23914956.370
 -21440684.77544 -16707010.03944  21509539.4434   21509541.6844
 95  2 28 20 22 30.0000000  0  8G19G18G29G16G 2G31G28G27
 -18141740.94644 -14136417.46544  20564598.6824   20564601.1014
  -8227765.65944  -6411254.02944  20841797.5144   20841799.9744
  11183097.05044   8714076.74444  22939205.6384   22939211.8564
  -5680136.25544  -4426087.82544  23967820.3324   23967826.6054
 -12522706.90344  -9757929.37044  22684624.7734   22684630.0544
 -18355429.39544 -14302900.06144  21760112.9894   21760115.8684
  -7522804.766 4  -5861912.606 4  23926592.187    23926588.647
 -21496270.28344 -16750323.38344  21498961.4644   21498963.8314
 95  2 28 20 23  0.0000000  0  8G19G18G29G16G 2G31G28G27
 -18139698.63944 -14134826.05644  20564987.2734   20564989.7614
  -8166180.64544  -6363265.74844  20853516.5184   20853519.5634
  11279094.06544   8788879.42944  22957473.2134   22957479.6814
  -5707771.69344  -4447622.00644  23962561.3304   23962567.4514
 -12591337.81444  -9811407.88944  22671564.7314   22671570.2544
 -18353144.14644 -14301119.36444  21760547.9304   21760550.9654
  -7461225.043 4  -5813928.373 4  23938310.188    23938306.702
 -21551733.06644 -16793541.09544  21488407.0214   21488409.9084
 95  2 28 20 23 30.0000000  0  8G19G18G29G16G 2G31G28G27
 -18137459.79844 -14133081.50844  20565413.3914   20565415.5514
  -8104158.14544  -6314936.57344  20865319.1224   20865322.0454
  11375305.25944   8863848.99744  22975781.7644   22975789.1294
  -5734898.66444  -4468759.94744  23957399.6284   23957409.5564
 -12659718.28344  -9864691.26544  22658552.2364   22658558.2824
 -18350251.87744 -14298865.63644  21761098.1164   21761101.3294
  -7399204.297 4  -5765600.479 4  23950112.188    23950109.285
 -21607090.31244 -16836676.57644  21477872.7704   21477875.4584
 95  2 28 20 24  0.0000000  0  8G19G18G29G16G 2G31G28G27
 -18134948.00344 -14131124.26744  20565891.4864   20565893.8024
  -8041618.81344  -6266204.67644  20877220.1724   20877222.9664
  11471821.41344   8939056.19844  22994148.5404   22994154.9624
  -5761439.06144  -4489440.83244  23952349.3564   23952355.2054
 -12727761.47344  -9917711.82344  22645603.9654   22645609.0944
 -18346668.96544 -14296073.73544  21761780.0044   21761783.6184
  -7336656.398 4  -5716861.823 4  23962014.987    23962012.335
 -21662245.38044 -16879654.52044  21467377.5304   21467379.7054
 95  2 28 20 24 30.0000000  0  8G19G18G29G16G 2G31G28G27
 -18132317.73244 -14129074.71044  20566391.8884   20566394.0624
  -7978721.76644  -6217194.03244  20889189.0814   20889191.6274
  11568491.50044   9014383.37544  23012544.6074   23012551.1704
  -5787548.61644  -4509786.01744  23947381.5554   23947386.3314
 -12795624.10644  -9970591.69144  22632689.9454   22632695.8024
 -18342535.73844 -14292853.01444  21762566.5144   21762569.7624
  -7273732.133 4  -5667829.869 4  23973988.998    23973986.462
 -21717339.23244 -16922584.76244  21456893.1544   21456895.9194
 95  2 28 20 25  0.0000000  0  8G19G18G29G16G 2G31G28G27
 -18129551.64044 -14126919.31844  20566918.2794   20566920.5594
  -7915465.42944  -6167903.42144  20901226.3914   20901228.9594
  11665332.38144   9089843.60844  23030973.1184   23030979.0974
  -5813217.94544  -4529788.12644  23942496.4434   23942503.1514
 -12863301.82044 -10023327.45944  22619811.0824   22619817.1754
 -18337839.47644 -14289193.56244  21763460.2574   21763463.5324
  -7210427.100 4  -5618501.215 4  23986035.490    23986032.789
 -21772366.66144 -16965463.24044  21446421.5444   21446424.5634
 95  2 28 20 25 30.0000000  0  8G19G18G29G16G 2G31G28G27
 -18126438.11944 -14124493.19644  20567510.9234   20567512.8464
  -7851618.56644  -6118152.66044  20913375.9074   20913378.7324
  11762581.32944   9165621.82244  23049478.9944   23049485.0304
  -5838223.52144  -4549273.05044  23937738.5134   23937745.0034
 -12930584.15144 -10075755.13844  22607007.9124   22607013.0634
 -18332379.97244 -14284939.36144  21764499.0544   21764502.2644
  -7146528.526 4  -5568710.056 4  23998195.127    23998191.785
 -21827119.95544 -17008128.10044  21436002.3884   21436005.2034
 95  2 28 20 26  0.0000000  0  8G19G18G29G16G 2G31G28G27
 -18123059.97744 -14121860.87444  20568153.7244   20568155.6414
  -7787258.05944  -6068001.65844  20925623.3464   20925626.4254
  11860155.54244   9241653.48844  23068046.6634   23068053.5104
  -5862646.44244  -4568303.94744  23933091.2384   23933097.0894
 -12997545.79444 -10127932.92544  22594265.6044   22594270.7214
 -18326259.50544 -14280170.13344  21765663.5234   21765666.8074
  -7082129.302 4  -5518528.781 4  24010449.543    24010446.537
 -21881699.62444 -17050657.67644  21425616.4864   21425618.9054
 95  2 28 20 26 30.0000000  0  8G19G18G29G16G 2G31G28G27
 -18119549.80244 -14119125.66944  20568821.7084   20568823.6554
  -7722509.60844  -6017548.36644  20937944.6864   20937947.5874
  11957924.90444   9317837.20544  23086651.7964   23086658.4184
  -5886607.73444  -4586975.18244  23928530.7514   23928536.2044
 -13064304.87544 -10179952.87644  22581561.5784   22581566.6464
 -18319603.72644 -14274983.77044  21766930.3324   21766933.0374
  -7017364.418 4  -5468062.559 4  24022773.770    24022770.946
 -21936237.68344 -17093154.82544  21415238.0154   21415240.3684
 95  2 28 20 27  0.0000000  0  8G19G18G29G16G 2G31G28G27
 -18115912.94744 -14116291.75744  20569513.6924   20569515.8894
  -7657379.67744  -5966797.81144  20950338.3924   20950341.5144
  12055879.84444   9394165.55244  23105292.3694   23105298.9734
  -5910114.57544  -4605292.16344  23924057.2864   23924063.6464
 -13130864.40844 -10231817.32444  22568895.5964   22568900.6224
 -18312422.18544 -14269387.72244  21768296.7024   21768299.7534
  -6952245.619 4  -5417320.574 4  24035165.012    24035162.677
 -21990740.80244 -17135624.75344  21404866.4394   21404868.9024
 95  2 28 20 27 30.0000000  0  8G19G18G29G16G 2G31G28G27
 -18112042.09044 -14113275.50844  20570250.2194   20570252.5594
  -7591765.44744  -5915669.88844  20962824.6174   20962827.5524
  12154103.86344   9470703.55644  23123983.5584   23123990.9974
  -5933070.73944  -4623180.13644  23919688.9674   23919695.9534
 -13197094.71744 -10283425.23744  22556292.2594   22556297.2194
 -18304615.41444 -14263304.48344  21769782.2114   21769785.5274
  -6886662.976 4  -5366217.157 4  24047645.118    24047642.606
 -22045102.32644 -17177984.34544  21394521.6944   21394524.2824
 95  2 28 20 28  0.0000000  0  8G19G18G29G16G 2G31G28G27
 -18107908.55744 -14110054.57344  20571036.7264   20571038.9604
  -7525666.22244  -5864164.04644  20975402.8884   20975405.7824
  12252591.44344   9547446.93244  23142725.2184   23142731.0794
  -5955473.54044  -4640636.89544  23915425.7084   23915434.3964
 -13262984.15344 -10334767.52944  22543753.9624   22543759.4984
 -18296148.99444 -14256707.23144  21771393.4274   21771396.5174
  -6820601.205 4  -5314740.403 4  24060216.327    24060213.580
 -22099272.49144 -17220194.82644  21384213.5454   21384215.9104
 95  2 28 20 28 30.0000000  0  8G19G18G29G16G 2G31G28G27
 -18103586.39044 -14106686.65444  20571859.3614   20571861.6894
  -7459171.76144  -5812350.23144  20988056.4884   20988059.4844
  12351266.80344   9624336.62144  23161502.7534   23161510.9444
  -5977393.77244  -4657717.63444  23911255.1544   23911260.9724
 -13328638.06144 -10385926.28744  22531260.3354   22531265.4834
 -18287086.66244 -14249645.62544  21773118.1674   21773120.2514
  -6754136.478 4  -5262949.658 4  24072864.087    24072861.247
 -22153302.13744 -17262295.81344  21373931.9254   21373933.9994
 95  2 28 20 29  0.0000000  0  8G19G18G29G16G 2G31G28G27
 -18099034.31444 -14103139.58444  20572725.5444   20572727.9394
  -7392254.82744  -5760207.21944  21000790.4824   21000793.2944
  12450163.69344   9701398.93244  23180322.4664   23180329.4054
  -5998804.49844  -4674401.34144  23907181.2904   23907187.7164
 -13394016.23444 -10436870.18844  22518819.1904   22518824.3634
 -18277391.01744 -14242090.53244  21774962.9804   21774966.1424
  -6687231.268 4  -5210815.673 4  24085595.574    24085593.036
 -22207152.91044 -17304257.41344  21363684.6454   21363686.9064
 95  2 28 20 29 30.0000000  0  8G19G18G29G16G 2G31G28G27
 -18094246.01544 -14099408.44844  20573636.7954   20573638.9724
  -7324901.83344  -5707724.40844  21013607.1644   21013609.9654
  12549292.45444   9778641.92344  23199186.4304   23199193.9014
  -6019683.60244  -4690670.77244  23903207.5104   23903214.0174
 -13459114.73444 -10487596.16244  22506431.2284   22506436.0294
 -18267051.36444 -14234033.62044  21776930.6844   21776933.7204
  -6619875.437 4  -5158330.550 4  24098412.835    24098410.558
 -22260822.07044 -17346077.49844  21353471.7274   21353474.1004
 95  2 28 20 30  0.0000000  0  8G19G18G29G16G 2G31G28G27
 -18089240.08444 -14095507.72844  20574589.2204   20574591.3494
  -7257121.53744  -5654908.63644  21026505.2794   21026508.3174
  12648653.79044   9856066.13044  23218094.1334   23218101.8174
  -6040043.34944  -4706535.55844  23899332.7824   23899340.0644
 -13523978.24344 -10538139.02144  22494088.0574   22494093.0634
 -18256087.37944 -14225490.20944  21779017.0034   21779019.6234
  -6552095.597 4  -5105515.017 4  24111310.935    24111309.066
 -22314337.41144 -17387777.72944  21343288.1274   21343290.2774
 95  2 28 20 30 30.0000000  0  8G19G18G29G16G 2G31G28G27
 -18084047.08044 -14091461.23144  20575577.6224   20575579.7024
  -7188941.68244  -5601781.53144  21039479.5754   21039482.7154
  12748216.68844   9933647.41844  23237040.1044   23237048.0384
  -6059909.11044  -4722015.39444  23895552.6074   23895560.5244
 -13588617.27544 -10588506.95544  22481787.1494   22481792.5704
 -18244552.42344 -14216501.88344  21781211.7814   21781214.3794
  -6483925.367 4  -5052395.293 4  24124283.574    24124281.367
 -22367757.43044 -17429403.67844  21333122.5534   21333124.6184
 95  2 28 20 31  0.0000000  0  7G19G18G29G16G 2G31G27
 -18078656.21844 -14087260.56444  20576603.5374   20576605.5944
  -7120347.97144  -5548331.93544  21052532.5014   21052535.5594
  12847981.33944  10011385.92744  23256025.4424   23256031.8694
  -6079268.14044  -4737100.37944  23891869.3014   23891875.7104
 -13653005.27744 -10638679.28544  22469534.6354   22469540.1084
 -18232449.84244 -14207071.26144  21783514.8204   21783517.7794
 -22421094.56244 -17470965.03644  21322972.8994   21322975.2214
 95  2 28 20 31 30.0000000  0  8G19G18G29G16G 2G31G28G27
 -18072996.47944 -14082850.37944  20577680.3314   20577682.4424
  -7051272.47944  -5494506.92344  21065677.0234   21065680.1804
  12948004.32844  10089325.72144  23275059.1074   23275066.5204
  -6098057.99544  -4751741.87544  23888293.7924   23888298.6594
 -13717096.16144 -10688620.09544  22457338.4474   22457343.8434
 -18219727.65944 -14197157.82444  21785935.9184   21785938.3524
        -0.22414         0.44914  24150465.843    24150463.830
 -22474284.71744 -17512411.86944  21312851.1724   21312853.1624
 95  2 28 20 32  0.0000000  0  8G19G18G29G16G 2G31G28G27
 -18067046.73544 -14078214.20944  20578812.5164   20578814.7764
  -6981705.06644  -5440298.59844  21078915.3064   21078918.4674
  13048303.78244  10167480.91644  23294145.6714   23294152.1764
  -6116277.17544  -4765938.65344  23884826.9854   23884834.3244
 -13780858.85444 -10738305.17544  22445204.8164   22445210.0944
 -18206376.08944 -14186753.96344  21788476.3124   21788479.2394
     69490.298 4     54148.955 4  24163689.735    24163687.253
 -22527294.21744 -17553717.93044  21302763.4684   21302765.7954
 95  2 28 20 32 30.0000000  0  8G19G18G29G16G 2G31G28G27
 -18060847.87544 -14073383.92644  20579992.0484   20579994.4894
  -6911680.64944  -5385734.16544  21092240.5414   21092243.7504
  13148832.63344  10245814.91244  23313275.8544   23313283.0024
  -6133956.25544  -4779714.59344  23881462.0234   23881467.1154
 -13844320.71544 -10787755.83744  22433128.2494   22433132.7514
 -18192422.69244 -14175881.14944  21791131.5404   21791134.2834
    139414.553 4    108635.438 4  24176995.903    24176993.770
 -22580146.44344 -17594901.43944  21292705.7354   21292708.0654
 95  2 28 20 33  0.0000000  0  8G19G18G29G16G 2G31G28G27
 -18054428.43344 -14068381.76044  20581213.7274   20581215.9144
  -6841205.00944  -5330818.13244  21105651.4594   21105654.6574
  13249581.47544  10324320.29744  23332447.7854   23332454.4144
  -6151111.17144  -4793082.10744  23878198.0034   23878205.4504
 -13907528.17344 -10837008.26144  22421099.9104   22421105.3854
 -18177871.43944 -14164542.47244  21793900.4864   21793902.7484
    209755.511 4    163446.647 4  24190381.070    24190378.879
 -22632851.05644 -17635969.92644  21282676.9574   21282679.0304
 95  2 28 20 33 30.0000000  0  8G19G18G29G16G 2G31G28G27
 -18047810.21644 -14063224.70544  20582473.1534   20582475.2744
  -6770300.10344  -5275567.60344  21119144.5694   21119147.6824
  13350529.79244  10402981.10744  23351657.6994   23351665.5554
  -6167774.78344  -4806066.74544  23875026.7384   23875032.0614
 -13970503.04944 -10886079.45844  22409116.3414   22409121.2494
 -18162736.64844 -14152749.09644  21796780.8114   21796783.4684
    280489.218 4    218563.889 4  24203841.527    24203838.736
 -22685416.38644 -17676929.88444  21272673.9604   21272676.3684
 95  2 28 20 34  0.0000000  0  8G19G18G29G16G 2G31G28G27
 -18040973.68544 -14057897.53544  20583774.2914   20583776.5434
  -6698943.23144  -5219964.89144  21132723.3404   21132726.4554
  13451704.20544  10481818.09344  23370910.9884   23370917.4454
  -6183895.78444  -4818628.59744  23871959.2694   23871965.2274
 -14033216.48044 -10934946.92744  22397182.2564   22397187.1654
 -18146980.04444 -14140471.18544  21799778.9014   21799781.9454
    351644.814 4    274009.858 4  24217382.351    24217378.921
 -22737821.19544 -17717764.76044  21262701.2214   21262703.7344
 95  2 28 20 34 30.0000000  0  8G19G18G29G16G 2G31G28G27
 -18033903.10044 -14052387.98244  20585119.6794   20585121.9104
  -6627121.59044  -5164000.02144  21146390.6494   21146393.7584
  13553114.23244  10560838.66144  23390209.0684   23390217.2604
  -6199445.27144  -4830745.14744  23869000.6624   23869005.9494
 -14095666.17144 -10983608.88144  22385298.5524   22385303.6034
 -18130566.58844 -14127681.45744  21802902.0754   21802905.1954
    423240.287 4    329798.594 4  24231006.330    24231002.575
 -22790058.96044 -17758469.46744  21252760.8174   21252763.0924
 95  2 28 20 35  0.0000000  0  8G19G18G29G16G 2G31G28G27
 -18026640.50444 -14046728.80944  20586501.6684   20586503.9214
  -6554898.22644  -5107722.11844  21160134.3404   21160137.3624
  13654718.03544  10640010.25044  23409543.4294   23409552.3654
  -6214470.54844  -4842453.19344  23866141.5264   23866148.0674
 -14157873.21944 -11032081.76744  22373460.7014   22373465.5854
 -18113546.89644 -14114419.33444  21806141.1234   21806143.6874
    495228.756 4    385893.567 4  24244705.179    24244701.470
 -22842173.15244 -17799077.88644  21242843.7484   21242846.1134
 95  2 28 20 35 30.0000000  0  8G19G18G29G16G 2G31G28G27
 -18019202.81644 -14040933.19944  20587916.9194   20587919.1044
  -6482310.49044  -5051160.28744  21173947.3614   21173950.5014
  13756487.71644  10719311.08044  23428909.3524   23428916.7484
  -6228993.16344  -4853769.52944  23863377.6204   23863381.2084
 -14219835.38044 -11080363.83644  22361669.6044   22361674.2554
 -18095942.73044 -14100701.78244  21809490.9384   21809493.8224
    567581.813 4    442272.620 4  24258473.612    24258470.050
 -22894178.91744 -17839601.81644  21232947.2294   21232949.7524
 95  2 28 20 36  0.0000000  0  8G19G18G29G16G 2G31G28G27
 -18011534.27344 -14034957.70344  20589376.2144   20589378.4084
  -6409302.96344  -4994271.35244  21187840.1874   21187843.3844
  13858494.35744  10798796.56044  23448320.8164   23448327.6264
  -6242955.74044  -4864649.49744  23860720.4574   23860728.3894
 -14281497.97744 -11128412.48144  22349935.6454   22349940.6634
 -18077696.68044 -14086484.06944  21812963.1884   21812965.8764
    640359.732 4    498982.756 4  24272322.465    24272318.987
 -22946012.98144 -17879991.95344  21223083.3964   21223086.0184
 95  2 28 20 36 30.0000000  0  8G19G18G29G16G 2G31G28G27
 -18003642.42044 -14028808.20344  20590877.9934   20590879.9904
  -6335888.55644  -4937065.36444  21201810.5694   21201813.7264
  13960722.78944  10878454.86044  23467774.5924   23467783.7774
  -6256404.69844  -4875129.25144  23858161.4164   23858166.5434
 -14342855.36644 -11176223.30544  22338259.6974   22338264.2644
 -18058828.19244 -14071781.34344  21816553.6314   21816556.6714
    713545.369 4    556010.569 4  24286248.747    24286245.972
 -22997680.30544 -17920252.16644  21213251.7394   21213253.9154
 95  2 28 20 37  0.0000000  0  8G19G18G29G16G 2G31G28G27
 -17995524.88244 -14022482.84344  20592422.6704   20592424.6064
  -6262066.84344  -4879541.98844  21215858.5264   21215861.6044
  14063179.55144  10958291.07244  23487271.7544   23487279.1684
  -6269346.20644  -4885213.55844  23855698.9454   23855704.8954
 -14403906.77344 -11223795.70544  22326641.7614   22326646.8474
 -18039356.60144 -14056608.66344  21820258.9374   21820261.6244
    787132.018 4    613350.871 4  24300251.786    24300248.363
 -23049184.05744 -17960384.92144  21203451.0254   21203452.7724
 95  2 28 20 37 30.0000000  0  8G19G18G29G16G 2G31G28G27
 -17987180.46144 -14015980.69044  20594010.5284   20594012.4504
  -6187844.14144  -4821706.15844  21229982.4274   21229985.6054
  14165843.55544  11038288.75144  23506808.5424   23506814.8534
  -6281791.19644  -4894910.95644  23853330.8514   23853336.4084
 -14464704.73444 -11271170.61444  22315072.2954   22315076.8154
 -18019289.40444 -14040971.87244  21824077.8624   21824080.6954
    861103.991 4    670991.432 4  24314328.197    24314325.147
 -23100540.56244 -18000402.93244  21193677.8854   21193679.9904
 95  2 28 20 38  0.0000000  0  8G19G18G29G16G 2G31G28G27
 -17978582.99144 -14009281.35444  20595646.5354   20595648.7244
  -6113203.98644  -4763545.04144  21244186.3364   21244189.5344
  14268725.98144  11118456.64844  23526386.1974   23526393.0074
  -6293713.18844  -4904200.84844  23851061.7774   23851065.5124
 -14525234.84044 -11318336.80544  22303553.6644   22303558.0524
 -17998611.56944 -14024859.26644  21828012.6674   21828015.5354
    935479.015 4    728946.056 4  24328481.377    24328478.495
 -23151740.24544 -18040298.74344  21183934.7664   21183937.1494
 95  2 28 20 38 30.0000000  0  8G19G18G29G16G 2G31G28G27
 -17969741.07444 -14002391.54344  20597329.2214   20597331.1954
  -6038160.57644  -4705069.70044  21258466.5174   21258469.5484
  14371799.01744  11198773.04944  23546000.3474   23546007.9764
  -6305114.91244  -4913085.32544  23848892.6184   23848897.5634
 -14585498.04844 -11365295.03444  22292085.7944   22292089.9804
 -17977340.75044 -14008284.60244  21832060.0484   21832063.1214
   1010238.469 4    787200.242 4  24342707.702    24342705.131
 -23202807.16944 -18080091.10344  21174217.4204   21174219.6834
 95  2 28 20 39  0.0000000  0  8G19G18G29G16G 2G31G28G27
 -17960679.95744 -13995330.92644  20599053.5264   20599055.4094
  -5962740.60944  -4646300.93844  21272818.6774   21272821.6594
  14475029.01544  11279211.75844  23565644.5574   23565652.1804
  -6316001.86344  -4921568.68844  23846820.8294   23846824.4284
 -14645543.37544 -11412083.48644  22280659.4064   22280663.9604
 -17955510.03244 -13991273.65044  21836214.4254   21836216.9774
   1085350.710 4    845729.316 4  24357001.030    24356998.646
 -23253768.28144 -18119801.01444  21164519.6584   21164521.8254
 95  2 28 20 39 30.0000000  0  8G19G18G29G16G 2G31G28G27
 -17951375.48244 -13988080.68344  20600824.2384   20600826.1404
  -5886922.46844  -4587221.90644  21287246.4384   21287249.5254
  14578427.62544  11359781.86044  23585321.3844   23585329.8234
  -6326352.20644  -4929633.91044  23844850.7154   23844857.7444
 -14705332.34344 -11458672.18144  22269281.9664   22269286.6504
 -17933088.96744 -13973802.69144  21840480.9754   21840483.3824
   1160841.323 4    904553.233 4  24371366.064    24371363.973
 -23304596.61644 -18159407.46844  21154847.2284   21154849.3344
 95  2 28 20 40  0.0000000  0  8G19G18G29G16G 2G31G28G27
 -17941826.20444 -13980639.67944  20602641.3204   20602643.5894
  -5810676.68244  -4527809.64844  21301755.5524   21301758.7504
  14682023.54044  11440505.70644  23605035.3714   23605043.5624
  -6336145.19044  -4937264.83344  23842987.1424   23842992.9984
 -14764810.00944 -11505018.30544  22257963.6814   22257968.0754
 -17910066.00644 -13955862.71644  21844862.2474   21844864.7744
   1236734.970 4    963691.204 4  24385807.950    24385805.737
 -23355255.07344 -18198881.54744  21145207.1734   21145209.3604
 95  2 28 20 40 30.0000000  0  8G19G18G29G16G 2G31G28G27
 -17932059.00044 -13973028.86544  20604499.9014   20604502.1264
  -5734005.25144  -4468065.71744  21316345.6084   21316348.6494
  14785810.76544  11521378.61944  23624785.0034   23624792.4154
  -6345396.79844  -4944473.91044  23841227.2194   23841232.1934
 -14823997.24744 -11551138.11844  22246700.7804   22246705.1554
 -17886449.88544 -13937460.55044  21849356.3274   21849358.6884
   1313018.161 4   1023132.706 4  24400324.400    24400322.492
 -23405739.67544 -18238220.15244  21135600.2784   21135602.5494
 95  2 28 20 41  0.0000000  0  8G19G18G29G16G 2G31G28G27
 -17922094.89944 -13965264.62744  20606395.9154   20606398.0094
  -5656925.50144  -4408003.61544  21331013.3314   21331016.5244
  14889775.95444  11602390.17844  23644568.7564   23644578.9334
  -6354128.03244  -4951277.51144  23839565.8454   23839571.4114
 -14882921.43744 -11597052.96544  22235487.6414   22235491.8184
 -17862242.23344 -13918597.45044  21853962.8144   21853965.3594
   1389674.557 4   1082865.023 4  24414911.732    24414909.801
 -23456054.94944 -18277426.81644  21126025.5054   21126027.7344
 95  2 28 20 41 30.0000000  0  8G19G18G29G16G 2G31G28G27
 -17911954.94244 -13957363.35944  20608325.5164   20608327.6714
  -5579450.61244  -4347633.61144  21345756.2834   21345759.5244
  14993919.26244  11683540.54144  23664387.2694   23664396.9494
  -6362352.74944  -4957686.41544  23838000.7824   23838006.0834
 -14941571.82244 -11642754.45544  22224326.7864   22224330.9044
 -17837435.00644 -13899267.14044  21858683.4774   21858686.0084
   1466699.476 4   1142884.498 4  24429569.041    24429566.777
 -23506203.27644 -18316503.39044  21116482.4614   21116484.7554
 95  2 28 20 42  0.0000000  0  8G19G18G29G16G 2G31G28G27
 -17901628.18944 -13949316.53344  20610290.6594   20610292.5584
  -5501565.66944  -4286944.08644  21360577.3884   21360580.4994
  15098253.29444  11764839.50944  23684241.1584   23684250.5904
  -6370057.36244  -4963690.06644  23836534.4294   23836540.4204
 -14999945.78744 -11688240.54844  22213218.3244   22213222.7214
 -17812012.97444 -13879457.76144  21863521.1214   21863523.8774
   1544098.308 4   1203195.334 4  24444297.278    24444295.002
 -23556167.30344 -18355436.35444  21106974.7974   21106976.6774
 95  2 28 20 42 30.0000000  0  8G19G18G29G16G 2G31G28G27
 -17891063.25544 -13941084.11344  20612301.0014   20612303.0644
  -5423246.78844  -4225916.42744  21375480.9894   21375484.1444
  15202796.57744  11846301.55944  23704135.7744   23704143.9654
  -6377224.45444  -4969274.82844  23835170.7314   23835178.1554
 -15058019.38244 -11733492.59144  22202167.1464   22202171.4574
 -17785933.16144 -13859135.82844  21868484.0764   21868486.2424
   1621891.911 4   1263813.779 4  24459100.802    24459098.635
 -23605932.49244 -18394214.38344  21097504.6804   21097506.5454
 95  2 28 20 43  0.0000000  0  8G19G18G29G16G 2G31G28G27
 -17880262.91944 -13932668.25744  20614356.2554   20614358.5694
  -5344526.01844  -4164575.60844  21390461.2174   21390464.3884
  15307517.72644  11927902.21144  23724063.5084   23724072.1954
  -6383885.23144  -4974465.06344  23833902.9344   23833908.2404
 -15115796.88344 -11778513.90644  22191172.5914   22191176.4664
 -17759217.72644 -13838318.59944  21873567.4804   21873570.1154
   1700061.325 4   1324725.060 4  24473975.965    24473973.880
 -23655519.34144 -18432853.44444  21088068.7774   21088070.5914
 95  2 28 20 43 30.0000000  0  8G19G18G29G16G 2G31G28G27
 -17869239.01844 -13924078.19644  20616454.1444   20616456.3544
  -5265425.57344  -4102938.94044  21405513.4844   21405516.5014
  15412399.09844  12009627.72744  23744022.3424   23744030.5334
  -6390062.15344  -4979278.29744  23832727.6754   23832732.9964
 -15173285.69044 -11823310.26844  22180232.6574   22180236.7954
 -17731905.97444 -13817036.70344  21878764.8174   21878767.5164
   1778584.443 4   1385911.939 4  24488918.916    24488916.486
 -23704957.52844 -18471376.66544  21078660.7704   21078663.0104
 95  2 28 20 44  0.0000000  0  8G19G18G29G16G 2G31G28G27
 -17857941.33044 -13915274.79844  20618603.7144   20618605.9724
  -5185905.63744  -4040975.39444  21420645.3134   21420648.4664
  15517470.63744  12091501.40444  23764016.6384   23764026.3194
  -6395722.17044  -4983688.75944  23831650.7694   23831656.7524
 -15230456.99944 -11867859.22944  22169353.2364   22169356.9774
 -17703973.72344 -13795271.29544  21884080.1784   21884083.0044
   1857493.417 4   1447399.500 4  24503934.850    24503932.314
 -23754212.26044 -18509756.93344  21069287.8934   21069290.1954
 95  2 28 20 44 30.0000000  0  8G19G18G29G16G 2G31G28G27
 -17846390.53944 -13906274.17844  20620801.7364   20620804.0984
  -5105997.78844  -3978709.57444  21435851.5694   21435854.6144
  15622718.39444  12173512.39044  23784044.8684   23784053.5554
  -6400879.95344  -4987707.82844  23830668.9884   23830675.2474
 -15287320.79444 -11912168.56844  22158532.1334   22158536.2114
 -17675443.81544 -13773040.18744  21889508.9524   21889511.8604
   1936775.394 4   1509177.715 4  24519020.806    24519018.697
 -23803293.77144 -18548002.23144  21059948.0194   21059950.0884
 95  2 28 20 45  0.0000000  0  8G19G18G29G16G 2G31G28G27
 -17834627.28444 -13897107.99944  20623040.0834   20623042.5454
  -5025746.59944  -3916176.21644  21451122.8894   21451125.9244
  15728117.24744  12255641.11144  23804101.3294   23804108.5394
  -6405543.79244  -4991342.03444  23829781.5744   23829788.2664
 -15343913.82544 -11956266.91344  22147762.9234   22147767.0894
 -17646360.69444 -13750378.00244  21895043.2494   21895045.6974
   2016404.348 4   1571226.292 4  24534173.170    24534171.253
 -23852226.38844 -18586131.50644  21050636.5024   21050638.4974
 95  2 28 20 45 30.0000000  0  8G19G18G29G16G 2G31G28G27
 -17822654.42644 -13887778.49244  20625318.4224   20625320.8264
  -4945151.89644  -3853375.18944  21466459.5344   21466462.6424
  15833666.82944                  23824186.5314
  -6409703.49344  -4994583.39344  23828989.9654   23828996.3304
 -15400247.89244 -12000163.47644  22137042.8444   22137046.5524
 -17616725.98644 -13727286.00044  21900682.2484   21900685.4254
   2096373.906 4   1633540.289 4  24549391.171    24549389.022
 -23901023.84244 -18624155.46044  21041350.6014   21041352.4074
 95  2 28 20 46  0.0000000  0  8G19G18G29G16G 2G31G28G27
 -17810478.57744 -13878290.80744  20627635.6544   20627637.9324
  -4864228.01044  -3790317.65344  21481858.7734   21481861.9724
  15939349.71744  12420237.30444  23844298.1104   23844307.0464
  -6413359.18544  -4997432.00344  23828294.5224   23828300.4834
 -15456343.75844 -12043874.42744  22126367.9264   22126372.1634
 -17586527.05544 -13703754.34844  21906429.0354   21906432.1204
   2176679.058 4   1696115.744 4  24564672.907    24564669.828
 -23949676.80044 -18662066.81444  21032092.1964   21032094.0904
 95  2 28 20 46 30.0000000  0  8G19G18G29G16G 2G31G28G27
 -17798113.04244 -13868655.32044  20629988.5614   20629990.9024
  -4782992.90944  -3727017.61444  21497317.3314   21497320.4054
  16045152.86244  12502681.08244  23864432.6934   23864439.2534
  -6416520.02844  -4999894.99744  23827692.7054   23827698.5904
 -15512227.41744 -12087420.01944  22115733.5604   22115737.2934
 -17555777.08044 -13679793.30544  21912280.8634   21912283.8954
   2257304.382 4   1758940.710 4  24580015.043    24580011.994
 -23998212.67444 -18699886.93744  21022856.0464   21022858.1264
 95  2 28 20 47  0.0000000  0  8G19G18G29G16G 2G31G28G27
 -17785464.17244 -13858799.05744  20632395.5674   20632397.9774
  -4701353.85744  -3663402.81244  21512852.7744   21512855.8724
  16151152.59044  12585278.02444  23884603.0474   23884610.4584
  -6419115.77844  -5001917.67444  23827199.0194   23827203.2894
 -15567845.85344 -12130758.94044  22105149.3574   22105153.5094
 -17524395.24144 -13655339.91544  21918252.3964   21918255.3354
   2338317.021 4   1822067.485 4  24595430.872    24595428.511
 -24046572.59044 -18737569.95044  21013653.3944   21013655.2814
 95  2 28 20 47 30.0000000  0  8G19G18G29G16G 2G31G28G27
 -17772535.40644 -13848724.69244  20634855.9634   20634858.2974
  -4619303.53944  -3599467.53944  21528466.5594   21528469.7554
  16257335.91544                  23904809.5664
  -6421175.64144  -5003522.81244  23826806.5914   23826814.3834
 -15623201.70244 -12173893.25644  22094615.3584   22094619.7134
 -17492375.52944 -13630389.47044  21924345.5504   21924348.4224
   2419703.062 4   1885485.210 4  24610918.587    24610915.866
 -24094763.78544 -18775121.49444  21004482.9984   21004484.7394
 95  2 28 20 48  0.0000000  0  7G19G18G29G16G 2G31G27
 -17759351.33144 -13838451.38444  20637364.8504   20637366.7494
  -4536859.82544  -3535225.72544  21544154.6984   21544157.9174
  16363682.26744  12750885.06244  23925047.3404   23925056.0274
  -6422722.97144  -5004728.51844  23826512.2534   23826519.2294
 -15678316.86744 -12216840.01644  22084127.3624   22084131.7334
 -17459748.45244 -13604965.75044  21930554.8334   21930557.8074
 -24142787.99844 -18812542.91444  20995344.0344   20995346.1154
 95  2 28 20 48 30.0000000  0  8G19G18G29G16G 2G31G 7G27
 -17745866.17944 -13827943.47744  20639931.0474   20639933.0974
  -4453972.44144  -3470638.20344  21559928.0284   21559931.2284
  16470240.28644  12833917.04044  23945324.6044   23945331.8194
  -6423713.39244  -5005500.31144  23826324.4564   23826331.7264
 -15733132.43544 -12259553.32744  22073696.2604   22073700.2544
 -17426494.47744 -13579053.55044  21936882.8504   21936885.7454
        -0.53154                  25137033.0284
 -24190601.23044 -18849799.93944  20986245.3294   20986247.5114
 95  2 28 20 49  0.0000000  0  7G19G18G29G16G 2G31G27
 -17732045.64644 -13817174.22944  20642560.8824   20642563.2944
  -4370604.74544  -3405676.40844  21575792.4544   21575795.5964
  16577043.17344  12917139.76444  23965648.4034   23965655.2074
  -6424100.50344  -5005801.98744  23826251.0934   23826257.7384
 -15787578.53644 -12301978.75344  22063335.7484   22063339.7864
 -17392572.75544 -13552621.02544  21943337.3674   21943340.3664
 -24238131.33044 -18886836.33844  20977200.9584   20977202.9354
 95  2 28 20 49 30.0000000  0  8G19G18G29G16G 2G31G 7G27
 -17718023.23144 -13806247.67444  20645229.2324   20645231.4744
  -4286885.48644  -3340440.67544  21591723.7254   21591726.7974
  16683964.86944  13000455.12544  23985994.4024   23986003.8344
  -6423980.84944  -5005708.79844  23826273.8204   23826281.1014
 -15841737.34244 -12344180.30344  22053029.5554   22053033.4164
 -17358100.69044 -13525759.65744  21949897.2534   21949899.9034
        -0.93754                  25096446.4924
 -24285462.87344 -18923718.02144  20968193.9904   20968195.8104
 95  2 28 20 50  0.0000000  0  8G19G18G29G16G 2G31G 7G27
 -17703846.71344 -13795201.03544  20647927.0864   20647929.2334
  -4202862.30744  -3274968.11944  21607712.8074   21607716.1734
  16790963.93544  13083830.75344  24006356.8074   24006366.4874
  -6423376.49744  -5005237.86944  23826388.6734   23826393.2344
 -15895662.04344 -12386199.45244  22042767.6904   22042771.4734
 -17323129.06944 -13498509.01744  21956552.3394   21956555.0634
   -106868.31344                  25076109.7434
 -24332637.49944 -18960477.42744  20959216.8024   20959218.6434
 95  2 28 20 50 30.0000000  0  8G19G18G29G16G 2G31G 7G27
 -17689499.41244 -13784021.31944  20650657.3094   20650659.5964
  -4118520.50044  -3209247.28644  21623762.5524   21623765.8824
  16898055.71944  13167278.65444  24026735.9274   24026745.6074
  -6422284.53444  -5004387.04144  23826596.2634   23826601.0514
 -15949328.01244 -12428016.98244  22032555.4894   22032559.1654
 -17287619.12144 -13470838.91044  21963309.3034   21963312.4534
   -213869.74444                  25055748.3514
 -24379656.38144 -18997115.47444  20950269.2834   20950271.3034
 95  2 28 20 51  0.0000000  0  8G19G18G29G16G 2G31G 7G27
 -17674912.26344 -13772654.70644  20653433.0644   20653435.2174
  -4033795.03444  -3143227.49344  21639885.0434   21639888.4314
  17005294.90944  13250841.35844  24047143.2244   24047149.9234
  -6420653.90944  -5003116.46344  23826906.3584   23826912.2734
 -16002682.69344 -12469591.95744  22022402.4324   22022406.5204
 -17251478.37244 -13442677.27144  21970186.7224   21970189.9024
   -320923.00044                  25035376.5514
 -24426463.25944 -19033588.31944  20941362.2174   20941364.1074
 95  2 28 20 51 30.0000000  0  8G19G18G29G16G 2G31G 7G27
 -17660070.96544 -13761090.06044  20656257.5974   20656259.4514
  -3948679.67044  -3076903.89144  21656082.1744   21656085.5064
  17112682.37744                  24067578.0964
  -6418488.57844  -5001429.23444  23827318.9364   23827325.6124
 -16055744.77844 -12510938.93744  22012305.0214   22012308.4824
 -17214705.90644 -13414023.38844  21977184.7814   21977187.6864
   -428027.07844                  25014993.3094
 -24473078.60444 -19069911.91744  20932491.4284   20932493.5274
 95  2 28 20 52  0.0000000  0  8G19G18G29G16G 2G31G 7G27
 -17644984.10344 -13749334.06344  20659128.3084   20659130.1524
  -3863201.31644  -3010297.44044  21672348.0444   21672351.2204
  17220199.38444  13418298.85844  24088038.3494   24088048.2784
  -6415839.13244  -4999364.78944  23827822.6924   23827828.8344
 -16108554.02844 -12552088.91344  22002255.5924   22002258.8694
 -17177343.66544 -13384909.93444  21984294.2244   21984297.2254
   -535020.87644                  24994600.4344
 -24519549.08544 -19106122.63544  20923648.2784   20923650.5964
 95  2 28 20 52 30.0000000  0  8G19G18G29G16G 2G31G 7G27
 -17629638.13844 -13737376.17444  20662048.3014   20662050.7234
  -3777367.53244  -2943414.02744  21688681.9954   21688685.2504
  17327847.03044  13502179.87144  24108523.1804   24108534.1014
  -6412707.71944  -4996924.73244  23828418.6444   23828426.0354
 -16161086.06544 -12593022.87744  21992258.8884   21992262.7824
 -17139387.93544 -13355334.02944  21991516.8974   21991520.0804
   -642247.73644                  24974193.9614
 -24565862.11944 -19142210.67144  20914835.2844   20914837.3634
 95  2 28 20 53  0.0000000  0  8G19G18G29G16G 2G31G 7G27
 -17614031.96844 -13725215.52744  20665018.2524   20665020.2614
  -3691181.53644  -2876256.16744  21705082.5764   21705085.9394
  17435632.64744  13586168.45444  24129034.1414   24129042.3324
  -6409063.19044  -4994084.91844  23829111.4294   23829118.3254
 -16213335.69944 -12633736.78544  21982316.2124   21982319.8174
 -17100867.18944 -13325317.85344  21998846.7874   21998849.9914
   -749524.37844                  24953779.6244
 -24611998.50144 -19178161.05744  20906056.2294   20906057.9874
 95  2 28 20 53 30.0000000  0  8G19G18G29G16G 2G31G 7G27
 -17598161.20944 -13712848.70544  20668038.5994   20668040.8294
  -3604628.08344  -2808811.97844  21721553.1284   21721556.6234
  17543580.78244                  24149576.2374
  -6404878.78544  -4990824.36844  23829908.5584   23829913.3754
 -16265272.67744 -12674207.07244  21972432.8314   21972436.2134
 -17061790.51144 -13294868.48044  22006282.9284   22006285.8454
   -856846.08944                  24933356.1914
 -24657929.89244 -19213951.70844  20897315.5704   20897317.3764
 95  2 28 20 54  0.0000000  0  8G19G18G29G16G 2G31G 7G27
 -17582055.08744 -13700298.48444  20671103.3094   20671105.6094
  -3517734.01144  -2741102.37244  21738088.6764   21738092.2364
  17651676.86944  13754514.07044  24170146.5744   24170157.7434
  -6400180.35944  -4987163.27144  23830802.4754   23830808.6724
 -16316916.58644 -12714448.99444  21962605.2664   21962608.7084
 -17022170.85244 -13263996.01044  22013822.7234   22013825.0924
   -964223.01144                  24912922.6344
 -24703672.10744 -19249594.95444  20888610.9704   20888612.8474
 95  2 28 20 54 30.0000000  0  8G19G18G29G16G 2G31G 7G27
 -17565719.47344 -13687569.43844  20674211.5874   20674213.8974
  -3430496.50244  -2673125.15744  21754689.4344   21754692.8544
  17759912.74444  13838853.48644  24190743.2174   24190753.1454
  -6394960.91544  -4983096.20744  23831795.6034   23831802.5244
 -16368270.46244 -12754464.91944  21952832.9104   21952836.5434
 -16981995.37644 -13232690.44444  22021468.3184   22021471.0024
  -1071662.75844                  24892476.6044
 -24749224.34044 -19285090.16644  20879942.8444   20879944.5164
 95  2 28 20 55  0.0000000  0  8G19G18G29G16G 2G31G 7G27
 -17549121.05144 -13674635.60844  20677370.2484   20677372.5364
  -3342884.49144  -2604856.12144  21771361.7544   21771365.1874
  17868311.29844  13923319.66044  24211370.3604   24211380.5364
  -6389205.39044  -4978611.45344  23832891.3934   23832897.2924
 -16419326.18844 -12794248.51844  21943117.3244   21943120.6204
 -16941236.53744 -13200930.30644  22029223.8294   22029226.5954
  -1179141.33644                  24872023.6674
 -24794565.86144 -19320421.18844  20871314.3784   20871316.3354
 95  2 28 20 55 30.0000000  0  8G19G18G29G16G 2G31G 7G27
 -17532272.36544 -13661506.76344  20680576.4204   20680578.6244
  -3254928.17344  -2536318.79644  21788099.1904   21788102.8974
  17976839.94744  14007887.27844  24232022.8844   24232033.3094
  -6382967.38144  -4973750.67944  23834078.3014   23834084.3654
 -16470123.52144 -12833830.77144  21933451.0784   21933454.3624
 -16899896.95044 -13168717.64144  22037090.4624   22037093.3674
  -1286686.00744                  24851558.0934
 -24839739.48044 -19355621.37244  20862717.9814   20862720.0194
 95  2 28 20 56  0.0000000  0  8G19G18G29G16G 2G31G 7G27
 -17515157.58944 -13648170.58044  20683833.3294   20683835.5254
  -3166637.62444  -2467521.03444  21804900.4234   21804904.1114
  18085484.02144                  24252697.2424
  -6376242.94944  -4968510.91544  23835357.6314   23835365.4574
 -16520672.89344 -12873219.81544  21923831.6954   21923834.9084
 -16857966.72544 -13136044.73744  22045070.0314   22045072.5964
  -1394280.36644                  24831083.3444
 -24884752.21444 -19390696.19544  20854152.3074   20854154.2404
 95  2 28 20 56 30.0000000  0  8G19G18G29G16G 2G31G 7G27
 -17497782.60444 -13634631.64144  20687139.5544   20687141.8934
  -3078014.54644  -2398464.16044  21821764.7494   21821768.6104
  18194230.01444  14177281.67444  24273391.2104   24273402.1314
  -6369035.76744  -4962894.96444  23836729.5654   23836735.7624
 -16570969.23344 -12912411.68944  21914260.5034   21914263.7244
 -16815461.17044 -13102923.52244  22053158.5034   22053160.9034
  -1501946.00244                  24810594.9774
 -24929595.31044 -19425638.83344  20845619.0784   20845621.0774
 95  2 28 20 57  0.0000000  0  8G19G18G29G16G 2G31G 7G27
 -17480165.29644 -13620903.87644  20690492.0774   20690494.6314
  -2989070.88444  -2329157.47844  21838690.3034   21838693.7584
  18303065.68444                  24294102.4454
  -6361362.80244  -4956916.06644  23838189.8264   23838195.8344
 -16621019.72344 -12951411.98844  21904736.2174   21904739.4074
 -16772389.15244 -13069360.91544  22061354.6904   22061357.5724
  -1609682.12544                  24790093.0874
 -24974266.15044 -19460447.24344  20837118.5424   20837120.5194
 95  2 28 20 57 30.0000000  0  8G19G18G29G16G 2G31G 7G27
 -17462337.40144 -13607012.01644  20693884.9054   20693887.1774
  -2899804.06144  -2259598.98244  21855677.2584   21855680.6334
  18411983.12344  14346958.98244  24314828.8704   24314840.2874
  -6353220.81244  -4950571.69444  23839738.6324   23839745.1894
 -16670818.45544 -12990216.11444  21895259.6634   21895263.0014
 -16728751.10644 -13035357.25844  22069658.5004   22069660.7934
  -1717501.87944                  24769575.4414
 -25018761.50544 -19495118.92244  20828651.5394   20828653.1984
 95  2 28 20 58  0.0000000  0  8G19G18G29G16G 2G31G 7G27
 -17444255.83744 -13592922.49244  20697325.6434   20697327.8424
  -2810147.45244  -2189736.75944  21872738.5524   21872741.7534
  18521033.58944  14431933.17544  24335580.5484   24335591.4694
  -6344553.28444  -4943817.80444  23841387.7764   23841393.2254
 -16720302.28944 -13028774.86944  21885842.9444   21885846.3954
 -16684500.52044 -13000876.28144  22078079.4324   22078081.5484
  -1825349.28044                  24749052.2264
 -25063001.13344 -19529591.33244  20820232.8704   20820234.7774
 95  2 28 20 58 30.0000000  0  8G19G18G29G16G 2G31G 7G27
 -17425944.67744 -13578654.06344  20700810.0564   20700812.1174
  -2720116.64044  -2119582.95544  21889870.8454   21889874.2224
  18630208.77144  14517004.54344  24356356.8624   24356367.2874
  -6335390.07644  -4936677.68244  23843131.8234   23843138.5744
 -16769487.07244 -13067100.59044  21876483.3454   21876486.7924
 -16639655.94944 -12965932.45944  22086613.0284   22086615.5784
  -1933247.88544                  24728519.1744
 -25106995.72244 -19563872.80444  20811860.9544   20811862.8974
 95  2 28 20 59  0.0000000  0  8G19G18G29G16G 2G31G 7G27
 -17407436.03744 -13564231.75444  20704331.8454   20704334.1584
  -2629761.33144  -2049176.29444  21907064.8884   21907068.4684
  18739475.89144  14602147.51544  24377149.8254   24377159.5064
  -6325762.15044  -4929175.47744  23844963.8484   23844971.1234
 -16818412.21344 -13105223.99844  21867173.1944   21867176.7474
 -16594243.80044 -12930546.38044  22095254.1894   22095257.2664
  -2041204.37444                  24707975.5074
 -25150789.10544 -19597997.48844  20803527.2084   20803529.1974
 95  2 28 20 59 30.0000000  0  8G19G18G29G16G 2G31G 7G27
 -17388721.32044 -13549648.86344  20707893.4134   20707895.4694
  -2539092.09444  -1978525.01544  21924318.6084   21924321.8224
  18848836.66644  14687363.48544  24397960.8784   24397967.5544
  -6315659.98244  -4921303.68444  23846886.0824   23846893.4844
 -16867080.36844 -13143147.15544  21857911.7234   21857914.9314
 -16548279.40544 -12894729.96744  22104001.1474   22104003.8204
  -2149217.28444                  24687420.9114
 -25194391.89044 -19631973.65544  20795229.9034   20795231.7534
 95  2 28 21  0  0.0000000  0  8G19G18G29G16G 2G31G 7G27
 -17369770.61844 -13534882.09244  20711499.6414   20711501.8534
  -2448125.93144  -1907642.36744  21941629.2364   21941632.5074
  18958301.55844  14772660.60044  24418791.4034   24418800.3394
  -6305093.28344  -4913069.93344  23848897.3274   23848903.4434
 -16915492.20244 -13180870.58644  21848699.1834   21848702.7374
 -16501783.52944 -12858499.42544  22112849.1264   22112851.2894
  -2257272.27144                  24666858.3224
 -25237805.90244 -19665802.73544  20786968.8084   20786970.3554
 95  2 28 21  0 30.0000000  0  8G19G18G29G16G 2G31G 7G27
 -17350538.79344 -13519896.26644  20715159.4884   20715161.8674
  -2356841.76644  -1836511.92444  21958999.8324   21959003.2384
  19067920.89144  14858077.96044  24439650.9084   24439660.0934
  -6294005.91244  -4904430.46244  23851006.7454   23851013.5384
 -16963602.55944 -13218359.09044  21839544.2304   21839547.5254
 -16454721.68544 -12821827.86244  22121804.3284   22121807.3374
  -2365317.62944                  24646297.0514
 -25281001.28544 -19699461.45444  20778748.9634   20778750.6164
 95  2 28 21  1  0.0000000  0  8G19G18G29G16G 2G31G 7G27
 -17331023.33244 -13504689.42044  20718873.0494   20718875.2064
  -2265227.47844  -1765124.24744  21976433.5874   21976436.7464
  19177686.86944                  24460539.0774
  -6282387.55644  -4895377.24144  23853217.9204   23853223.9074
 -17011410.74244 -13255612.14344  21830446.4044   21830450.0244
 -16407102.20844 -12784721.78144  22130866.0034   22130869.0154
  -2473345.30144                  24625739.4754
 -25323985.23244 -19732955.42244  20770568.9584   20770570.8754
 95  2 28 21  1 30.0000000  0  8G19G18G29G16G 2G31G 7G27
 -17311243.36844 -13489276.47144  20722637.1624   20722639.0854
  -2173306.40544  -1693497.51644  21993925.4724   21993929.1334
  19287553.71744  15029220.00244  24481446.6594   24481456.5884
  -6270277.76244  -4885941.07644  23855522.7184   23855529.7614
 -17058953.61144 -13292658.46144  21821399.1794   21821402.5194
 -16358977.90244 -12747222.33244  22140024.0254   22140026.8844
  -2581406.92044                  24605175.5204
 -25366789.11944 -19766309.08244  20762423.4824   20762425.6894
 95  2 28 21  2  0.0000000  0  8G19G18G29G16G 2G31G 7G27
 -17291203.86144 -13473661.28244  20726450.7254   20726452.8204
  -2081078.51944  -1621631.72344  22011475.7044   22011479.3904
  19397495.05944  15114888.33144  24502367.4394
  -6257685.21444  -4876128.74144  23857918.4974   23857927.6814
 -17106237.39844 -13329502.89644  21812401.4754   21812404.7334
 -16310351.05244 -12709331.29144  22149277.4804   22149280.4224
  -2689509.06644                  24584604.5074
 -25409407.78544 -19799518.41144  20754313.5484   20754315.3994
 95  2 28 21  2 30.0000000  0  8G19G18G29G16G 2G31G 7G27
 -17270904.92644 -13457843.93544  20730313.2564   20730315.4044
  -1988522.71644  -1549510.40344  22029088.5244   22029091.9954
  19507490.96844                  24523299.0114
  -6244592.89244  -4865926.97144  23860410.0664   23860414.6664
 -17153262.90044 -13366146.07544  21803452.5334   21803456.1144
 -16261198.80344 -12671030.83344  22158630.7334   22158633.1384
  -2797644.89544  -2179967.12244  24564026.6814
 -25451842.29944 -19832584.24944  20746238.7804   20746240.6204
 95  2 28 21  3  0.0000000  0  8G19G18G29G16G 2G31G 7G27
 -17250314.81944 -13441799.70044  20734231.1534   20734233.5544
  -1895611.47344  -1477112.11544  22046769.0134   22046773.1584
  19617551.68944  15286360.62344  24544242.5934
  -6230999.32344  -4855334.65444  23862996.8154   23863001.9654
 -17200020.38044 -13402580.39844  21794554.9644   21794558.1814
 -16211493.16244 -12632299.15744  22168089.2844   22168092.4684
  -2905787.98044  -2264233.77744  24543447.3004
 -25494067.55044 -19865487.02344  20738203.5954   20738205.3634
 95  2 28 21  3 30.0000000  0  8G19G18G29G16G 2G31G 7G27
 -17229399.10144 -13425501.74344  20738211.5094   20738213.7114
  -1802329.52744  -1404424.97344  22064520.2294   22064523.8934
  19727717.45644                  24565207.2944
  -6216882.54444  -4844334.54444  23865683.2584   23865690.5334
 -17246476.44044 -13438779.85944  21785714.7834   21785717.9474
 -16161190.72344 -12593102.45844  22177662.0684   22177664.8584
  -3013911.16744                  24522872.0554
 -25536041.16044 -19898193.71444  20730216.1404   20730217.8374
 95  2 28 21  4  0.0000000  0  8G19G18G29G16G 2G31G 7G27
 -17208199.35244 -13408982.46244  20742245.6714   20742247.8014
  -1708713.84444  -1331477.77244  22082335.0184   22082338.9084
  19837981.66644  15458123.76144  24586190.2874   24586201.4564
  -6202263.31144  -4832942.96044  23868465.1274   23868473.3184
 -17292649.77144 -13474759.00644  21776927.8994   21776931.1784
 -16110303.03144 -12553449.70744  22187344.7144   22187348.0774
  -3122026.50644  -2432730.10844  24502297.5714   24502307.2524
 -25577791.56444 -19930726.48044  20722271.2974   20722272.9634
 95  2 28 21  4 30.0000000  0  8G19G18G29G16G 2G31G 7G27
 -17186771.25044 -13392285.24544  20746323.2954   20746325.6414
  -1614820.95644  -1258314.57344  22100202.2364   22100205.9134
  19948316.15844                  24607186.6254
  -6187196.28944  -4821202.47144  23871332.5554   23871339.4064
 -17338582.34144 -13510550.55044  21768187.2954   21768190.5074
 -16058875.27744 -12513376.12844  22197131.4724   22197134.5094
  -3230176.41244                  24481716.9234
 -25619377.88644 -19963131.38944  20714357.6934   20714359.5224
 95  2 28 21  5  0.0000000  0  8G19G18G29G16G 2G31G 7G27
 -17165121.55944 -13375415.35744  20750443.1104   20750445.2074
  -1520666.76044  -1184947.75144  22118118.8714   22118122.3624
  20058744.06144                  24628200.1124
  -6171680.31644  -4809112.15344  23874285.0464   23874293.2374
 -17384253.99944 -13546138.78244  21759496.3544   21759499.5704
 -16006914.88344 -12472887.49844  22207019.4894   22207021.9064
  -3338360.60244  -2601300.97344  24461130.1874   24461140.3644
 -25660783.73344 -19995395.66644  20706478.3614   20706480.1314
 95  2 28 21  5 30.0000000  0  8G19G18G29G16G 2G31G 7G27
 -17143270.12644 -13358388.26344  20754601.2344   20754603.5944
  -1426261.58144  -1111385.37544  22136083.8954   22136087.9924
  20169263.05744                  24649231.2204
  -6155698.18944  -4796658.58244  23877326.3914   23877334.5824
 -17429648.54244 -13581511.07944  21750857.9644   21750861.2014
 -15954436.42644 -12431995.18944  22217005.5984   22217008.6154
  -3446592.60544                  24440534.1234
 -25702002.15244 -20027513.88844  20698634.8924   20698636.7064
 95  2 28 21  6  0.0000000  0  8G19G18G29G16G 2G31G 7G27
 -17121189.33144 -13341182.44444  20758802.9464   20758805.1724
  -1331570.33344  -1037600.07844  22154103.2374   22154107.1434
  20279899.94444                  24670284.6534
  -6139213.16244  -4783813.14644  23880463.3844   23880471.5754
 -17474730.21344 -13616639.57744  21742279.0944   21742282.4584
 -15901410.41744 -12390676.21744  22227096.2754   22227099.3174
  -3554830.72144  -2769977.95244  24419936.6004   24419948.2664
 -25742993.37744 -20059455.07844  20690834.3544   20690835.9954
 95  2 28 21  6 30.0000000  0  8G19G18G29G16G 2G31G 7G27
 -17098869.50644 -13323790.36444  20763050.3034   20763052.5024
  -1236586.63944   -963586.90344  22172178.1904   22172181.8414
  20390639.83844  15888765.40944  24691358.0324   24691369.2014
  -6122229.41944  -4770579.07844  23883694.9724   23883704.1564
 -17519505.61944 -13651529.42544  21733758.7094   21733761.9014
 -15847834.53544 -12348928.76944  22237291.4114   22237294.4184
  -3663067.32444  -2854317.69444  24399339.4104   24399349.3394
 -25783736.49044 -20091202.92844  20683081.2264   20683082.8334
 95  2 28 21  7  0.0000000  0  8G19G18G29G16G 2G31G 7G27
 -17076308.88644 -13306210.65644  20767343.4644   20767345.8234
  -1141316.20644   -889350.29544  22190307.5624   22190311.0954
  20501468.70844  15975125.22544  24712447.8954   24712459.0654
  -6104755.72544  -4756963.24344  23887020.7054   23887027.0504
 -17563987.44944 -13686190.51644  21725294.1814   21725297.2674
 -15793715.59544 -12306758.16244  22247590.0174   22247592.9304
  -3771295.31944                  24378743.6784
 -25824215.14644 -20122744.71244  20675378.4724   20675379.8644
 95  2 28 21  7 30.0000000  0  8G19G18G29G16G 2G31G 7G27
 -17053502.19944 -13288439.20244  20771683.4044   20771685.7384
  -1045775.94944   -814903.43944  22208488.5994   22208492.8274
  20612349.05944  16061525.20644  24733548.1344   24733559.0554
  -6086816.83444  -4742984.96244  23890434.0234   23890440.6334
 -17608217.36544 -13720655.30544  21716877.3174   21716880.4944
 -15739064.81044 -12264173.10744  22257989.5924   22257992.1944
  -3879515.68444                  24358150.2044
 -25864454.37444 -20154099.92344  20667721.1124   20667722.8104
 95  2 28 21  8  0.0000000  0  8G19G18G29G16G 2G31G 7G27
 -17030440.26144 -13270468.85444  20776071.9844   20776074.5054
   -949968.53944   -740248.41244  22226720.0914   22226723.2844
  20723260.77044  16147949.58844  24754654.6244   24754666.2904
  -6068435.29244  -4728661.71244  23893931.9284   23893938.6104
 -17652212.91844 -13754937.47044  21708505.1934   21708508.3814
 -15683879.85544 -12221171.82544  22268490.7174   22268493.6994
  -3987712.33244  -3107286.53044  24337560.8044   24337571.9744
 -25904471.14544 -20185281.78744  20660105.8804   20660107.8974
 95  2 28 21  8 30.0000000  0  8G19G18G29G16G 2G31G 7G27
 -17007117.00044 -13252294.87544  20780510.2584   20780512.5034
   -853891.59144   -665383.34744  22245002.7334   22245006.7374
  20834193.91744                  24775764.5054
  -6049612.20644  -4713994.38344  23897513.7704   23897522.7054
 -17695968.39844 -13789032.56244  21700178.7074   21700181.8844
 -15628177.17444 -12177767.12844  22279090.5654   22279093.6964
  -4095881.21544  -3191573.62244  24316975.9704   24316985.1544
 -25944279.95944 -20216301.60844  20652530.8014   20652532.3904
 95  2 28 21  9  0.0000000  0  7G19G18G29G16G31G 7G27
 -16983494.07744 -13233887.39344  20785005.8914   20785008.1554
   -757504.61744   -590276.70944  22263344.8474   22263348.3464
  20945189.97344                  24796886.4794
  -6030312.75344  -4698955.87044  23901185.9354   23901195.1194
 -15571920.81944 -12133930.98244  22289795.8964   22289798.2344
  -4203990.77944  -3275814.45044  24296402.6424   24296412.8194
 -25983858.21444 -20247141.77544  20644999.2784   20645000.9894
 95  2 28 21  9 30.0000000  0  7G19G18G29G16G31G 7G27
 -16959537.14444 -13215219.64644  20789564.4924   20789566.5994
   -660766.90944   -514896.77444  22281753.2794   22281757.0394
  21056284.86444                  24818027.6794
  -6010495.90744  -4683514.19644  23904957.6614   23904966.3494
 -15515078.71644 -12089638.39944  22300612.7334   22300615.2664
  -4312021.90444                  24275845.0584
 -26023180.13244 -20277782.19344  20637516.2924   20637517.9254
 95  2 28 21 10  0.0000000  0  7G19G18G29G16G31G 7G27
 -16935325.01644 -13196353.04544  20794171.8254   20794174.1804
   -563719.65544   -439275.63144  22300221.1044   22300224.5314
  21167443.56244                  24839180.7894
  -5990219.58444  -4667714.49944  23908816.5184   23908821.1254
 -15457711.39544 -12044936.57344  22311529.3444   22311531.5904
  -4420037.04244                  24255290.1954
 -26062284.39144 -20308253.00944  20630075.0284   20630076.6674
 95  2 28 21 10 30.0000000  0  7G19G18G29G16G31G 7G27
 -16910872.30544 -13177298.97644  20798825.2194   20798827.4134
   -466375.31344   -363422.98744  22318745.0564   22318748.8694
  21278660.99744                  24860344.9664
  -5969487.05044  -4651559.34444  23912761.5554   23912767.4994
 -15399841.33844 -11999842.99944  22322541.6944   22322544.2104
  -4528062.00244  -3528336.42344  24234733.5964   24234743.5254
 -26101168.40644 -20338552.20944  20622675.7424   20622677.3394
 95  2 28 21 11  0.0000000  0  7G19G18G29G16G31G 7G27
 -16886165.70744 -13158047.07444  20803526.6784   20803528.9764
   -368745.58644   -287347.97344  22337323.2584   22337327.5914
  21389943.89244  16667441.12144  24881521.6184   24881530.3054
  -5948290.33944  -4635042.42044  23916795.2024   23916800.7994
 -15341456.31544 -11954348.14844  22333651.9124   22333654.9474
  -4636093.71444                  24214175.4494
 -26139809.57544 -20368662.17944  20615322.5684   20615324.1194
 95  2 28 21 11 30.0000000  0  7G19G18G29G16G31G 7G27
 -16861282.76644 -13138657.75944  20808261.4564   20808263.8834
   -270925.37944   -211124.52544  22355938.0284   22355941.7124
  21501209.89944                  24902695.1514
  -5926710.42744  -4618226.93044  23920901.3634   23920907.3764
 -15282660.13444 -11908532.91744  22344840.4324   22344842.5974
  -4744204.71544  -3696758.61344  24193602.2044   24193613.1264
 -26178291.38644 -20398647.97544  20607999.6154   20608001.5004
 95  2 28 21 12  0.0000000  0  8G19G18G29G16G 2G31G 7G27
 -16836144.87244 -13119069.78444  20813045.1564   20813047.8364
   -172843.25544   -134696.98544  22374602.4114   22374606.9194
  21612514.14744                  24923875.5224
  -5904677.97144  -4601058.81744  23925094.2534   23925099.8094
        -0.70254         0.13954  21643413.9194   21643417.0514
 -15223384.19244 -11862343.84744  22356119.9564   22356123.1604
  -4852316.07344  -3781000.84344  24173028.9884   24173037.9244
 -26216553.58144 -20428462.63944  20600718.6034   20600720.3954
 95  2 28 21 12 30.0000000  0  7G19G18G29G16G31G 7G27
 -16810660.48644 -13099211.81644  20817894.5934   20817896.8684
    -74439.37344    -58018.71844  22393328.0804   22393332.1984
  21723917.44744                  24945074.6594
  -5882111.54044  -4583474.59344  23929388.8954   23929395.5234
 -15163551.63744 -11815721.05444  22367505.9184   22367508.4294
  -4960351.78444  -3865184.11444  24152470.1924   24152481.1134
 -26254539.70744 -20458062.18844  20593490.1154   20593491.7884
 95  2 28 21 13  0.0000000  0  7G19G18G29G16G31G 7G27
 -16784866.63744 -13079112.70644  20822802.9954   20822805.3824
     24249.80444     18881.84144  22412107.8314   22412112.3324
  21835394.82844  17014544.75244  24966288.1094
  -5859056.07444  -4565509.32244  23933775.9164   23933781.8174
 -15103189.82444 -11768685.85144  22378992.4854   22378994.7584
  -5068336.00544  -3949327.25544  24131921.2754   24131931.7004
 -26292301.00844 -20487486.55244  20586304.2274   20586305.9044
 95  2 28 21 13 30.0000000  0  7G19G18G29G16G31G 7G27
 -16758813.93044 -13058811.88644  20827760.7894   20827763.0444
    123205.18544     95989.83444  22430938.8574   22430943.0274
  21946912.96544                  24987509.7154
  -5835550.26944  -4547193.12644  23938249.1574   23938257.3484
 -15042328.24944 -11721261.23044  22390574.3944   22390576.3944
  -5176291.48444                  24111377.7644
 -26329867.60544 -20516759.19544  20579155.6844   20579157.2654
 95  2 28 21 14  0.0000000  0  7G19G18G29G16G31G 7G27
 -16732508.98844 -13038314.52444  20832766.5384   20832768.8964
    222426.75944    173305.26344  22449820.2214   22449824.4504
  22058459.79544                  25008736.4494
  -5811586.52944  -4528520.09444  23942808.9134   23942816.4244
 -14980940.54944 -11673426.63844  22402255.8074   22402258.2014
  -5284221.17144  -4117548.61844  24090838.9784   24090850.1484
 -26367214.50044 -20545860.64044  20572048.9644   20572050.2684
 95  2 28 21 14 30.0000000  0  7G19G18G29G16G31G 7G27
 -16705968.71744 -13017633.78944  20837816.9824   20837818.9084
    321893.29744    250811.56944  22468747.8734   22468752.7854
  22170045.81544                  25029970.9344
  -5787178.27544  -4509500.71044  23947453.1414   23947461.3324
 -14919027.96444 -11625183.05044  22414037.4234   22414039.9904
  -5392118.22644  -4201623.81144  24070306.1974   24070315.8784
 -26404323.31644 -20574776.56844  20564987.1934   20564988.4414
 95  2 28 21 15  0.0000000  0  7G19G18G29G16G31G 7G27
 -16679205.71944 -12996779.49744  20842909.7934   20842911.9984
    421603.92244    328508.07244  22487722.2504   22487726.8934
  22281670.02644                  25051212.6814
  -5762336.02044  -4490143.13744  23952180.8274   23952189.2674
 -14856598.38944 -11576536.61844  22425917.2804   22425919.0294
  -5499962.72244  -4285658.02744  24049784.1224   24049793.0584
 -26441173.12844 -20603490.68044  20557974.8584   20557976.2544
 95  2 28 21 15 30.0000000  0  8G19G18G29G16G 2G31G 7G27
 -16652209.84144 -12975743.74644  20848047.0974   20848049.2334
    521564.69844    406399.49444  22506744.5164   22506748.4644
  22393311.84944  17449283.78644  25072457.1024
  -5737058.81344                  23956991.0884
        -0.75054        -0.28854  21589162.8724   21589165.6644
 -14793658.64244 -11527492.65144  22437894.1774   22437896.9224
  -5607757.44444  -4369653.49744  24029271.3214   24029278.2964
 -26477746.33044 -20631989.24944  20551015.2704   20551016.7834
 95  2 28 21 16  0.0000000  0  8G19G18G29G16G 2G31G 7G27
 -16625004.33844 -12954544.65144  20853224.2304   20853226.0984
    621730.28044    484450.50244  22525805.5174   22525809.5904
  22504925.41244                  25093696.8864
  -5711392.25644                  23961875.1834
    -39614.84444    -30869.20944  21581624.3024   21581627.1054
 -14730254.77644 -11478087.04644  22449959.6404   22449962.4214
  -5715550.03344  -4453647.30444  24008758.6474   24008768.3274
 -26514095.39044 -20660313.16444  20544098.1934   20544099.5064
 95  2 28 21 16 30.0000000  0  8G19G18G29G16G 2G31G 7G27
 -16597578.94544 -12933174.21044  20858442.8394   20858445.1084
    722108.23844    562666.99444  22544907.1304   22544911.3684
  22616520.10944                  25114933.1364
  -5685344.39344                  23966832.5004
    -79035.53844    -61586.57244  21574122.9234   21574125.4994
 -14666414.47344 -11428341.34244  22462107.9794   22462109.9004
  -5823324.86844  -4537627.26944  23988249.4664   23988259.3944
 -26550241.82044 -20688479.18544  20537219.7834   20537221.1074
 95  2 28 21 17  0.0000000  0  8G19G18G29G16G 2G31G 7G27
 -16569866.54044 -12911580.12444  20863716.0124   20863718.3824
    822752.77644    641091.21244  22564058.7654   22564063.1484
  22728131.44144                  25136172.3894
  -5658851.46144  -4409506.01044  23971873.8944   23971884.0704
   -118215.39444    -92116.27044  21566667.1554   21566670.2574
 -14602104.64844 -11378229.78744  22474345.8074   22474348.3694
  -5931043.09744  -4621563.16044  23967750.8424   23967758.5924
 -26586150.14944 -20716459.67344  20530386.6524   20530387.9714
 95  2 28 21 17 30.0000000  0  8G19G18G29G16G 2G31G 7G27
 -16541782.24144 -12889696.25344  20869060.5954   20869062.8864
    923732.44644    719776.56844  22583274.6504   22583279.1354
  22839833.97544                  25157429.2634
  -5631832.47344  -4388452.31844  23977015.9964   23977026.4214
   -157094.31044   -122411.46444  21559268.7164   21559271.6114
 -14537255.79244 -11327698.21444  22486685.8914   22486688.7794
  -6038655.81044  -4705416.81444  23947271.9314   23947283.5984
 -26621762.31044 -20744209.37344  20523609.6854   20523610.9374
 95  2 28 21 18  0.0000000  0  8G 2G19G18G29G16G31G 7G27
   -195716.55744   -152506.65644  21551919.1444   21551922.0584
 -16513356.00644 -12867545.94144  20874469.8604   20874471.9754
   1025001.92544    798687.76044  22602546.0174   22602550.3074
  22951615.02244                  25178700.6814
  -5604308.26144                  23982253.5984
 -14471896.47744 -11276768.88344  22499123.4524   22499125.7994
  -6146175.33944  -4789197.87944  23926810.9494   23926818.4084
 -26657110.29244 -20771753.22844  20516883.4284   20516884.6494
 95  2 28 21 18 30.0000000  0  8G 2G19G18G29G16G31G 7G27
   -234103.25544   -182418.30244  21544614.2414   21544616.9124
 -16484640.28344 -12845170.05344  20879934.3624   20879936.5804
   1126514.95944    877788.72844  22621862.9954   22621867.4714
  23063430.10644                  25199978.6074
  -5576315.96444                  23987579.8574
 -14406077.19244 -11225481.12244  22511648.1694   22511649.9574
  -6253637.37144  -4872934.12744  23906361.3434   23906372.0164
 -26692228.56544 -20799118.09044  20510200.5284   20510201.8054
 95  2 28 21 19  0.0000000  0  8G 2G19G18G29G16G31G 7G27
   -272255.10644   -212146.94944  21537353.9084   21537356.5014
 -16455674.40844 -12822599.24244  20885446.3924   20885448.6774
   1228231.02444    957047.89944  22641219.1674   22641223.2104
  23175239.35544                  25221255.4984
  -5547902.66844  -4323053.36144  23992986.6454   23992985.5114
 -14339819.45344 -11173851.72944  22524256.5334   22524259.3584
  -6361087.28344  -4956660.93344  23885914.5484   23885926.2144
 -26727130.38244 -20826314.28444  20503558.6684   20503560.1934
 95  2 28 21 19 30.0000000  0  8G 2G19G18G29G16G31G 7G27
   -310154.92044   -241679.20444  21530141.8704   21530144.3874
 -16426447.14944 -12799824.76244  20891008.0414   20891010.2684
   1330163.64444   1036475.82444  22660616.3334   22660620.6584
  23287072.64144                  25242537.2074
  -5519070.91344  -4300589.61344  23998473.1444   23998474.4554
 -14273084.92344 -11121850.80344  22536956.0604   22536958.9904
  -6468490.91144  -5040351.73044  23865476.5764   23865483.9844
 -26761787.42844 -20853319.74144  20496963.6554   20496965.3114
 95  2 28 21 20  0.0000000  0  8G19G18G29G16G 2G31G 7G27
 -16396952.06844 -12776841.59044  20896620.9734   20896623.1374
   1432329.65444   1116085.59844  22680058.0424   22680062.8854
  23398939.92044                  25263824.5814
  -5489816.03644  -4277801.18444  24004040.3334   24004042.2984
   -347764.55344   -270985.33644  21522985.0784   21522987.8664
 -14205847.28444 -11069457.83944  22549750.7864   22549753.2274
  -6575815.79244                  23845053.1414
 -26796166.90044 -20880108.90844  20490421.5464   20490422.8624
